<?xml version='1.0' encoding='UTF-8'?><gpx version="1.1" creator="JPX - https://github.com/jenetics/jpx" xmlns="http://www.topografix.com/GPX/1/1"><trk><trkseg><trkpt lat="41.986029" lon="2.0957569"><ele>573.0</ele><time>2026-05-03T08:25:25.238Z</time></trkpt><trkpt lat="41.9861227" lon="2.0956863"><ele>573.0</ele><time>2026-05-03T08:25:59.433Z</time></trkpt><trkpt lat="41.9860214" lon="2.0957831"><ele>573.0</ele><time>2026-05-03T08:27:41.213Z</time></trkpt><trkpt lat="41.9859781" lon="2.095852"><ele>573.0</ele><time>2026-05-03T08:29:39.241Z</time></trkpt><trkpt lat="41.9859519" lon="2.0959301"><ele>573.0</ele><time>2026-05-03T08:30:15.236Z</time></trkpt><trkpt lat="41.985911" lon="2.0960088"><ele>573.0</ele><time>2026-05-03T08:32:08.234Z</time></trkpt><trkpt lat="41.9859559" lon="2.0960988"><ele>573.0</ele><time>2026-05-03T08:32:10.235Z</time></trkpt><trkpt lat="41.9859798" lon="2.0962148"><ele>573.0</ele><time>2026-05-03T08:32:12.235Z</time></trkpt><trkpt lat="41.9860021" lon="2.0963372"><ele>573.0</ele><time>2026-05-03T08:32:14.235Z</time></trkpt><trkpt lat="41.9860233" lon="2.0964306"><ele>573.0</ele><time>2026-05-03T08:32:16.235Z</time></trkpt><trkpt lat="41.9860776" lon="2.0965155"><ele>573.0</ele><time>2026-05-03T08:32:20.235Z</time></trkpt><trkpt lat="41.9861474" lon="2.0965271"><ele>573.0</ele><time>2026-05-03T08:32:22.234Z</time></trkpt><trkpt lat="41.9862371" lon="2.0965188"><ele>573.0</ele><time>2026-05-03T08:32:24.235Z</time></trkpt><trkpt lat="41.9863496" lon="2.0965009"><ele>573.0</ele><time>2026-05-03T08:32:26.235Z</time></trkpt><trkpt lat="41.9864645" lon="2.0965016"><ele>573.0</ele><time>2026-05-03T08:32:28.235Z</time></trkpt><trkpt lat="41.9865632" lon="2.0964886"><ele>573.0</ele><time>2026-05-03T08:32:30.235Z</time></trkpt><trkpt lat="41.9866234" lon="2.0963563"><ele>573.0</ele><time>2026-05-03T08:32:32.234Z</time></trkpt><trkpt lat="41.9866398" lon="2.0962744"><ele>573.0</ele><time>2026-05-03T08:32:33.234Z</time></trkpt><trkpt lat="41.9866735" lon="2.0961931"><ele>573.0</ele><time>2026-05-03T08:32:34.235Z</time></trkpt><trkpt lat="41.9867195" lon="2.0961157"><ele>573.0</ele><time>2026-05-03T08:32:35.235Z</time></trkpt><trkpt lat="41.9867812" lon="2.0960543"><ele>573.0</ele><time>2026-05-03T08:32:36.235Z</time></trkpt><trkpt lat="41.9868601" lon="2.0960115"><ele>573.0</ele><time>2026-05-03T08:32:37.235Z</time></trkpt><trkpt lat="41.9869501" lon="2.0959934"><ele>573.0</ele><time>2026-05-03T08:32:38.235Z</time></trkpt><trkpt lat="41.9870507" lon="2.0959977"><ele>573.0</ele><time>2026-05-03T08:32:39.235Z</time></trkpt><trkpt lat="41.9871588" lon="2.096014"><ele>573.0</ele><time>2026-05-03T08:32:40.234Z</time></trkpt><trkpt lat="41.9872756" lon="2.0960378"><ele>573.0</ele><time>2026-05-03T08:32:41.234Z</time></trkpt><trkpt lat="41.9873979" lon="2.0960617"><ele>573.0</ele><time>2026-05-03T08:32:42.235Z</time></trkpt><trkpt lat="41.9875252" lon="2.0960897"><ele>573.75</ele><time>2026-05-03T08:32:43.235Z</time></trkpt><trkpt lat="41.9876598" lon="2.096116"><ele>574.5</ele><time>2026-05-03T08:32:44.234Z</time></trkpt><trkpt lat="41.9877978" lon="2.0961433"><ele>575.25</ele><time>2026-05-03T08:32:45.235Z</time></trkpt><trkpt lat="41.9879384" lon="2.0961713"><ele>576.0</ele><time>2026-05-03T08:32:46.235Z</time></trkpt><trkpt lat="41.9880815" lon="2.096205"><ele>576.0</ele><time>2026-05-03T08:32:47.235Z</time></trkpt><trkpt lat="41.9882317" lon="2.0962366"><ele>576.0</ele><time>2026-05-03T08:32:48.235Z</time></trkpt><trkpt lat="41.9883835" lon="2.0962663"><ele>576.0</ele><time>2026-05-03T08:32:49.235Z</time></trkpt><trkpt lat="41.9885418" lon="2.0962969"><ele>579.0</ele><time>2026-05-03T08:32:50.235Z</time></trkpt><trkpt lat="41.988702" lon="2.0963306"><ele>582.0</ele><time>2026-05-03T08:32:51.235Z</time></trkpt><trkpt lat="41.9888616" lon="2.0963688"><ele>585.0</ele><time>2026-05-03T08:32:52.235Z</time></trkpt><trkpt lat="41.9890093" lon="2.096398"><ele>585.0</ele><time>2026-05-03T08:32:53.235Z</time></trkpt><trkpt lat="41.9891562" lon="2.0964094"><ele>585.0</ele><time>2026-05-03T08:32:54.234Z</time></trkpt><trkpt lat="41.9893028" lon="2.0963913"><ele>585.0</ele><time>2026-05-03T08:32:55.234Z</time></trkpt><trkpt lat="41.9894436" lon="2.0963259"><ele>585.0</ele><time>2026-05-03T08:32:56.234Z</time></trkpt><trkpt lat="41.9895737" lon="2.0962205"><ele>585.6666666666666</ele><time>2026-05-03T08:32:57.235Z</time></trkpt><trkpt lat="41.9896972" lon="2.0960784"><ele>586.3333333333333</ele><time>2026-05-03T08:32:58.234Z</time></trkpt><trkpt lat="41.9898114" lon="2.0959147"><ele>587.0</ele><time>2026-05-03T08:32:59.235Z</time></trkpt><trkpt lat="41.9899164" lon="2.0957352"><ele>590.6666666666666</ele><time>2026-05-03T08:33:00.235Z</time></trkpt><trkpt lat="41.9900102" lon="2.0955325"><ele>594.3333333333334</ele><time>2026-05-03T08:33:01.235Z</time></trkpt><trkpt lat="41.9900841" lon="2.0953511"><ele>598.0</ele><time>2026-05-03T08:33:02.234Z</time></trkpt><trkpt lat="41.9901667" lon="2.0952029"><ele>598.0</ele><time>2026-05-03T08:33:03.234Z</time></trkpt><trkpt lat="41.9902734" lon="2.0951163"><ele>598.0</ele><time>2026-05-03T08:33:04.234Z</time></trkpt><trkpt lat="41.9903979" lon="2.0950768"><ele>598.0</ele><time>2026-05-03T08:33:05.235Z</time></trkpt><trkpt lat="41.9905395" lon="2.0950749"><ele>598.0</ele><time>2026-05-03T08:33:06.235Z</time></trkpt><trkpt lat="41.9906875" lon="2.0951291"><ele>598.0</ele><time>2026-05-03T08:33:07.235Z</time></trkpt><trkpt lat="41.9908357" lon="2.0952441"><ele>598.0</ele><time>2026-05-03T08:33:08.235Z</time></trkpt><trkpt lat="41.9909858" lon="2.0953945"><ele>598.0</ele><time>2026-05-03T08:33:09.235Z</time></trkpt><trkpt lat="41.9911289" lon="2.0955696"><ele>599.3333333333334</ele><time>2026-05-03T08:33:10.235Z</time></trkpt><trkpt lat="41.9912922" lon="2.0957425"><ele>600.6666666666666</ele><time>2026-05-03T08:33:11.235Z</time></trkpt><trkpt lat="41.9914718" lon="2.095897"><ele>602.0</ele><time>2026-05-03T08:33:12.234Z</time></trkpt><trkpt lat="41.9916675" lon="2.0960366"><ele>597.0</ele><time>2026-05-03T08:33:13.234Z</time></trkpt><trkpt lat="41.9918778" lon="2.0961481"><ele>592.0</ele><time>2026-05-03T08:33:14.234Z</time></trkpt><trkpt lat="41.9920998" lon="2.0962326"><ele>592.0</ele><time>2026-05-03T08:33:15.235Z</time></trkpt><trkpt lat="41.9923293" lon="2.0962867"><ele>592.0</ele><time>2026-05-03T08:33:16.234Z</time></trkpt><trkpt lat="41.9925443" lon="2.0963265"><ele>594.6666666666667</ele><time>2026-05-03T08:33:17.234Z</time></trkpt><trkpt lat="41.9927415" lon="2.0963729"><ele>597.3333333333334</ele><time>2026-05-03T08:33:18.235Z</time></trkpt><trkpt lat="41.9929267" lon="2.0964392"><ele>600.0</ele><time>2026-05-03T08:33:19.235Z</time></trkpt><trkpt lat="41.9930943" lon="2.0965193"><ele>599.0</ele><time>2026-05-03T08:33:20.235Z</time></trkpt><trkpt lat="41.9932466" lon="2.09661"><ele>598.0</ele><time>2026-05-03T08:33:21.234Z</time></trkpt><trkpt lat="41.9933814" lon="2.0967063"><ele>597.0</ele><time>2026-05-03T08:33:22.235Z</time></trkpt><trkpt lat="41.9934987" lon="2.0968029"><ele>599.0</ele><time>2026-05-03T08:33:23.235Z</time></trkpt><trkpt lat="41.9936026" lon="2.096895"><ele>601.0</ele><time>2026-05-03T08:33:24.235Z</time></trkpt><trkpt lat="41.99369" lon="2.096979"><ele>603.0</ele><time>2026-05-03T08:33:25.235Z</time></trkpt><trkpt lat="41.9937576" lon="2.0970471"><ele>605.0</ele><time>2026-05-03T08:33:26.234Z</time></trkpt><trkpt lat="41.9938435" lon="2.097128"><ele>607.0</ele><time>2026-05-03T08:33:28.235Z</time></trkpt><trkpt lat="41.9939097" lon="2.0971404"><ele>607.0</ele><time>2026-05-03T08:33:30.235Z</time></trkpt><trkpt lat="41.9940033" lon="2.0970688"><ele>607.0</ele><time>2026-05-03T08:33:32.235Z</time></trkpt><trkpt lat="41.9940498" lon="2.096986"><ele>607.0</ele><time>2026-05-03T08:33:33.235Z</time></trkpt><trkpt lat="41.9941101" lon="2.0968843"><ele>607.0</ele><time>2026-05-03T08:33:34.234Z</time></trkpt><trkpt lat="41.9941834" lon="2.0967645"><ele>607.0</ele><time>2026-05-03T08:33:35.235Z</time></trkpt><trkpt lat="41.9942664" lon="2.0966306"><ele>609.0</ele><time>2026-05-03T08:33:36.235Z</time></trkpt><trkpt lat="41.9943597" lon="2.0964805"><ele>611.0</ele><time>2026-05-03T08:33:37.235Z</time></trkpt><trkpt lat="41.9944606" lon="2.0963165"><ele>613.0</ele><time>2026-05-03T08:33:38.235Z</time></trkpt><trkpt lat="41.9945703" lon="2.0961422"><ele>613.0</ele><time>2026-05-03T08:33:39.234Z</time></trkpt><trkpt lat="41.9946944" lon="2.0959617"><ele>613.0</ele><time>2026-05-03T08:33:40.234Z</time></trkpt><trkpt lat="41.9948298" lon="2.0957825"><ele>613.0</ele><time>2026-05-03T08:33:41.235Z</time></trkpt><trkpt lat="41.994978" lon="2.0956071"><ele>615.0</ele><time>2026-05-03T08:33:42.235Z</time></trkpt><trkpt lat="41.9951375" lon="2.0954365"><ele>617.0</ele><time>2026-05-03T08:33:43.234Z</time></trkpt><trkpt lat="41.995308" lon="2.0952743"><ele>619.0</ele><time>2026-05-03T08:33:44.235Z</time></trkpt><trkpt lat="41.9954891" lon="2.0951205"><ele>619.0</ele><time>2026-05-03T08:33:45.235Z</time></trkpt><trkpt lat="41.9956795" lon="2.0949725"><ele>619.0</ele><time>2026-05-03T08:33:46.235Z</time></trkpt><trkpt lat="41.9958699" lon="2.0948298"><ele>619.0</ele><time>2026-05-03T08:33:47.234Z</time></trkpt><trkpt lat="41.9960698" lon="2.094686"><ele>619.6666666666667</ele><time>2026-05-03T08:33:48.234Z</time></trkpt><trkpt lat="41.9962649" lon="2.0945472"><ele>620.3333333333334</ele><time>2026-05-03T08:33:49.235Z</time></trkpt><trkpt lat="41.9964524" lon="2.0944117"><ele>621.0</ele><time>2026-05-03T08:33:50.235Z</time></trkpt><trkpt lat="41.9966402" lon="2.0942798"><ele>621.6666666666666</ele><time>2026-05-03T08:33:51.234Z</time></trkpt><trkpt lat="41.9968336" lon="2.0941503"><ele>622.3333333333333</ele><time>2026-05-03T08:33:52.235Z</time></trkpt><trkpt lat="41.9970287" lon="2.0940244"><ele>623.0</ele><time>2026-05-03T08:33:53.235Z</time></trkpt><trkpt lat="41.9972232" lon="2.0938974"><ele>623.0</ele><time>2026-05-03T08:33:54.234Z</time></trkpt><trkpt lat="41.9974218" lon="2.0937719"><ele>623.0</ele><time>2026-05-03T08:33:55.234Z</time></trkpt><trkpt lat="41.9976247" lon="2.0936485"><ele>623.0</ele><time>2026-05-03T08:33:56.235Z</time></trkpt><trkpt lat="41.9978332" lon="2.0935306"><ele>624.5</ele><time>2026-05-03T08:33:57.235Z</time></trkpt><trkpt lat="41.9980454" lon="2.0934076"><ele>626.0</ele><time>2026-05-03T08:33:58.235Z</time></trkpt><trkpt lat="41.9982613" lon="2.0932891"><ele>621.5</ele><time>2026-05-03T08:33:59.235Z</time></trkpt><trkpt lat="41.998477" lon="2.0931737"><ele>617.0</ele><time>2026-05-03T08:34:00.235Z</time></trkpt><trkpt lat="41.9986892" lon="2.0930676"><ele>617.0</ele><time>2026-05-03T08:34:01.235Z</time></trkpt><trkpt lat="41.9989021" lon="2.0929614"><ele>617.0</ele><time>2026-05-03T08:34:02.235Z</time></trkpt><trkpt lat="41.9991136" lon="2.09286"><ele>616.0</ele><time>2026-05-03T08:34:03.235Z</time></trkpt><trkpt lat="41.9993294" lon="2.092757"><ele>615.0</ele><time>2026-05-03T08:34:04.234Z</time></trkpt><trkpt lat="41.9995512" lon="2.0926533"><ele>615.0</ele><time>2026-05-03T08:34:05.235Z</time></trkpt><trkpt lat="41.9997786" lon="2.0925489"><ele>615.0</ele><time>2026-05-03T08:34:06.235Z</time></trkpt><trkpt lat="42.0000085" lon="2.0924474"><ele>612.0</ele><time>2026-05-03T08:34:07.235Z</time></trkpt><trkpt lat="42.000241" lon="2.092345"><ele>609.0</ele><time>2026-05-03T08:34:08.235Z</time></trkpt><trkpt lat="42.000475" lon="2.0922408"><ele>609.0</ele><time>2026-05-03T08:34:09.235Z</time></trkpt><trkpt lat="42.000708" lon="2.0921365"><ele>609.0</ele><time>2026-05-03T08:34:10.235Z</time></trkpt><trkpt lat="42.0009385" lon="2.0920339"><ele>609.0</ele><time>2026-05-03T08:34:11.234Z</time></trkpt><trkpt lat="42.0011676" lon="2.0919356"><ele>609.0</ele><time>2026-05-03T08:34:12.235Z</time></trkpt><trkpt lat="42.0013946" lon="2.0918395"><ele>609.0</ele><time>2026-05-03T08:34:13.235Z</time></trkpt><trkpt lat="42.0016259" lon="2.0917419"><ele>609.0</ele><time>2026-05-03T08:34:14.234Z</time></trkpt><trkpt lat="42.0018559" lon="2.0916439"><ele>607.5</ele><time>2026-05-03T08:34:15.235Z</time></trkpt><trkpt lat="42.0020801" lon="2.0915432"><ele>606.0</ele><time>2026-05-03T08:34:16.235Z</time></trkpt><trkpt lat="42.0023119" lon="2.0914446"><ele>607.0</ele><time>2026-05-03T08:34:17.235Z</time></trkpt><trkpt lat="42.0025404" lon="2.0913427"><ele>608.0</ele><time>2026-05-03T08:34:18.235Z</time></trkpt><trkpt lat="42.002763" lon="2.0912222"><ele>608.0</ele><time>2026-05-03T08:34:19.235Z</time></trkpt><trkpt lat="42.0029763" lon="2.0910791"><ele>608.0</ele><time>2026-05-03T08:34:20.234Z</time></trkpt><trkpt lat="42.0031787" lon="2.0909153"><ele>606.5</ele><time>2026-05-03T08:34:21.234Z</time></trkpt><trkpt lat="42.0033711" lon="2.0907267"><ele>605.0</ele><time>2026-05-03T08:34:22.235Z</time></trkpt><trkpt lat="42.0035566" lon="2.0905225"><ele>605.0</ele><time>2026-05-03T08:34:23.235Z</time></trkpt><trkpt lat="42.0037357" lon="2.0903059"><ele>605.0</ele><time>2026-05-03T08:34:24.234Z</time></trkpt><trkpt lat="42.0039054" lon="2.0900811"><ele>603.5</ele><time>2026-05-03T08:34:25.235Z</time></trkpt><trkpt lat="42.0040764" lon="2.0898531"><ele>602.0</ele><time>2026-05-03T08:34:26.234Z</time></trkpt><trkpt lat="42.0042531" lon="2.0896381"><ele>605.0</ele><time>2026-05-03T08:34:27.235Z</time></trkpt><trkpt lat="42.0044404" lon="2.0894485"><ele>608.0</ele><time>2026-05-03T08:34:28.235Z</time></trkpt><trkpt lat="42.0046336" lon="2.0892706"><ele>608.0</ele><time>2026-05-03T08:34:29.235Z</time></trkpt><trkpt lat="42.0048358" lon="2.0891172"><ele>608.0</ele><time>2026-05-03T08:34:30.235Z</time></trkpt><trkpt lat="42.0050458" lon="2.0889884"><ele>605.5</ele><time>2026-05-03T08:34:31.235Z</time></trkpt><trkpt lat="42.0052639" lon="2.0888821"><ele>603.0</ele><time>2026-05-03T08:34:32.235Z</time></trkpt><trkpt lat="42.0054878" lon="2.0887851"><ele>603.0</ele><time>2026-05-03T08:34:33.235Z</time></trkpt><trkpt lat="42.0057129" lon="2.0886875"><ele>603.0</ele><time>2026-05-03T08:34:34.234Z</time></trkpt><trkpt lat="42.0059374" lon="2.0885812"><ele>602.0</ele><time>2026-05-03T08:34:35.235Z</time></trkpt><trkpt lat="42.0061592" lon="2.0884641"><ele>601.0</ele><time>2026-05-03T08:34:36.235Z</time></trkpt><trkpt lat="42.0063767" lon="2.0883382"><ele>602.5</ele><time>2026-05-03T08:34:37.235Z</time></trkpt><trkpt lat="42.0065881" lon="2.0881992"><ele>604.0</ele><time>2026-05-03T08:34:38.234Z</time></trkpt><trkpt lat="42.0067925" lon="2.0880487"><ele>604.0</ele><time>2026-05-03T08:34:39.234Z</time></trkpt><trkpt lat="42.0069872" lon="2.0878843"><ele>604.0</ele><time>2026-05-03T08:34:40.235Z</time></trkpt><trkpt lat="42.0071754" lon="2.087707"><ele>604.0</ele><time>2026-05-03T08:34:41.234Z</time></trkpt><trkpt lat="42.0073538" lon="2.0875174"><ele>604.0</ele><time>2026-05-03T08:34:42.235Z</time></trkpt><trkpt lat="42.0075269" lon="2.0873101"><ele>608.0</ele><time>2026-05-03T08:34:43.234Z</time></trkpt><trkpt lat="42.0076973" lon="2.087092"><ele>612.0</ele><time>2026-05-03T08:34:44.235Z</time></trkpt><trkpt lat="42.007861" lon="2.0868566"><ele>612.0</ele><time>2026-05-03T08:34:45.235Z</time></trkpt><trkpt lat="42.0080168" lon="2.0866093"><ele>612.0</ele><time>2026-05-03T08:34:46.234Z</time></trkpt><trkpt lat="42.0081647" lon="2.0863514"><ele>613.5</ele><time>2026-05-03T08:34:47.234Z</time></trkpt><trkpt lat="42.0083106" lon="2.0860852"><ele>615.0</ele><time>2026-05-03T08:34:48.235Z</time></trkpt><trkpt lat="42.0084554" lon="2.0858177"><ele>614.0</ele><time>2026-05-03T08:34:49.234Z</time></trkpt><trkpt lat="42.0085955" lon="2.0855462"><ele>613.0</ele><time>2026-05-03T08:34:50.235Z</time></trkpt><trkpt lat="42.0087388" lon="2.085278"><ele>613.0</ele><time>2026-05-03T08:34:51.234Z</time></trkpt><trkpt lat="42.0088844" lon="2.0850111"><ele>613.0</ele><time>2026-05-03T08:34:52.234Z</time></trkpt><trkpt lat="42.0090291" lon="2.0847442"><ele>616.5</ele><time>2026-05-03T08:34:53.235Z</time></trkpt><trkpt lat="42.0091733" lon="2.0844726"><ele>620.0</ele><time>2026-05-03T08:34:54.235Z</time></trkpt><trkpt lat="42.0093162" lon="2.0842007"><ele>622.5</ele><time>2026-05-03T08:34:55.234Z</time></trkpt><trkpt lat="42.0094605" lon="2.083929"><ele>625.0</ele><time>2026-05-03T08:34:56.235Z</time></trkpt><trkpt lat="42.009606" lon="2.0836575"><ele>625.0</ele><time>2026-05-03T08:34:57.235Z</time></trkpt><trkpt lat="42.009751" lon="2.0833822"><ele>625.0</ele><time>2026-05-03T08:34:58.235Z</time></trkpt><trkpt lat="42.009895" lon="2.0831076"><ele>629.0</ele><time>2026-05-03T08:34:59.234Z</time></trkpt><trkpt lat="42.0100399" lon="2.0828313"><ele>633.0</ele><time>2026-05-03T08:35:00.235Z</time></trkpt><trkpt lat="42.0101837" lon="2.082559"><ele>629.5</ele><time>2026-05-03T08:35:01.235Z</time></trkpt><trkpt lat="42.0103263" lon="2.0822876"><ele>626.0</ele><time>2026-05-03T08:35:02.234Z</time></trkpt><trkpt lat="42.0104697" lon="2.0820194"><ele>626.0</ele><time>2026-05-03T08:35:03.234Z</time></trkpt><trkpt lat="42.0106126" lon="2.0817553"><ele>626.0</ele><time>2026-05-03T08:35:04.235Z</time></trkpt><trkpt lat="42.0107544" lon="2.0814905"><ele>623.5</ele><time>2026-05-03T08:35:05.235Z</time></trkpt><trkpt lat="42.0108954" lon="2.0812251"><ele>621.0</ele><time>2026-05-03T08:35:06.235Z</time></trkpt><trkpt lat="42.01103" lon="2.0809667"><ele>618.6666666666666</ele><time>2026-05-03T08:35:07.234Z</time></trkpt><trkpt lat="42.0111564" lon="2.0807217"><ele>616.3333333333333</ele><time>2026-05-03T08:35:08.235Z</time></trkpt><trkpt lat="42.0112753" lon="2.0804892"><ele>614.0</ele><time>2026-05-03T08:35:09.235Z</time></trkpt><trkpt lat="42.011388" lon="2.0802672"><ele>614.0</ele><time>2026-05-03T08:35:10.235Z</time></trkpt><trkpt lat="42.0114959" lon="2.0800504"><ele>614.0</ele><time>2026-05-03T08:35:11.235Z</time></trkpt><trkpt lat="42.0115987" lon="2.0798273"><ele>614.0</ele><time>2026-05-03T08:35:12.235Z</time></trkpt><trkpt lat="42.0116947" lon="2.0795911"><ele>613.3333333333333</ele><time>2026-05-03T08:35:13.235Z</time></trkpt><trkpt lat="42.0117847" lon="2.0793566"><ele>612.6666666666666</ele><time>2026-05-03T08:35:14.234Z</time></trkpt><trkpt lat="42.0118649" lon="2.079135"><ele>612.0</ele><time>2026-05-03T08:35:15.234Z</time></trkpt><trkpt lat="42.011935" lon="2.0789296"><ele>612.0</ele><time>2026-05-03T08:35:16.235Z</time></trkpt><trkpt lat="42.0119901" lon="2.0787421"><ele>612.0</ele><time>2026-05-03T08:35:17.234Z</time></trkpt><trkpt lat="42.0120307" lon="2.0785726"><ele>612.0</ele><time>2026-05-03T08:35:18.235Z</time></trkpt><trkpt lat="42.0120684" lon="2.0784346"><ele>612.0</ele><time>2026-05-03T08:35:19.235Z</time></trkpt><trkpt lat="42.0121097" lon="2.0783273"><ele>612.0</ele><time>2026-05-03T08:35:20.235Z</time></trkpt><trkpt lat="42.0121653" lon="2.0782555"><ele>612.0</ele><time>2026-05-03T08:35:21.235Z</time></trkpt><trkpt lat="42.0122298" lon="2.0782178"><ele>612.0</ele><time>2026-05-03T08:35:22.235Z</time></trkpt><trkpt lat="42.0123552" lon="2.078261"><ele>612.0</ele><time>2026-05-03T08:35:24.234Z</time></trkpt><trkpt lat="42.0124239" lon="2.0783383"><ele>612.0</ele><time>2026-05-03T08:35:25.234Z</time></trkpt><trkpt lat="42.0124925" lon="2.0784503"><ele>609.75</ele><time>2026-05-03T08:35:26.235Z</time></trkpt><trkpt lat="42.0125602" lon="2.0785863"><ele>607.5</ele><time>2026-05-03T08:35:27.234Z</time></trkpt><trkpt lat="42.0126294" lon="2.0787385"><ele>605.25</ele><time>2026-05-03T08:35:28.234Z</time></trkpt><trkpt lat="42.0127007" lon="2.0789006"><ele>603.0</ele><time>2026-05-03T08:35:29.235Z</time></trkpt><trkpt lat="42.0127715" lon="2.0790759"><ele>604.6666666666666</ele><time>2026-05-03T08:35:30.234Z</time></trkpt><trkpt lat="42.0128411" lon="2.0792671"><ele>606.3333333333333</ele><time>2026-05-03T08:35:31.234Z</time></trkpt><trkpt lat="42.012901" lon="2.0794726"><ele>608.0</ele><time>2026-05-03T08:35:32.235Z</time></trkpt><trkpt lat="42.0129478" lon="2.0796917"><ele>608.0</ele><time>2026-05-03T08:35:33.234Z</time></trkpt><trkpt lat="42.0129727" lon="2.0799264"><ele>608.0</ele><time>2026-05-03T08:35:34.235Z</time></trkpt><trkpt lat="42.0129774" lon="2.0801762"><ele>608.0</ele><time>2026-05-03T08:35:35.234Z</time></trkpt><trkpt lat="42.0129775" lon="2.0804196"><ele>609.6666666666666</ele><time>2026-05-03T08:35:36.235Z</time></trkpt><trkpt lat="42.0129949" lon="2.0806369"><ele>611.3333333333334</ele><time>2026-05-03T08:35:37.234Z</time></trkpt><trkpt lat="42.0130575" lon="2.0808365"><ele>613.0</ele><time>2026-05-03T08:35:38.234Z</time></trkpt><trkpt lat="42.0131604" lon="2.0810331"><ele>614.3333333333334</ele><time>2026-05-03T08:35:39.234Z</time></trkpt><trkpt lat="42.0132932" lon="2.081219"><ele>615.6666666666666</ele><time>2026-05-03T08:35:40.234Z</time></trkpt><trkpt lat="42.0134474" lon="2.0814032"><ele>617.0</ele><time>2026-05-03T08:35:41.235Z</time></trkpt><trkpt lat="42.0136072" lon="2.0816033"><ele>620.5</ele><time>2026-05-03T08:35:42.235Z</time></trkpt><trkpt lat="42.0137689" lon="2.0818265"><ele>624.0</ele><time>2026-05-03T08:35:43.234Z</time></trkpt><trkpt lat="42.0139354" lon="2.0820668"><ele>624.0</ele><time>2026-05-03T08:35:44.235Z</time></trkpt><trkpt lat="42.0141043" lon="2.0823213"><ele>624.0</ele><time>2026-05-03T08:35:45.234Z</time></trkpt><trkpt lat="42.014278" lon="2.0825856"><ele>626.0</ele><time>2026-05-03T08:35:46.235Z</time></trkpt><trkpt lat="42.0144547" lon="2.082854"><ele>628.0</ele><time>2026-05-03T08:35:47.234Z</time></trkpt><trkpt lat="42.0146094" lon="2.0830915"><ele>628.6666666666667</ele><time>2026-05-03T08:35:48.235Z</time></trkpt><trkpt lat="42.01474" lon="2.0833134"><ele>629.3333333333334</ele><time>2026-05-03T08:35:49.235Z</time></trkpt><trkpt lat="42.0148499" lon="2.0835437"><ele>630.0</ele><time>2026-05-03T08:35:50.234Z</time></trkpt><trkpt lat="42.0149301" lon="2.0838078"><ele>633.5</ele><time>2026-05-03T08:35:51.235Z</time></trkpt><trkpt lat="42.0149944" lon="2.0841099"><ele>637.0</ele><time>2026-05-03T08:35:52.235Z</time></trkpt><trkpt lat="42.015055" lon="2.0844341"><ele>637.0</ele><time>2026-05-03T08:35:53.235Z</time></trkpt><trkpt lat="42.0151093" lon="2.0847386"><ele>637.0</ele><time>2026-05-03T08:35:54.235Z</time></trkpt><trkpt lat="42.0151615" lon="2.0850135"><ele>637.0</ele><time>2026-05-03T08:35:55.234Z</time></trkpt><trkpt lat="42.0152324" lon="2.0852414"><ele>639.3333333333334</ele><time>2026-05-03T08:35:56.235Z</time></trkpt><trkpt lat="42.0153433" lon="2.0854619"><ele>641.6666666666666</ele><time>2026-05-03T08:35:57.235Z</time></trkpt><trkpt lat="42.0154744" lon="2.0856881"><ele>644.0</ele><time>2026-05-03T08:35:58.235Z</time></trkpt><trkpt lat="42.0155932" lon="2.0858762"><ele>643.6666666666666</ele><time>2026-05-03T08:35:59.234Z</time></trkpt><trkpt lat="42.0157171" lon="2.0860281"><ele>643.3333333333334</ele><time>2026-05-03T08:36:00.235Z</time></trkpt><trkpt lat="42.0158654" lon="2.0861307"><ele>643.0</ele><time>2026-05-03T08:36:01.235Z</time></trkpt><trkpt lat="42.0160498" lon="2.086212"><ele>643.0</ele><time>2026-05-03T08:36:02.235Z</time></trkpt><trkpt lat="42.0162559" lon="2.0862972"><ele>643.0</ele><time>2026-05-03T08:36:03.234Z</time></trkpt><trkpt lat="42.0164724" lon="2.0864121"><ele>643.0</ele><time>2026-05-03T08:36:04.235Z</time></trkpt><trkpt lat="42.0166967" lon="2.0865609"><ele>647.5</ele><time>2026-05-03T08:36:05.235Z</time></trkpt><trkpt lat="42.0169271" lon="2.0867301"><ele>652.0</ele><time>2026-05-03T08:36:06.234Z</time></trkpt><trkpt lat="42.0171714" lon="2.0868985"><ele>652.0</ele><time>2026-05-03T08:36:07.235Z</time></trkpt><trkpt lat="42.0174254" lon="2.0870715"><ele>652.0</ele><time>2026-05-03T08:36:08.235Z</time></trkpt><trkpt lat="42.0176703" lon="2.0872395"><ele>650.0</ele><time>2026-05-03T08:36:09.234Z</time></trkpt><trkpt lat="42.0178904" lon="2.0873897"><ele>648.0</ele><time>2026-05-03T08:36:10.234Z</time></trkpt><trkpt lat="42.0180847" lon="2.0875222"><ele>650.0</ele><time>2026-05-03T08:36:11.234Z</time></trkpt><trkpt lat="42.0182463" lon="2.0876454"><ele>652.0</ele><time>2026-05-03T08:36:12.234Z</time></trkpt><trkpt lat="42.0183776" lon="2.0878207"><ele>654.0</ele><time>2026-05-03T08:36:13.235Z</time></trkpt><trkpt lat="42.0184982" lon="2.0880531"><ele>656.0</ele><time>2026-05-03T08:36:14.234Z</time></trkpt><trkpt lat="42.0186187" lon="2.0883234"><ele>658.0</ele><time>2026-05-03T08:36:15.234Z</time></trkpt><trkpt lat="42.0187432" lon="2.088617"><ele>658.0</ele><time>2026-05-03T08:36:16.235Z</time></trkpt><trkpt lat="42.0188779" lon="2.0889296"><ele>658.0</ele><time>2026-05-03T08:36:17.235Z</time></trkpt><trkpt lat="42.0190096" lon="2.0892289"><ele>657.6666666666667</ele><time>2026-05-03T08:36:18.235Z</time></trkpt><trkpt lat="42.019124" lon="2.089487"><ele>657.3333333333334</ele><time>2026-05-03T08:36:19.235Z</time></trkpt><trkpt lat="42.0192062" lon="2.089709"><ele>657.0</ele><time>2026-05-03T08:36:20.235Z</time></trkpt><trkpt lat="42.0192427" lon="2.0899028"><ele>658.5</ele><time>2026-05-03T08:36:21.235Z</time></trkpt><trkpt lat="42.0192312" lon="2.0900846"><ele>660.0</ele><time>2026-05-03T08:36:22.235Z</time></trkpt><trkpt lat="42.0191722" lon="2.0902513"><ele>661.5</ele><time>2026-05-03T08:36:23.234Z</time></trkpt><trkpt lat="42.0190701" lon="2.0904181"><ele>663.0</ele><time>2026-05-03T08:36:24.235Z</time></trkpt><trkpt lat="42.0189828" lon="2.0906011"><ele>665.6666666666666</ele><time>2026-05-03T08:36:25.235Z</time></trkpt><trkpt lat="42.0189409" lon="2.090809"><ele>668.3333333333333</ele><time>2026-05-03T08:36:26.235Z</time></trkpt><trkpt lat="42.0189502" lon="2.0910399"><ele>671.0</ele><time>2026-05-03T08:36:27.235Z</time></trkpt><trkpt lat="42.0190039" lon="2.0912877"><ele>671.0</ele><time>2026-05-03T08:36:28.235Z</time></trkpt><trkpt lat="42.0190837" lon="2.0915464"><ele>671.0</ele><time>2026-05-03T08:36:29.235Z</time></trkpt><trkpt lat="42.0191735" lon="2.0918246"><ele>671.0</ele><time>2026-05-03T08:36:30.234Z</time></trkpt><trkpt lat="42.0192499" lon="2.0920951"><ele>672.3333333333333</ele><time>2026-05-03T08:36:31.235Z</time></trkpt><trkpt lat="42.0193128" lon="2.0923271"><ele>673.6666666666666</ele><time>2026-05-03T08:36:32.234Z</time></trkpt><trkpt lat="42.0193704" lon="2.0925249"><ele>675.0</ele><time>2026-05-03T08:36:33.234Z</time></trkpt><trkpt lat="42.0194232" lon="2.092685"><ele>676.25</ele><time>2026-05-03T08:36:34.234Z</time></trkpt><trkpt lat="42.0194896" lon="2.0928226"><ele>677.5</ele><time>2026-05-03T08:36:35.235Z</time></trkpt><trkpt lat="42.0195867" lon="2.0929523"><ele>678.75</ele><time>2026-05-03T08:36:36.235Z</time></trkpt><trkpt lat="42.0197158" lon="2.093076"><ele>680.0</ele><time>2026-05-03T08:36:37.235Z</time></trkpt><trkpt lat="42.0198768" lon="2.0932038"><ele>681.3333333333333</ele><time>2026-05-03T08:36:38.234Z</time></trkpt><trkpt lat="42.0200432" lon="2.0933304"><ele>682.6666666666666</ele><time>2026-05-03T08:36:39.234Z</time></trkpt><trkpt lat="42.0201881" lon="2.0934251"><ele>684.0</ele><time>2026-05-03T08:36:40.235Z</time></trkpt><trkpt lat="42.0203442" lon="2.0934709"><ele>684.0</ele><time>2026-05-03T08:36:41.235Z</time></trkpt><trkpt lat="42.0205196" lon="2.0934598"><ele>684.0</ele><time>2026-05-03T08:36:42.234Z</time></trkpt><trkpt lat="42.0207173" lon="2.0934027"><ele>684.0</ele><time>2026-05-03T08:36:43.234Z</time></trkpt><trkpt lat="42.0209392" lon="2.0933436"><ele>685.5</ele><time>2026-05-03T08:36:44.235Z</time></trkpt><trkpt lat="42.0211812" lon="2.0932904"><ele>687.0</ele><time>2026-05-03T08:36:45.235Z</time></trkpt><trkpt lat="42.0214038" lon="2.0932479"><ele>687.0</ele><time>2026-05-03T08:36:46.234Z</time></trkpt><trkpt lat="42.0216094" lon="2.0932109"><ele>687.0</ele><time>2026-05-03T08:36:47.235Z</time></trkpt><trkpt lat="42.0218204" lon="2.0932011"><ele>687.0</ele><time>2026-05-03T08:36:48.235Z</time></trkpt><trkpt lat="42.0220337" lon="2.0932412"><ele>692.0</ele><time>2026-05-03T08:36:49.234Z</time></trkpt><trkpt lat="42.0222464" lon="2.0933325"><ele>697.0</ele><time>2026-05-03T08:36:50.235Z</time></trkpt><trkpt lat="42.0224634" lon="2.0934665"><ele>699.0</ele><time>2026-05-03T08:36:51.235Z</time></trkpt><trkpt lat="42.0226851" lon="2.0936197"><ele>701.0</ele><time>2026-05-03T08:36:52.235Z</time></trkpt><trkpt lat="42.0228963" lon="2.0937647"><ele>701.0</ele><time>2026-05-03T08:36:53.235Z</time></trkpt><trkpt lat="42.0230679" lon="2.093887"><ele>701.0</ele><time>2026-05-03T08:36:54.235Z</time></trkpt><trkpt lat="42.0232101" lon="2.0939848"><ele>701.0</ele><time>2026-05-03T08:36:55.234Z</time></trkpt><trkpt lat="42.0233375" lon="2.0940339"><ele>700.3333333333333</ele><time>2026-05-03T08:36:56.235Z</time></trkpt><trkpt lat="42.0234741" lon="2.0940021"><ele>699.6666666666666</ele><time>2026-05-03T08:36:57.235Z</time></trkpt><trkpt lat="42.0236186" lon="2.0939038"><ele>699.0</ele><time>2026-05-03T08:36:58.235Z</time></trkpt><trkpt lat="42.0237694" lon="2.0937877"><ele>699.0</ele><time>2026-05-03T08:36:59.234Z</time></trkpt><trkpt lat="42.023952" lon="2.0937125"><ele>699.0</ele><time>2026-05-03T08:37:00.235Z</time></trkpt><trkpt lat="42.0241669" lon="2.0936837"><ele>699.0</ele><time>2026-05-03T08:37:01.235Z</time></trkpt><trkpt lat="42.0243992" lon="2.093634"><ele>701.0</ele><time>2026-05-03T08:37:02.235Z</time></trkpt><trkpt lat="42.0246203" lon="2.0935561"><ele>703.0</ele><time>2026-05-03T08:37:03.235Z</time></trkpt><trkpt lat="42.0248109" lon="2.0934942"><ele>705.0</ele><time>2026-05-03T08:37:04.234Z</time></trkpt><trkpt lat="42.0249943" lon="2.0934858"><ele>706.3333333333334</ele><time>2026-05-03T08:37:05.234Z</time></trkpt><trkpt lat="42.0251761" lon="2.0935495"><ele>707.6666666666667</ele><time>2026-05-03T08:37:06.234Z</time></trkpt><trkpt lat="42.0253442" lon="2.0936733"><ele>709.0</ele><time>2026-05-03T08:37:07.234Z</time></trkpt><trkpt lat="42.025477" lon="2.0938552"><ele>709.0</ele><time>2026-05-03T08:37:08.234Z</time></trkpt><trkpt lat="42.0255608" lon="2.0940537"><ele>709.0</ele><time>2026-05-03T08:37:09.234Z</time></trkpt><trkpt lat="42.0256441" lon="2.094229"><ele>709.0</ele><time>2026-05-03T08:37:10.235Z</time></trkpt><trkpt lat="42.0257664" lon="2.0943433"><ele>713.0</ele><time>2026-05-03T08:37:11.235Z</time></trkpt><trkpt lat="42.0259254" lon="2.094408"><ele>717.0</ele><time>2026-05-03T08:37:12.234Z</time></trkpt><trkpt lat="42.0261092" lon="2.0944981"><ele>721.0</ele><time>2026-05-03T08:37:13.234Z</time></trkpt><trkpt lat="42.0262963" lon="2.0946471"><ele>721.0</ele><time>2026-05-03T08:37:14.235Z</time></trkpt><trkpt lat="42.026493" lon="2.0948424"><ele>721.0</ele><time>2026-05-03T08:37:15.234Z</time></trkpt><trkpt lat="42.0266996" lon="2.0950141"><ele>724.0</ele><time>2026-05-03T08:37:16.234Z</time></trkpt><trkpt lat="42.0269373" lon="2.0951117"><ele>727.0</ele><time>2026-05-03T08:37:17.235Z</time></trkpt><trkpt lat="42.0271503" lon="2.0951886"><ele>727.0</ele><time>2026-05-03T08:37:18.235Z</time></trkpt><trkpt lat="42.027343" lon="2.0952712"><ele>727.0</ele><time>2026-05-03T08:37:19.234Z</time></trkpt><trkpt lat="42.0275137" lon="2.0954154"><ele>727.0</ele><time>2026-05-03T08:37:20.235Z</time></trkpt><trkpt lat="42.0276878" lon="2.0956182"><ele>728.5</ele><time>2026-05-03T08:37:21.235Z</time></trkpt><trkpt lat="42.0278615" lon="2.0958496"><ele>730.0</ele><time>2026-05-03T08:37:22.235Z</time></trkpt><trkpt lat="42.0280457" lon="2.0960832"><ele>730.0</ele><time>2026-05-03T08:37:23.235Z</time></trkpt><trkpt lat="42.0282295" lon="2.0962896"><ele>730.0</ele><time>2026-05-03T08:37:24.235Z</time></trkpt><trkpt lat="42.0284084" lon="2.0964442"><ele>731.0</ele><time>2026-05-03T08:37:25.234Z</time></trkpt><trkpt lat="42.0286191" lon="2.0965736"><ele>732.0</ele><time>2026-05-03T08:37:26.235Z</time></trkpt><trkpt lat="42.0288453" lon="2.0967127"><ele>732.0</ele><time>2026-05-03T08:37:27.234Z</time></trkpt><trkpt lat="42.0290555" lon="2.0969011"><ele>732.0</ele><time>2026-05-03T08:37:28.235Z</time></trkpt><trkpt lat="42.029231" lon="2.0971067"><ele>732.0</ele><time>2026-05-03T08:37:29.235Z</time></trkpt><trkpt lat="42.0293926" lon="2.097278"><ele>732.0</ele><time>2026-05-03T08:37:30.234Z</time></trkpt><trkpt lat="42.0295775" lon="2.0973956"><ele>732.0</ele><time>2026-05-03T08:37:31.235Z</time></trkpt><trkpt lat="42.0298018" lon="2.0974833"><ele>733.5</ele><time>2026-05-03T08:37:32.234Z</time></trkpt><trkpt lat="42.0300491" lon="2.0975661"><ele>735.0</ele><time>2026-05-03T08:37:33.235Z</time></trkpt><trkpt lat="42.0303061" lon="2.0976556"><ele>735.0</ele><time>2026-05-03T08:37:34.234Z</time></trkpt><trkpt lat="42.0305758" lon="2.0977474"><ele>735.0</ele><time>2026-05-03T08:37:35.235Z</time></trkpt><trkpt lat="42.030853" lon="2.0978376"><ele>739.5</ele><time>2026-05-03T08:37:36.234Z</time></trkpt><trkpt lat="42.0311365" lon="2.0979322"><ele>744.0</ele><time>2026-05-03T08:37:37.235Z</time></trkpt><trkpt lat="42.0314269" lon="2.0980295"><ele>745.5</ele><time>2026-05-03T08:37:38.235Z</time></trkpt><trkpt lat="42.0317231" lon="2.0981316"><ele>747.0</ele><time>2026-05-03T08:37:39.235Z</time></trkpt><trkpt lat="42.032011" lon="2.0982253"><ele>747.0</ele><time>2026-05-03T08:37:40.235Z</time></trkpt><trkpt lat="42.0322715" lon="2.0983152"><ele>747.0</ele><time>2026-05-03T08:37:41.235Z</time></trkpt><trkpt lat="42.032517" lon="2.0983938"><ele>747.0</ele><time>2026-05-03T08:37:42.234Z</time></trkpt><trkpt lat="42.032734" lon="2.0984662"><ele>747.0</ele><time>2026-05-03T08:37:43.235Z</time></trkpt><trkpt lat="42.0329188" lon="2.0985614"><ele>747.0</ele><time>2026-05-03T08:37:44.234Z</time></trkpt><trkpt lat="42.0330643" lon="2.0986993"><ele>747.0</ele><time>2026-05-03T08:37:45.235Z</time></trkpt><trkpt lat="42.0331603" lon="2.0988868"><ele>747.0</ele><time>2026-05-03T08:37:46.234Z</time></trkpt><trkpt lat="42.0332002" lon="2.0991117"><ele>747.0</ele><time>2026-05-03T08:37:47.235Z</time></trkpt><trkpt lat="42.0331956" lon="2.0993534"><ele>747.6666666666666</ele><time>2026-05-03T08:37:48.235Z</time></trkpt><trkpt lat="42.0332133" lon="2.0995885"><ele>748.3333333333333</ele><time>2026-05-03T08:37:49.235Z</time></trkpt><trkpt lat="42.0332812" lon="2.0997994"><ele>749.0</ele><time>2026-05-03T08:37:50.235Z</time></trkpt><trkpt lat="42.0333884" lon="2.0999718"><ele>749.0</ele><time>2026-05-03T08:37:51.234Z</time></trkpt><trkpt lat="42.0335403" lon="2.1001067"><ele>749.0</ele><time>2026-05-03T08:37:52.234Z</time></trkpt><trkpt lat="42.0337417" lon="2.1002104"><ele>749.0</ele><time>2026-05-03T08:37:53.235Z</time></trkpt><trkpt lat="42.0339761" lon="2.1003053"><ele>748.0</ele><time>2026-05-03T08:37:54.235Z</time></trkpt><trkpt lat="42.0342303" lon="2.1004114"><ele>747.0</ele><time>2026-05-03T08:37:55.235Z</time></trkpt><trkpt lat="42.0345036" lon="2.1005249"><ele>747.0</ele><time>2026-05-03T08:37:56.234Z</time></trkpt><trkpt lat="42.0347743" lon="2.100638"><ele>747.0</ele><time>2026-05-03T08:37:57.235Z</time></trkpt><trkpt lat="42.0350222" lon="2.1007554"><ele>744.0</ele><time>2026-05-03T08:37:58.235Z</time></trkpt><trkpt lat="42.0352526" lon="2.100919"><ele>741.0</ele><time>2026-05-03T08:37:59.235Z</time></trkpt><trkpt lat="42.0354629" lon="2.1011454"><ele>741.0</ele><time>2026-05-03T08:38:00.235Z</time></trkpt><trkpt lat="42.0356577" lon="2.1014114"><ele>741.0</ele><time>2026-05-03T08:38:01.234Z</time></trkpt><trkpt lat="42.0358244" lon="2.1016489"><ele>742.0</ele><time>2026-05-03T08:38:02.235Z</time></trkpt><trkpt lat="42.035963" lon="2.1018517"><ele>743.0</ele><time>2026-05-03T08:38:03.235Z</time></trkpt><trkpt lat="42.0360995" lon="2.1019962"><ele>744.0</ele><time>2026-05-03T08:38:04.234Z</time></trkpt><trkpt lat="42.0362723" lon="2.1020569"><ele>744.0</ele><time>2026-05-03T08:38:05.234Z</time></trkpt><trkpt lat="42.0364559" lon="2.102153"><ele>744.0</ele><time>2026-05-03T08:38:06.235Z</time></trkpt><trkpt lat="42.0366181" lon="2.102318"><ele>744.0</ele><time>2026-05-03T08:38:07.235Z</time></trkpt><trkpt lat="42.0367749" lon="2.1025285"><ele>745.0</ele><time>2026-05-03T08:38:08.234Z</time></trkpt><trkpt lat="42.0369132" lon="2.1027806"><ele>746.0</ele><time>2026-05-03T08:38:09.235Z</time></trkpt><trkpt lat="42.0370392" lon="2.1030647"><ele>746.0</ele><time>2026-05-03T08:38:10.235Z</time></trkpt><trkpt lat="42.0371619" lon="2.103361"><ele>746.0</ele><time>2026-05-03T08:38:11.235Z</time></trkpt><trkpt lat="42.0372925" lon="2.1035984"><ele>746.0</ele><time>2026-05-03T08:38:12.235Z</time></trkpt><trkpt lat="42.0374376" lon="2.1037963"><ele>746.0</ele><time>2026-05-03T08:38:13.235Z</time></trkpt><trkpt lat="42.0376028" lon="2.103939"><ele>746.0</ele><time>2026-05-03T08:38:14.235Z</time></trkpt><trkpt lat="42.0377702" lon="2.1040543"><ele>744.0</ele><time>2026-05-03T08:38:15.235Z</time></trkpt><trkpt lat="42.0379338" lon="2.1041679"><ele>742.0</ele><time>2026-05-03T08:38:16.235Z</time></trkpt><trkpt lat="42.0380903" lon="2.104275"><ele>740.0</ele><time>2026-05-03T08:38:17.234Z</time></trkpt><trkpt lat="42.0382447" lon="2.1043806"><ele>741.3333333333333</ele><time>2026-05-03T08:38:18.234Z</time></trkpt><trkpt lat="42.0383965" lon="2.1044828"><ele>742.6666666666666</ele><time>2026-05-03T08:38:19.235Z</time></trkpt><trkpt lat="42.0385493" lon="2.1045838"><ele>744.0</ele><time>2026-05-03T08:38:20.234Z</time></trkpt><trkpt lat="42.0386995" lon="2.1046857"><ele>744.0</ele><time>2026-05-03T08:38:21.235Z</time></trkpt><trkpt lat="42.0388479" lon="2.1047854"><ele>744.0</ele><time>2026-05-03T08:38:22.235Z</time></trkpt><trkpt lat="42.0389905" lon="2.1048809"><ele>744.0</ele><time>2026-05-03T08:38:23.235Z</time></trkpt><trkpt lat="42.0391225" lon="2.1049707"><ele>744.25</ele><time>2026-05-03T08:38:24.234Z</time></trkpt><trkpt lat="42.0392465" lon="2.1050569"><ele>744.5</ele><time>2026-05-03T08:38:25.234Z</time></trkpt><trkpt lat="42.0393634" lon="2.1051356"><ele>744.75</ele><time>2026-05-03T08:38:26.234Z</time></trkpt><trkpt lat="42.0394742" lon="2.1052071"><ele>745.0</ele><time>2026-05-03T08:38:27.235Z</time></trkpt><trkpt lat="42.0395758" lon="2.1052746"><ele>745.0</ele><time>2026-05-03T08:38:28.234Z</time></trkpt><trkpt lat="42.0396698" lon="2.1053402"><ele>745.0</ele><time>2026-05-03T08:38:29.234Z</time></trkpt><trkpt lat="42.0397643" lon="2.1054022"><ele>745.0</ele><time>2026-05-03T08:38:30.234Z</time></trkpt><trkpt lat="42.0398645" lon="2.1054691"><ele>745.0</ele><time>2026-05-03T08:38:31.235Z</time></trkpt><trkpt lat="42.0399652" lon="2.1055406"><ele>745.0</ele><time>2026-05-03T08:38:32.234Z</time></trkpt><trkpt lat="42.0400663" lon="2.1056079"><ele>746.2</ele><time>2026-05-03T08:38:33.234Z</time></trkpt><trkpt lat="42.040164" lon="2.1056734"><ele>747.4</ele><time>2026-05-03T08:38:34.235Z</time></trkpt><trkpt lat="42.0402591" lon="2.1057401"><ele>748.5999999999999</ele><time>2026-05-03T08:38:35.235Z</time></trkpt><trkpt lat="42.0403534" lon="2.1058052"><ele>749.8</ele><time>2026-05-03T08:38:36.234Z</time></trkpt><trkpt lat="42.0404517" lon="2.1058734"><ele>751.0</ele><time>2026-05-03T08:38:37.235Z</time></trkpt><trkpt lat="42.040551" lon="2.1059435"><ele>751.0</ele><time>2026-05-03T08:38:38.235Z</time></trkpt><trkpt lat="42.0406593" lon="2.106017"><ele>751.0</ele><time>2026-05-03T08:38:39.234Z</time></trkpt><trkpt lat="42.0407712" lon="2.1060953"><ele>751.0</ele><time>2026-05-03T08:38:40.235Z</time></trkpt><trkpt lat="42.0408829" lon="2.1061755"><ele>751.0</ele><time>2026-05-03T08:38:41.235Z</time></trkpt><trkpt lat="42.0409895" lon="2.1062531"><ele>750.25</ele><time>2026-05-03T08:38:42.235Z</time></trkpt><trkpt lat="42.0410973" lon="2.1063268"><ele>749.5</ele><time>2026-05-03T08:38:43.235Z</time></trkpt><trkpt lat="42.0412061" lon="2.1064007"><ele>748.75</ele><time>2026-05-03T08:38:44.234Z</time></trkpt><trkpt lat="42.0413126" lon="2.1064717"><ele>748.0</ele><time>2026-05-03T08:38:45.234Z</time></trkpt><trkpt lat="42.0414143" lon="2.1065404"><ele>748.8</ele><time>2026-05-03T08:38:46.234Z</time></trkpt><trkpt lat="42.0415114" lon="2.1066015"><ele>749.5999999999999</ele><time>2026-05-03T08:38:47.235Z</time></trkpt><trkpt lat="42.0416088" lon="2.1066558"><ele>750.4000000000001</ele><time>2026-05-03T08:38:48.235Z</time></trkpt><trkpt lat="42.0417038" lon="2.1066984"><ele>751.2</ele><time>2026-05-03T08:38:49.235Z</time></trkpt><trkpt lat="42.0417933" lon="2.1067231"><ele>752.0</ele><time>2026-05-03T08:38:50.234Z</time></trkpt><trkpt lat="42.0418749" lon="2.1067333"><ele>752.5714285714286</ele><time>2026-05-03T08:38:51.235Z</time></trkpt><trkpt lat="42.041944" lon="2.1067351"><ele>753.1428571428571</ele><time>2026-05-03T08:38:52.234Z</time></trkpt><trkpt lat="42.0420148" lon="2.1067315"><ele>753.7142857142858</ele><time>2026-05-03T08:38:53.234Z</time></trkpt><trkpt lat="42.0420876" lon="2.1067267"><ele>754.2857142857142</ele><time>2026-05-03T08:38:54.235Z</time></trkpt><trkpt lat="42.0421629" lon="2.1067284"><ele>754.8571428571429</ele><time>2026-05-03T08:38:55.235Z</time></trkpt><trkpt lat="42.0422394" lon="2.1067375"><ele>755.4285714285714</ele><time>2026-05-03T08:38:56.235Z</time></trkpt><trkpt lat="42.0423155" lon="2.1067518"><ele>756.0</ele><time>2026-05-03T08:38:57.235Z</time></trkpt><trkpt lat="42.0423919" lon="2.1067721"><ele>756.3333333333334</ele><time>2026-05-03T08:38:58.234Z</time></trkpt><trkpt lat="42.0424731" lon="2.1067841"><ele>756.6666666666666</ele><time>2026-05-03T08:38:59.235Z</time></trkpt><trkpt lat="42.0425543" lon="2.1068032"><ele>757.0</ele><time>2026-05-03T08:39:00.234Z</time></trkpt><trkpt lat="42.0426321" lon="2.1068306"><ele>757.3333333333333</ele><time>2026-05-03T08:39:01.234Z</time></trkpt><trkpt lat="42.0427137" lon="2.1068621"><ele>757.6666666666666</ele><time>2026-05-03T08:39:02.235Z</time></trkpt><trkpt lat="42.0427943" lon="2.1069073"><ele>758.0</ele><time>2026-05-03T08:39:03.234Z</time></trkpt><trkpt lat="42.0428735" lon="2.1069669"><ele>758.0</ele><time>2026-05-03T08:39:04.234Z</time></trkpt><trkpt lat="42.0429516" lon="2.1070371"><ele>758.0</ele><time>2026-05-03T08:39:05.234Z</time></trkpt><trkpt lat="42.0430241" lon="2.1071126"><ele>758.0</ele><time>2026-05-03T08:39:06.234Z</time></trkpt><trkpt lat="42.0430928" lon="2.1071934"><ele>758.0</ele><time>2026-05-03T08:39:07.235Z</time></trkpt><trkpt lat="42.043162" lon="2.1072776"><ele>758.0</ele><time>2026-05-03T08:39:08.235Z</time></trkpt><trkpt lat="42.0432301" lon="2.1073635"><ele>758.4</ele><time>2026-05-03T08:39:09.235Z</time></trkpt><trkpt lat="42.0433041" lon="2.1074582"><ele>758.8</ele><time>2026-05-03T08:39:10.235Z</time></trkpt><trkpt lat="42.0433834" lon="2.1075559"><ele>759.2</ele><time>2026-05-03T08:39:11.234Z</time></trkpt><trkpt lat="42.043469" lon="2.1076511"><ele>759.6</ele><time>2026-05-03T08:39:12.235Z</time></trkpt><trkpt lat="42.0435539" lon="2.1077597"><ele>760.0</ele><time>2026-05-03T08:39:13.235Z</time></trkpt><trkpt lat="42.0436443" lon="2.1078684"><ele>760.0</ele><time>2026-05-03T08:39:14.234Z</time></trkpt><trkpt lat="42.0437336" lon="2.1079852"><ele>760.0</ele><time>2026-05-03T08:39:15.235Z</time></trkpt><trkpt lat="42.0438301" lon="2.1081045"><ele>760.0</ele><time>2026-05-03T08:39:16.235Z</time></trkpt><trkpt lat="42.0439276" lon="2.1082198"><ele>760.0</ele><time>2026-05-03T08:39:17.234Z</time></trkpt><trkpt lat="42.0440194" lon="2.1083395"><ele>759.5</ele><time>2026-05-03T08:39:18.235Z</time></trkpt><trkpt lat="42.0441096" lon="2.1084554"><ele>759.0</ele><time>2026-05-03T08:39:19.235Z</time></trkpt><trkpt lat="42.0441976" lon="2.1085676"><ele>758.5</ele><time>2026-05-03T08:39:20.235Z</time></trkpt><trkpt lat="42.0442873" lon="2.1086743"><ele>758.0</ele><time>2026-05-03T08:39:21.235Z</time></trkpt><trkpt lat="42.0443757" lon="2.1087796"><ele>758.0</ele><time>2026-05-03T08:39:22.235Z</time></trkpt><trkpt lat="42.044468" lon="2.1088897"><ele>758.0</ele><time>2026-05-03T08:39:23.235Z</time></trkpt><trkpt lat="42.0445683" lon="2.1090082"><ele>758.0</ele><time>2026-05-03T08:39:24.235Z</time></trkpt><trkpt lat="42.044676" lon="2.1091337"><ele>758.0</ele><time>2026-05-03T08:39:25.234Z</time></trkpt><trkpt lat="42.0447856" lon="2.1092682"><ele>758.5</ele><time>2026-05-03T08:39:26.235Z</time></trkpt><trkpt lat="42.0448894" lon="2.1094007"><ele>759.0</ele><time>2026-05-03T08:39:27.235Z</time></trkpt><trkpt lat="42.0449857" lon="2.1095128"><ele>759.5</ele><time>2026-05-03T08:39:28.235Z</time></trkpt><trkpt lat="42.0450736" lon="2.109618"><ele>760.0</ele><time>2026-05-03T08:39:29.235Z</time></trkpt><trkpt lat="42.0451607" lon="2.1097257"><ele>760.0</ele><time>2026-05-03T08:39:30.235Z</time></trkpt><trkpt lat="42.0452563" lon="2.1098388"><ele>760.0</ele><time>2026-05-03T08:39:31.234Z</time></trkpt><trkpt lat="42.0453516" lon="2.1099601"><ele>760.0</ele><time>2026-05-03T08:39:32.235Z</time></trkpt><trkpt lat="42.0454504" lon="2.1100784"><ele>760.0</ele><time>2026-05-03T08:39:33.234Z</time></trkpt><trkpt lat="42.0455437" lon="2.1102015"><ele>760.0</ele><time>2026-05-03T08:39:34.234Z</time></trkpt><trkpt lat="42.0456362" lon="2.1103245"><ele>760.0</ele><time>2026-05-03T08:39:35.235Z</time></trkpt><trkpt lat="42.0457344" lon="2.110436"><ele>760.0</ele><time>2026-05-03T08:39:36.234Z</time></trkpt><trkpt lat="42.0458292" lon="2.1105428"><ele>760.0</ele><time>2026-05-03T08:39:37.235Z</time></trkpt><trkpt lat="42.0459271" lon="2.1106575"><ele>760.3333333333334</ele><time>2026-05-03T08:39:38.235Z</time></trkpt><trkpt lat="42.0460348" lon="2.110789"><ele>760.6666666666666</ele><time>2026-05-03T08:39:39.234Z</time></trkpt><trkpt lat="42.0461526" lon="2.110935"><ele>761.0</ele><time>2026-05-03T08:39:40.234Z</time></trkpt><trkpt lat="42.0462832" lon="2.1110884"><ele>761.0</ele><time>2026-05-03T08:39:41.235Z</time></trkpt><trkpt lat="42.0464222" lon="2.1112593"><ele>761.0</ele><time>2026-05-03T08:39:42.235Z</time></trkpt><trkpt lat="42.0465501" lon="2.1114461"><ele>761.0</ele><time>2026-05-03T08:39:43.234Z</time></trkpt><trkpt lat="42.0466473" lon="2.1116375"><ele>762.3333333333333</ele><time>2026-05-03T08:39:44.235Z</time></trkpt><trkpt lat="42.0467153" lon="2.1118433"><ele>763.6666666666666</ele><time>2026-05-03T08:39:45.234Z</time></trkpt><trkpt lat="42.0467654" lon="2.1120728"><ele>765.0</ele><time>2026-05-03T08:39:46.235Z</time></trkpt><trkpt lat="42.046788" lon="2.1123209"><ele>765.6666666666666</ele><time>2026-05-03T08:39:47.234Z</time></trkpt><trkpt lat="42.0467749" lon="2.1125883"><ele>766.3333333333333</ele><time>2026-05-03T08:39:48.235Z</time></trkpt><trkpt lat="42.0467379" lon="2.1128809"><ele>767.0</ele><time>2026-05-03T08:39:49.235Z</time></trkpt><trkpt lat="42.046689" lon="2.113201"><ele>767.5</ele><time>2026-05-03T08:39:50.234Z</time></trkpt><trkpt lat="42.0466339" lon="2.1135502"><ele>768.0</ele><time>2026-05-03T08:39:51.235Z</time></trkpt><trkpt lat="42.0465746" lon="2.1139257"><ele>768.0</ele><time>2026-05-03T08:39:52.235Z</time></trkpt><trkpt lat="42.0465184" lon="2.1142942"><ele>768.0</ele><time>2026-05-03T08:39:53.235Z</time></trkpt><trkpt lat="42.0464692" lon="2.1146052"><ele>768.0</ele><time>2026-05-03T08:39:54.235Z</time></trkpt><trkpt lat="42.0464205" lon="2.1148633"><ele>768.0</ele><time>2026-05-03T08:39:55.235Z</time></trkpt><trkpt lat="42.0463626" lon="2.1150803"><ele>768.0</ele><time>2026-05-03T08:39:56.234Z</time></trkpt><trkpt lat="42.0462665" lon="2.1152386"><ele>769.0</ele><time>2026-05-03T08:39:57.234Z</time></trkpt><trkpt lat="42.0461329" lon="2.115376"><ele>770.0</ele><time>2026-05-03T08:39:58.235Z</time></trkpt><trkpt lat="42.0459782" lon="2.115528"><ele>771.0</ele><time>2026-05-03T08:39:59.234Z</time></trkpt><trkpt lat="42.0458266" lon="2.1157076"><ele>772.6666666666667</ele><time>2026-05-03T08:40:00.235Z</time></trkpt><trkpt lat="42.0457073" lon="2.1158696"><ele>774.3333333333334</ele><time>2026-05-03T08:40:01.234Z</time></trkpt><trkpt lat="42.0456269" lon="2.1160553"><ele>776.0</ele><time>2026-05-03T08:40:02.234Z</time></trkpt><trkpt lat="42.0455926" lon="2.1162572"><ele>776.0</ele><time>2026-05-03T08:40:03.235Z</time></trkpt><trkpt lat="42.0456075" lon="2.1164577"><ele>776.0</ele><time>2026-05-03T08:40:04.235Z</time></trkpt><trkpt lat="42.0456708" lon="2.1166292"><ele>776.0</ele><time>2026-05-03T08:40:05.235Z</time></trkpt><trkpt lat="42.0457819" lon="2.1167759"><ele>776.0</ele><time>2026-05-03T08:40:06.235Z</time></trkpt><trkpt lat="42.0459285" lon="2.1168798"><ele>781.0</ele><time>2026-05-03T08:40:07.235Z</time></trkpt><trkpt lat="42.0460949" lon="2.1169647"><ele>786.0</ele><time>2026-05-03T08:40:08.235Z</time></trkpt><trkpt lat="42.0462337" lon="2.1171091"><ele>791.0</ele><time>2026-05-03T08:40:09.235Z</time></trkpt><trkpt lat="42.0463553" lon="2.1173092"><ele>789.3333333333334</ele><time>2026-05-03T08:40:10.235Z</time></trkpt><trkpt lat="42.0464947" lon="2.1175252"><ele>787.6666666666667</ele><time>2026-05-03T08:40:11.234Z</time></trkpt><trkpt lat="42.0466724" lon="2.1177226"><ele>786.0</ele><time>2026-05-03T08:40:12.234Z</time></trkpt><trkpt lat="42.046847" lon="2.1179604"><ele>789.5</ele><time>2026-05-03T08:40:13.235Z</time></trkpt><trkpt lat="42.047006" lon="2.1182534"><ele>793.0</ele><time>2026-05-03T08:40:14.234Z</time></trkpt><trkpt lat="42.0471667" lon="2.1185708"><ele>793.0</ele><time>2026-05-03T08:40:15.235Z</time></trkpt><trkpt lat="42.0473287" lon="2.1189051"><ele>793.0</ele><time>2026-05-03T08:40:16.235Z</time></trkpt><trkpt lat="42.0474803" lon="2.1192534"><ele>801.0</ele><time>2026-05-03T08:40:17.235Z</time></trkpt><trkpt lat="42.0476075" lon="2.1195781"><ele>809.0</ele><time>2026-05-03T08:40:18.234Z</time></trkpt><trkpt lat="42.0477197" lon="2.1198669"><ele>809.3333333333334</ele><time>2026-05-03T08:40:19.235Z</time></trkpt><trkpt lat="42.0478061" lon="2.120133"><ele>809.6666666666667</ele><time>2026-05-03T08:40:20.235Z</time></trkpt><trkpt lat="42.0478395" lon="2.1203895"><ele>810.0</ele><time>2026-05-03T08:40:21.234Z</time></trkpt><trkpt lat="42.0478273" lon="2.1206677"><ele>809.5</ele><time>2026-05-03T08:40:22.234Z</time></trkpt><trkpt lat="42.0477928" lon="2.1209702"><ele>809.0</ele><time>2026-05-03T08:40:23.234Z</time></trkpt><trkpt lat="42.0477522" lon="2.1212969"><ele>811.0</ele><time>2026-05-03T08:40:24.235Z</time></trkpt><trkpt lat="42.0477184" lon="2.1215778"><ele>813.0</ele><time>2026-05-03T08:40:25.235Z</time></trkpt><trkpt lat="42.0476989" lon="2.1218335"><ele>815.0</ele><time>2026-05-03T08:40:26.235Z</time></trkpt><trkpt lat="42.0477163" lon="2.1220622"><ele>815.0</ele><time>2026-05-03T08:40:27.235Z</time></trkpt><trkpt lat="42.0477731" lon="2.1222713"><ele>815.0</ele><time>2026-05-03T08:40:28.234Z</time></trkpt><trkpt lat="42.0478663" lon="2.1224568"><ele>815.0</ele><time>2026-05-03T08:40:29.235Z</time></trkpt><trkpt lat="42.0479949" lon="2.1226133"><ele>816.0</ele><time>2026-05-03T08:40:30.235Z</time></trkpt><trkpt lat="42.0481524" lon="2.1227451"><ele>817.0</ele><time>2026-05-03T08:40:31.234Z</time></trkpt><trkpt lat="42.0483496" lon="2.1228448"><ele>818.0</ele><time>2026-05-03T08:40:32.235Z</time></trkpt><trkpt lat="42.0485848" lon="2.1229359"><ele>821.5</ele><time>2026-05-03T08:40:33.234Z</time></trkpt><trkpt lat="42.048851" lon="2.1230361"><ele>825.0</ele><time>2026-05-03T08:40:34.235Z</time></trkpt><trkpt lat="42.0491427" lon="2.1231497"><ele>829.0</ele><time>2026-05-03T08:40:35.234Z</time></trkpt><trkpt lat="42.0494426" lon="2.123269"><ele>833.0</ele><time>2026-05-03T08:40:36.235Z</time></trkpt><trkpt lat="42.0497095" lon="2.1233827"><ele>833.0</ele><time>2026-05-03T08:40:37.235Z</time></trkpt><trkpt lat="42.0499505" lon="2.123473"><ele>833.0</ele><time>2026-05-03T08:40:38.235Z</time></trkpt><trkpt lat="42.0501719" lon="2.123546"><ele>835.0</ele><time>2026-05-03T08:40:39.235Z</time></trkpt><trkpt lat="42.0503964" lon="2.1235694"><ele>837.0</ele><time>2026-05-03T08:40:40.235Z</time></trkpt><trkpt lat="42.0506217" lon="2.1235518"><ele>840.0</ele><time>2026-05-03T08:40:41.235Z</time></trkpt><trkpt lat="42.0508524" lon="2.1234828"><ele>843.0</ele><time>2026-05-03T08:40:42.235Z</time></trkpt><trkpt lat="42.0510895" lon="2.1233941"><ele>843.0</ele><time>2026-05-03T08:40:43.235Z</time></trkpt><trkpt lat="42.0513416" lon="2.123359"><ele>843.0</ele><time>2026-05-03T08:40:44.234Z</time></trkpt><trkpt lat="42.0516204" lon="2.1233757"><ele>842.5</ele><time>2026-05-03T08:40:45.234Z</time></trkpt><trkpt lat="42.0519194" lon="2.1234112"><ele>842.0</ele><time>2026-05-03T08:40:46.235Z</time></trkpt><trkpt lat="42.0522414" lon="2.1234432"><ele>841.5</ele><time>2026-05-03T08:40:47.235Z</time></trkpt><trkpt lat="42.0525843" lon="2.1234738"><ele>841.0</ele><time>2026-05-03T08:40:48.235Z</time></trkpt><trkpt lat="42.0529369" lon="2.1235088"><ele>842.5</ele><time>2026-05-03T08:40:49.235Z</time></trkpt><trkpt lat="42.0533052" lon="2.1235445"><ele>844.0</ele><time>2026-05-03T08:40:50.235Z</time></trkpt><trkpt lat="42.0536807" lon="2.1235808"><ele>844.0</ele><time>2026-05-03T08:40:51.234Z</time></trkpt><trkpt lat="42.0540401" lon="2.1236161"><ele>844.0</ele><time>2026-05-03T08:40:52.234Z</time></trkpt><trkpt lat="42.0544031" lon="2.1236472"><ele>846.5</ele><time>2026-05-03T08:40:53.235Z</time></trkpt><trkpt lat="42.0547695" lon="2.1236667"><ele>849.0</ele><time>2026-05-03T08:40:54.235Z</time></trkpt><trkpt lat="42.0551395" lon="2.1236783"><ele>850.0</ele><time>2026-05-03T08:40:55.234Z</time></trkpt><trkpt lat="42.0555066" lon="2.1236698"><ele>851.0</ele><time>2026-05-03T08:40:56.234Z</time></trkpt><trkpt lat="42.0558648" lon="2.1236258"><ele>851.0</ele><time>2026-05-03T08:40:57.234Z</time></trkpt><trkpt lat="42.0561968" lon="2.1235825"><ele>851.0</ele><time>2026-05-03T08:40:58.235Z</time></trkpt><trkpt lat="42.0564951" lon="2.1235317"><ele>855.0</ele><time>2026-05-03T08:40:59.234Z</time></trkpt><trkpt lat="42.0567608" lon="2.123468"><ele>859.0</ele><time>2026-05-03T08:41:00.235Z</time></trkpt><trkpt lat="42.057005" lon="2.1233708"><ele>859.0</ele><time>2026-05-03T08:41:01.235Z</time></trkpt><trkpt lat="42.0572554" lon="2.1232317"><ele>859.0</ele><time>2026-05-03T08:41:02.235Z</time></trkpt><trkpt lat="42.0575182" lon="2.1230712"><ele>859.5</ele><time>2026-05-03T08:41:03.235Z</time></trkpt><trkpt lat="42.0577559" lon="2.12293"><ele>860.0</ele><time>2026-05-03T08:41:04.235Z</time></trkpt><trkpt lat="42.0579716" lon="2.1228022"><ele>860.0</ele><time>2026-05-03T08:41:05.235Z</time></trkpt><trkpt lat="42.058181" lon="2.1226901"><ele>860.0</ele><time>2026-05-03T08:41:06.235Z</time></trkpt><trkpt lat="42.0583839" lon="2.1226228"><ele>860.0</ele><time>2026-05-03T08:41:07.235Z</time></trkpt><trkpt lat="42.058584" lon="2.1226069"><ele>862.6666666666667</ele><time>2026-05-03T08:41:08.235Z</time></trkpt><trkpt lat="42.0587887" lon="2.1226473"><ele>865.3333333333333</ele><time>2026-05-03T08:41:09.234Z</time></trkpt><trkpt lat="42.0590186" lon="2.1227308"><ele>868.0</ele><time>2026-05-03T08:41:10.234Z</time></trkpt><trkpt lat="42.0592742" lon="2.1228494"><ele>871.0</ele><time>2026-05-03T08:41:11.235Z</time></trkpt><trkpt lat="42.0595395" lon="2.1229832"><ele>874.0</ele><time>2026-05-03T08:41:12.235Z</time></trkpt><trkpt lat="42.059768" lon="2.123109"><ele>874.0</ele><time>2026-05-03T08:41:13.234Z</time></trkpt><trkpt lat="42.0599662" lon="2.1232255"><ele>874.0</ele><time>2026-05-03T08:41:14.235Z</time></trkpt><trkpt lat="42.0601238" lon="2.123378"><ele>874.0</ele><time>2026-05-03T08:41:15.235Z</time></trkpt><trkpt lat="42.060259" lon="2.1235947"><ele>874.0</ele><time>2026-05-03T08:41:16.235Z</time></trkpt><trkpt lat="42.0603687" lon="2.1238748"><ele>874.0</ele><time>2026-05-03T08:41:17.234Z</time></trkpt><trkpt lat="42.0604616" lon="2.1241886"><ele>874.0</ele><time>2026-05-03T08:41:18.235Z</time></trkpt><trkpt lat="42.060538" lon="2.1244436"><ele>874.0</ele><time>2026-05-03T08:41:19.235Z</time></trkpt><trkpt lat="42.0606177" lon="2.1246519"><ele>874.0</ele><time>2026-05-03T08:41:20.234Z</time></trkpt><trkpt lat="42.060717" lon="2.1248224"><ele>877.6666666666666</ele><time>2026-05-03T08:41:21.234Z</time></trkpt><trkpt lat="42.0608447" lon="2.1249314"><ele>881.3333333333333</ele><time>2026-05-03T08:41:22.235Z</time></trkpt><trkpt lat="42.0609843" lon="2.1249744"><ele>885.0</ele><time>2026-05-03T08:41:23.235Z</time></trkpt><trkpt lat="42.0611499" lon="2.1249468"><ele>886.3333333333333</ele><time>2026-05-03T08:41:24.235Z</time></trkpt><trkpt lat="42.061338" lon="2.1248545"><ele>887.6666666666666</ele><time>2026-05-03T08:41:25.235Z</time></trkpt><trkpt lat="42.06155" lon="2.1247213"><ele>889.0</ele><time>2026-05-03T08:41:26.234Z</time></trkpt><trkpt lat="42.0617582" lon="2.1246151"><ele>892.0</ele><time>2026-05-03T08:41:27.235Z</time></trkpt><trkpt lat="42.0619597" lon="2.1245582"><ele>895.0</ele><time>2026-05-03T08:41:28.235Z</time></trkpt><trkpt lat="42.0621751" lon="2.1245743"><ele>898.0</ele><time>2026-05-03T08:41:29.235Z</time></trkpt><trkpt lat="42.0624117" lon="2.1246606"><ele>893.5</ele><time>2026-05-03T08:41:30.235Z</time></trkpt><trkpt lat="42.0626596" lon="2.1248007"><ele>889.0</ele><time>2026-05-03T08:41:31.235Z</time></trkpt><trkpt lat="42.0629013" lon="2.1249339"><ele>889.0</ele><time>2026-05-03T08:41:32.234Z</time></trkpt><trkpt lat="42.0631062" lon="2.1250523"><ele>889.0</ele><time>2026-05-03T08:41:33.234Z</time></trkpt><trkpt lat="42.0632815" lon="2.125145"><ele>889.0</ele><time>2026-05-03T08:41:34.235Z</time></trkpt><trkpt lat="42.0634411" lon="2.1251869"><ele>890.3333333333333</ele><time>2026-05-03T08:41:35.234Z</time></trkpt><trkpt lat="42.0636239" lon="2.1251553"><ele>891.6666666666667</ele><time>2026-05-03T08:41:36.234Z</time></trkpt><trkpt lat="42.0638236" lon="2.1250887"><ele>893.0</ele><time>2026-05-03T08:41:37.234Z</time></trkpt><trkpt lat="42.0640473" lon="2.1250814"><ele>893.0</ele><time>2026-05-03T08:41:38.234Z</time></trkpt><trkpt lat="42.0643008" lon="2.1251117"><ele>893.0</ele><time>2026-05-03T08:41:39.235Z</time></trkpt><trkpt lat="42.0645403" lon="2.1251061"><ele>893.0</ele><time>2026-05-03T08:41:40.234Z</time></trkpt><trkpt lat="42.0647494" lon="2.1251016"><ele>893.0</ele><time>2026-05-03T08:41:41.234Z</time></trkpt><trkpt lat="42.0649299" lon="2.1251668"><ele>893.0</ele><time>2026-05-03T08:41:42.234Z</time></trkpt><trkpt lat="42.0650823" lon="2.1252753"><ele>894.0</ele><time>2026-05-03T08:41:43.235Z</time></trkpt><trkpt lat="42.065244" lon="2.1253367"><ele>895.0</ele><time>2026-05-03T08:41:44.235Z</time></trkpt><trkpt lat="42.0654506" lon="2.1253299"><ele>896.0</ele><time>2026-05-03T08:41:45.234Z</time></trkpt><trkpt lat="42.0656935" lon="2.1252929"><ele>896.3333333333334</ele><time>2026-05-03T08:41:46.234Z</time></trkpt><trkpt lat="42.0659276" lon="2.1252574"><ele>896.6666666666667</ele><time>2026-05-03T08:41:47.234Z</time></trkpt><trkpt lat="42.0661251" lon="2.1252105"><ele>897.0</ele><time>2026-05-03T08:41:48.235Z</time></trkpt><trkpt lat="42.0662985" lon="2.1251142"><ele>897.0</ele><time>2026-05-03T08:41:49.235Z</time></trkpt><trkpt lat="42.0664433" lon="2.1249942"><ele>897.0</ele><time>2026-05-03T08:41:50.235Z</time></trkpt><trkpt lat="42.0665661" lon="2.1249149"><ele>897.0</ele><time>2026-05-03T08:41:51.235Z</time></trkpt><trkpt lat="42.0666919" lon="2.1249196"><ele>897.0</ele><time>2026-05-03T08:41:52.235Z</time></trkpt><trkpt lat="42.0668257" lon="2.124981"><ele>894.5</ele><time>2026-05-03T08:41:53.235Z</time></trkpt><trkpt lat="42.0669562" lon="2.125005"><ele>892.0</ele><time>2026-05-03T08:41:54.235Z</time></trkpt><trkpt lat="42.0670818" lon="2.1249532"><ele>889.5</ele><time>2026-05-03T08:41:55.235Z</time></trkpt><trkpt lat="42.0672017" lon="2.1249002"><ele>887.0</ele><time>2026-05-03T08:41:56.234Z</time></trkpt><trkpt lat="42.0673246" lon="2.124678"><ele>892.6666666666667</ele><time>2026-05-03T08:41:57.234Z</time></trkpt><trkpt lat="42.067461" lon="2.1245933"><ele>898.3333333333333</ele><time>2026-05-03T08:41:58.235Z</time></trkpt><trkpt lat="42.0676237" lon="2.1245754"><ele>904.0</ele><time>2026-05-03T08:41:59.235Z</time></trkpt><trkpt lat="42.0677931" lon="2.124643"><ele>904.0</ele><time>2026-05-03T08:42:00.234Z</time></trkpt><trkpt lat="42.0679704" lon="2.1247791"><ele>904.0</ele><time>2026-05-03T08:42:01.235Z</time></trkpt><trkpt lat="42.0681482" lon="2.1249156"><ele>904.0</ele><time>2026-05-03T08:42:02.235Z</time></trkpt><trkpt lat="42.0683237" lon="2.1249921"><ele>906.0</ele><time>2026-05-03T08:42:03.234Z</time></trkpt><trkpt lat="42.0685076" lon="2.1249958"><ele>908.0</ele><time>2026-05-03T08:42:04.234Z</time></trkpt><trkpt lat="42.068715" lon="2.1249324"><ele>910.0</ele><time>2026-05-03T08:42:05.235Z</time></trkpt><trkpt lat="42.0689549" lon="2.124812"><ele>909.5</ele><time>2026-05-03T08:42:06.235Z</time></trkpt><trkpt lat="42.0692233" lon="2.1246736"><ele>909.0</ele><time>2026-05-03T08:42:07.235Z</time></trkpt><trkpt lat="42.0695138" lon="2.1245327"><ele>909.0</ele><time>2026-05-03T08:42:08.235Z</time></trkpt><trkpt lat="42.0697934" lon="2.1243976"><ele>909.0</ele><time>2026-05-03T08:42:09.235Z</time></trkpt><trkpt lat="42.0700553" lon="2.1242642"><ele>905.5</ele><time>2026-05-03T08:42:10.235Z</time></trkpt><trkpt lat="42.0703027" lon="2.1241426"><ele>902.0</ele><time>2026-05-03T08:42:11.234Z</time></trkpt><trkpt lat="42.070544" lon="2.1240269"><ele>890.0</ele><time>2026-05-03T08:42:12.234Z</time></trkpt><trkpt lat="42.0707843" lon="2.1239154"><ele>878.0</ele><time>2026-05-03T08:42:13.234Z</time></trkpt><trkpt lat="42.071027" lon="2.1238138"><ele>878.0</ele><time>2026-05-03T08:42:14.235Z</time></trkpt><trkpt lat="42.0712707" lon="2.1237321"><ele>878.0</ele><time>2026-05-03T08:42:15.235Z</time></trkpt><trkpt lat="42.0715157" lon="2.123662"><ele>875.5</ele><time>2026-05-03T08:42:16.235Z</time></trkpt><trkpt lat="42.0717627" lon="2.1235973"><ele>873.0</ele><time>2026-05-03T08:42:17.234Z</time></trkpt><trkpt lat="42.0720131" lon="2.1235379"><ele>873.0</ele><time>2026-05-03T08:42:18.234Z</time></trkpt><trkpt lat="42.0722702" lon="2.1235099"><ele>873.0</ele><time>2026-05-03T08:42:19.234Z</time></trkpt><trkpt lat="42.072531" lon="2.1235153"><ele>871.5</ele><time>2026-05-03T08:42:20.234Z</time></trkpt><trkpt lat="42.072788" lon="2.123545"><ele>870.0</ele><time>2026-05-03T08:42:21.234Z</time></trkpt><trkpt lat="42.0730358" lon="2.12358"><ele>870.0</ele><time>2026-05-03T08:42:22.234Z</time></trkpt><trkpt lat="42.0732642" lon="2.1236219"><ele>870.0</ele><time>2026-05-03T08:42:23.234Z</time></trkpt><trkpt lat="42.0734751" lon="2.1236715"><ele>870.0</ele><time>2026-05-03T08:42:24.234Z</time></trkpt><trkpt lat="42.0736703" lon="2.1237293"><ele>868.6666666666667</ele><time>2026-05-03T08:42:25.235Z</time></trkpt><trkpt lat="42.0738486" lon="2.1237941"><ele>867.3333333333334</ele><time>2026-05-03T08:42:26.235Z</time></trkpt><trkpt lat="42.0740124" lon="2.1238698"><ele>866.0</ele><time>2026-05-03T08:42:27.234Z</time></trkpt><trkpt lat="42.0741671" lon="2.1239728"><ele>865.3333333333334</ele><time>2026-05-03T08:42:28.235Z</time></trkpt><trkpt lat="42.0743174" lon="2.1240979"><ele>864.6666666666667</ele><time>2026-05-03T08:42:29.234Z</time></trkpt><trkpt lat="42.0744642" lon="2.1242385"><ele>864.0</ele><time>2026-05-03T08:42:30.235Z</time></trkpt><trkpt lat="42.0746067" lon="2.1243877"><ele>864.0</ele><time>2026-05-03T08:42:31.235Z</time></trkpt><trkpt lat="42.0747355" lon="2.1245364"><ele>864.0</ele><time>2026-05-03T08:42:32.234Z</time></trkpt><trkpt lat="42.0748493" lon="2.1246876"><ele>864.0</ele><time>2026-05-03T08:42:33.235Z</time></trkpt><trkpt lat="42.0749527" lon="2.1248537"><ele>865.0</ele><time>2026-05-03T08:42:34.235Z</time></trkpt><trkpt lat="42.0750538" lon="2.1250344"><ele>866.0</ele><time>2026-05-03T08:42:35.234Z</time></trkpt><trkpt lat="42.0751546" lon="2.1252195"><ele>867.0</ele><time>2026-05-03T08:42:36.235Z</time></trkpt><trkpt lat="42.0752559" lon="2.12541"><ele>867.0</ele><time>2026-05-03T08:42:37.234Z</time></trkpt><trkpt lat="42.0753567" lon="2.125604"><ele>867.0</ele><time>2026-05-03T08:42:38.235Z</time></trkpt><trkpt lat="42.0754594" lon="2.125795"><ele>867.0</ele><time>2026-05-03T08:42:39.235Z</time></trkpt><trkpt lat="42.075569" lon="2.1259647"><ele>867.6666666666667</ele><time>2026-05-03T08:42:40.235Z</time></trkpt><trkpt lat="42.0756959" lon="2.1261086"><ele>868.3333333333334</ele><time>2026-05-03T08:42:41.234Z</time></trkpt><trkpt lat="42.0758489" lon="2.1262278"><ele>869.0</ele><time>2026-05-03T08:42:42.235Z</time></trkpt><trkpt lat="42.076025" lon="2.1263358"><ele>870.3333333333334</ele><time>2026-05-03T08:42:43.235Z</time></trkpt><trkpt lat="42.0762181" lon="2.1264529"><ele>871.6666666666667</ele><time>2026-05-03T08:42:44.235Z</time></trkpt><trkpt lat="42.0764269" lon="2.1265783"><ele>873.0</ele><time>2026-05-03T08:42:45.235Z</time></trkpt><trkpt lat="42.0766431" lon="2.1267042"><ele>874.6666666666667</ele><time>2026-05-03T08:42:46.234Z</time></trkpt><trkpt lat="42.0768455" lon="2.126824"><ele>876.3333333333334</ele><time>2026-05-03T08:42:47.234Z</time></trkpt><trkpt lat="42.0770305" lon="2.126942"><ele>878.0</ele><time>2026-05-03T08:42:48.235Z</time></trkpt><trkpt lat="42.0771935" lon="2.1270655"><ele>878.0</ele><time>2026-05-03T08:42:49.235Z</time></trkpt><trkpt lat="42.0773221" lon="2.1272241"><ele>878.0</ele><time>2026-05-03T08:42:50.235Z</time></trkpt><trkpt lat="42.077412" lon="2.1274151"><ele>878.0</ele><time>2026-05-03T08:42:51.235Z</time></trkpt><trkpt lat="42.0774594" lon="2.1276256"><ele>879.3333333333334</ele><time>2026-05-03T08:42:52.234Z</time></trkpt><trkpt lat="42.077485" lon="2.127839"><ele>880.6666666666667</ele><time>2026-05-03T08:42:53.235Z</time></trkpt><trkpt lat="42.077502" lon="2.1280515"><ele>882.0</ele><time>2026-05-03T08:42:54.235Z</time></trkpt><trkpt lat="42.0775115" lon="2.128242"><ele>882.0</ele><time>2026-05-03T08:42:55.235Z</time></trkpt><trkpt lat="42.0775178" lon="2.1284011"><ele>882.0</ele><time>2026-05-03T08:42:56.234Z</time></trkpt><trkpt lat="42.0775081" lon="2.1285412"><ele>882.0</ele><time>2026-05-03T08:42:57.234Z</time></trkpt><trkpt lat="42.0774663" lon="2.1286643"><ele>882.0</ele><time>2026-05-03T08:42:58.235Z</time></trkpt><trkpt lat="42.0773946" lon="2.1287789"><ele>882.0</ele><time>2026-05-03T08:42:59.234Z</time></trkpt><trkpt lat="42.0772875" lon="2.128874"><ele>881.3333333333333</ele><time>2026-05-03T08:43:00.235Z</time></trkpt><trkpt lat="42.077151" lon="2.1289571"><ele>880.6666666666666</ele><time>2026-05-03T08:43:01.235Z</time></trkpt><trkpt lat="42.0769826" lon="2.1290369"><ele>880.0</ele><time>2026-05-03T08:43:02.234Z</time></trkpt><trkpt lat="42.0767972" lon="2.1291254"><ele>877.6666666666666</ele><time>2026-05-03T08:43:03.234Z</time></trkpt><trkpt lat="42.0765967" lon="2.1292208"><ele>875.3333333333333</ele><time>2026-05-03T08:43:04.235Z</time></trkpt><trkpt lat="42.0763944" lon="2.1293183"><ele>873.0</ele><time>2026-05-03T08:43:05.235Z</time></trkpt><trkpt lat="42.0762067" lon="2.1294176"><ele>873.0</ele><time>2026-05-03T08:43:06.234Z</time></trkpt><trkpt lat="42.0760348" lon="2.1295411"><ele>873.0</ele><time>2026-05-03T08:43:07.235Z</time></trkpt><trkpt lat="42.0758764" lon="2.1297189"><ele>873.0</ele><time>2026-05-03T08:43:08.235Z</time></trkpt><trkpt lat="42.0757357" lon="2.1299419"><ele>870.0</ele><time>2026-05-03T08:43:09.235Z</time></trkpt><trkpt lat="42.0755914" lon="2.1301961"><ele>867.0</ele><time>2026-05-03T08:43:10.235Z</time></trkpt><trkpt lat="42.0754368" lon="2.1304588"><ele>867.0</ele><time>2026-05-03T08:43:11.234Z</time></trkpt><trkpt lat="42.0752935" lon="2.1307014"><ele>867.0</ele><time>2026-05-03T08:43:12.234Z</time></trkpt><trkpt lat="42.075155" lon="2.1309275"><ele>867.0</ele><time>2026-05-03T08:43:13.235Z</time></trkpt><trkpt lat="42.0750008" lon="2.1311194"><ele>867.0</ele><time>2026-05-03T08:43:14.235Z</time></trkpt><trkpt lat="42.0748184" lon="2.1312871"><ele>867.0</ele><time>2026-05-03T08:43:15.235Z</time></trkpt><trkpt lat="42.0746241" lon="2.1314308"><ele>867.0</ele><time>2026-05-03T08:43:16.235Z</time></trkpt><trkpt lat="42.0744192" lon="2.1315952"><ele>867.0</ele><time>2026-05-03T08:43:17.234Z</time></trkpt><trkpt lat="42.0742102" lon="2.1317576"><ele>867.0</ele><time>2026-05-03T08:43:18.234Z</time></trkpt><trkpt lat="42.0739952" lon="2.1319223"><ele>861.0</ele><time>2026-05-03T08:43:19.234Z</time></trkpt><trkpt lat="42.0737763" lon="2.1320902"><ele>855.0</ele><time>2026-05-03T08:43:20.235Z</time></trkpt><trkpt lat="42.0735571" lon="2.1322635"><ele>853.5</ele><time>2026-05-03T08:43:21.234Z</time></trkpt><trkpt lat="42.0733388" lon="2.132448"><ele>852.0</ele><time>2026-05-03T08:43:22.235Z</time></trkpt><trkpt lat="42.0731197" lon="2.1326392"><ele>852.0</ele><time>2026-05-03T08:43:23.234Z</time></trkpt><trkpt lat="42.0729009" lon="2.1328356"><ele>852.0</ele><time>2026-05-03T08:43:24.235Z</time></trkpt><trkpt lat="42.0726765" lon="2.1330358"><ele>854.5</ele><time>2026-05-03T08:43:25.234Z</time></trkpt><trkpt lat="42.0724538" lon="2.133239"><ele>857.0</ele><time>2026-05-03T08:43:26.234Z</time></trkpt><trkpt lat="42.0722255" lon="2.1334441"><ele>852.0</ele><time>2026-05-03T08:43:27.234Z</time></trkpt><trkpt lat="42.0719962" lon="2.1336572"><ele>847.0</ele><time>2026-05-03T08:43:28.235Z</time></trkpt><trkpt lat="42.071766" lon="2.1338698"><ele>844.0</ele><time>2026-05-03T08:43:29.235Z</time></trkpt><trkpt lat="42.0715329" lon="2.1340852"><ele>841.0</ele><time>2026-05-03T08:43:30.235Z</time></trkpt><trkpt lat="42.0713053" lon="2.1342966"><ele>841.0</ele><time>2026-05-03T08:43:31.234Z</time></trkpt><trkpt lat="42.0710894" lon="2.1344882"><ele>841.0</ele><time>2026-05-03T08:43:32.235Z</time></trkpt><trkpt lat="42.0708777" lon="2.134667"><ele>839.5</ele><time>2026-05-03T08:43:33.235Z</time></trkpt><trkpt lat="42.0706536" lon="2.1348224"><ele>838.0</ele><time>2026-05-03T08:43:34.235Z</time></trkpt><trkpt lat="42.0704145" lon="2.1349497"><ele>838.0</ele><time>2026-05-03T08:43:35.235Z</time></trkpt><trkpt lat="42.0701746" lon="2.1350674"><ele>838.0</ele><time>2026-05-03T08:43:36.235Z</time></trkpt><trkpt lat="42.0699507" lon="2.135175"><ele>835.6666666666666</ele><time>2026-05-03T08:43:37.234Z</time></trkpt><trkpt lat="42.0697451" lon="2.135272"><ele>833.3333333333333</ele><time>2026-05-03T08:43:38.234Z</time></trkpt><trkpt lat="42.0695532" lon="2.1353777"><ele>831.0</ele><time>2026-05-03T08:43:39.235Z</time></trkpt><trkpt lat="42.0693602" lon="2.1355162"><ele>831.0</ele><time>2026-05-03T08:43:40.235Z</time></trkpt><trkpt lat="42.0691569" lon="2.1356715"><ele>831.0</ele><time>2026-05-03T08:43:41.235Z</time></trkpt><trkpt lat="42.0689442" lon="2.1358323"><ele>828.0</ele><time>2026-05-03T08:43:42.234Z</time></trkpt><trkpt lat="42.0687348" lon="2.1359932"><ele>825.0</ele><time>2026-05-03T08:43:43.234Z</time></trkpt><trkpt lat="42.0685433" lon="2.1361416"><ele>825.0</ele><time>2026-05-03T08:43:44.235Z</time></trkpt><trkpt lat="42.0683662" lon="2.1362675"><ele>825.0</ele><time>2026-05-03T08:43:45.234Z</time></trkpt><trkpt lat="42.0681997" lon="2.1363653"><ele>825.0</ele><time>2026-05-03T08:43:46.235Z</time></trkpt><trkpt lat="42.0680355" lon="2.1364095"><ele>823.3333333333333</ele><time>2026-05-03T08:43:47.235Z</time></trkpt><trkpt lat="42.0678716" lon="2.1364019"><ele>821.6666666666666</ele><time>2026-05-03T08:43:48.235Z</time></trkpt><trkpt lat="42.0677081" lon="2.1363513"><ele>820.0</ele><time>2026-05-03T08:43:49.235Z</time></trkpt><trkpt lat="42.0675534" lon="2.1363221"><ele>820.0</ele><time>2026-05-03T08:43:50.235Z</time></trkpt><trkpt lat="42.0674117" lon="2.1363657"><ele>820.0</ele><time>2026-05-03T08:43:51.234Z</time></trkpt><trkpt lat="42.0672711" lon="2.1364513"><ele>820.0</ele><time>2026-05-03T08:43:52.234Z</time></trkpt><trkpt lat="42.0671202" lon="2.136593"><ele>820.0</ele><time>2026-05-03T08:43:53.235Z</time></trkpt><trkpt lat="42.0669559" lon="2.136772"><ele>820.0</ele><time>2026-05-03T08:43:54.235Z</time></trkpt><trkpt lat="42.0667739" lon="2.136967"><ele>820.0</ele><time>2026-05-03T08:43:55.235Z</time></trkpt><trkpt lat="42.0665939" lon="2.1371516"><ele>820.3333333333333</ele><time>2026-05-03T08:43:56.234Z</time></trkpt><trkpt lat="42.0664283" lon="2.1373062"><ele>820.6666666666667</ele><time>2026-05-03T08:43:57.235Z</time></trkpt><trkpt lat="42.06627" lon="2.137431"><ele>821.0</ele><time>2026-05-03T08:43:58.234Z</time></trkpt><trkpt lat="42.066094" lon="2.1375158"><ele>820.6666666666667</ele><time>2026-05-03T08:43:59.234Z</time></trkpt><trkpt lat="42.0658912" lon="2.1375649"><ele>820.3333333333333</ele><time>2026-05-03T08:44:00.235Z</time></trkpt><trkpt lat="42.065676" lon="2.1375817"><ele>820.0</ele><time>2026-05-03T08:44:01.235Z</time></trkpt><trkpt lat="42.0654507" lon="2.1376374"><ele>820.0</ele><time>2026-05-03T08:44:02.234Z</time></trkpt><trkpt lat="42.065219" lon="2.1377231"><ele>820.0</ele><time>2026-05-03T08:44:03.235Z</time></trkpt><trkpt lat="42.0649969" lon="2.1378467"><ele>815.0</ele><time>2026-05-03T08:44:04.234Z</time></trkpt><trkpt lat="42.064801" lon="2.1380104"><ele>810.0</ele><time>2026-05-03T08:44:05.235Z</time></trkpt><trkpt lat="42.0646295" lon="2.1382104"><ele>814.0</ele><time>2026-05-03T08:44:06.234Z</time></trkpt><trkpt lat="42.0644812" lon="2.1384487"><ele>818.0</ele><time>2026-05-03T08:44:07.235Z</time></trkpt><trkpt lat="42.0643461" lon="2.1387335"><ele>818.0</ele><time>2026-05-03T08:44:08.235Z</time></trkpt><trkpt lat="42.0642232" lon="2.139048"><ele>818.0</ele><time>2026-05-03T08:44:09.234Z</time></trkpt><trkpt lat="42.0641012" lon="2.1393808"><ele>816.0</ele><time>2026-05-03T08:44:10.235Z</time></trkpt><trkpt lat="42.0639758" lon="2.1397237"><ele>814.0</ele><time>2026-05-03T08:44:11.235Z</time></trkpt><trkpt lat="42.063846" lon="2.1400629"><ele>813.0</ele><time>2026-05-03T08:44:12.234Z</time></trkpt><trkpt lat="42.0637179" lon="2.1403987"><ele>812.0</ele><time>2026-05-03T08:44:13.235Z</time></trkpt><trkpt lat="42.0635884" lon="2.1407344"><ele>814.5</ele><time>2026-05-03T08:44:14.235Z</time></trkpt><trkpt lat="42.0634596" lon="2.1410707"><ele>817.0</ele><time>2026-05-03T08:44:15.235Z</time></trkpt><trkpt lat="42.0633297" lon="2.1414066"><ele>812.5</ele><time>2026-05-03T08:44:16.235Z</time></trkpt><trkpt lat="42.0632009" lon="2.1417448"><ele>808.0</ele><time>2026-05-03T08:44:17.235Z</time></trkpt><trkpt lat="42.0630727" lon="2.142088"><ele>810.0</ele><time>2026-05-03T08:44:18.235Z</time></trkpt><trkpt lat="42.0629431" lon="2.1424277"><ele>812.0</ele><time>2026-05-03T08:44:19.234Z</time></trkpt><trkpt lat="42.0628113" lon="2.1427684"><ele>812.0</ele><time>2026-05-03T08:44:20.235Z</time></trkpt><trkpt lat="42.0626787" lon="2.1431079"><ele>812.0</ele><time>2026-05-03T08:44:21.235Z</time></trkpt><trkpt lat="42.0625494" lon="2.1434481"><ele>810.5</ele><time>2026-05-03T08:44:22.234Z</time></trkpt><trkpt lat="42.0624198" lon="2.1437861"><ele>809.0</ele><time>2026-05-03T08:44:23.234Z</time></trkpt><trkpt lat="42.0622931" lon="2.1441202"><ele>809.0</ele><time>2026-05-03T08:44:24.234Z</time></trkpt><trkpt lat="42.0621722" lon="2.1444338"><ele>809.0</ele><time>2026-05-03T08:44:25.235Z</time></trkpt><trkpt lat="42.0620546" lon="2.1447313"><ele>810.5</ele><time>2026-05-03T08:44:26.235Z</time></trkpt><trkpt lat="42.0619484" lon="2.1450109"><ele>812.0</ele><time>2026-05-03T08:44:27.234Z</time></trkpt><trkpt lat="42.0618433" lon="2.1452751"><ele>812.0</ele><time>2026-05-03T08:44:28.234Z</time></trkpt><trkpt lat="42.0617501" lon="2.1455214"><ele>812.0</ele><time>2026-05-03T08:44:29.235Z</time></trkpt><trkpt lat="42.0616618" lon="2.1457469"><ele>812.0</ele><time>2026-05-03T08:44:30.235Z</time></trkpt><trkpt lat="42.0615806" lon="2.1459558"><ele>810.0</ele><time>2026-05-03T08:44:31.235Z</time></trkpt><trkpt lat="42.0615021" lon="2.1461504"><ele>808.0</ele><time>2026-05-03T08:44:32.235Z</time></trkpt><trkpt lat="42.061429" lon="2.146329"><ele>806.0</ele><time>2026-05-03T08:44:33.235Z</time></trkpt><trkpt lat="42.0613577" lon="2.1464998"><ele>806.25</ele><time>2026-05-03T08:44:34.234Z</time></trkpt><trkpt lat="42.061294" lon="2.1466683"><ele>806.5</ele><time>2026-05-03T08:44:35.235Z</time></trkpt><trkpt lat="42.0612315" lon="2.146836"><ele>806.75</ele><time>2026-05-03T08:44:36.235Z</time></trkpt><trkpt lat="42.061169" lon="2.1469986"><ele>807.0</ele><time>2026-05-03T08:44:37.234Z</time></trkpt><trkpt lat="42.0611105" lon="2.1471472"><ele>807.0</ele><time>2026-05-03T08:44:38.235Z</time></trkpt><trkpt lat="42.0610556" lon="2.1472879"><ele>807.0</ele><time>2026-05-03T08:44:39.235Z</time></trkpt><trkpt lat="42.0610156" lon="2.1474017"><ele>807.0</ele><time>2026-05-03T08:44:40.235Z</time></trkpt><trkpt lat="42.0609752" lon="2.1475084"><ele>807.0</ele><time>2026-05-03T08:44:41.235Z</time></trkpt><trkpt lat="42.060936" lon="2.1476091"><ele>807.0</ele><time>2026-05-03T08:44:42.234Z</time></trkpt><trkpt lat="42.0608925" lon="2.1477121"><ele>807.4000000000001</ele><time>2026-05-03T08:44:43.235Z</time></trkpt><trkpt lat="42.06085" lon="2.1478187"><ele>807.8000000000001</ele><time>2026-05-03T08:44:44.234Z</time></trkpt><trkpt lat="42.0608083" lon="2.1479286"><ele>808.2</ele><time>2026-05-03T08:44:45.234Z</time></trkpt><trkpt lat="42.0607641" lon="2.1480414"><ele>808.6</ele><time>2026-05-03T08:44:46.235Z</time></trkpt><trkpt lat="42.0607196" lon="2.148157"><ele>809.0</ele><time>2026-05-03T08:44:47.235Z</time></trkpt><trkpt lat="42.0606742" lon="2.1482757"><ele>809.0</ele><time>2026-05-03T08:44:48.235Z</time></trkpt><trkpt lat="42.0606301" lon="2.1483965"><ele>809.0</ele><time>2026-05-03T08:44:49.235Z</time></trkpt><trkpt lat="42.0605837" lon="2.1485018"><ele>809.0</ele><time>2026-05-03T08:44:50.235Z</time></trkpt><trkpt lat="42.060545" lon="2.1486017"><ele>809.0</ele><time>2026-05-03T08:44:51.235Z</time></trkpt><trkpt lat="42.0605097" lon="2.1486836"><ele>809.0</ele><time>2026-05-03T08:44:52.234Z</time></trkpt><trkpt lat="42.060458" lon="2.1488108"><ele>809.0</ele><time>2026-05-03T08:44:54.235Z</time></trkpt><trkpt lat="42.0604169" lon="2.1489169"><ele>809.0</ele><time>2026-05-03T08:44:56.234Z</time></trkpt><trkpt lat="42.0603573" lon="2.1490836"><ele>809.0</ele><time>2026-05-03T08:44:58.234Z</time></trkpt><trkpt lat="42.060316" lon="2.1491804"><ele>809.0</ele><time>2026-05-03T08:44:59.235Z</time></trkpt><trkpt lat="42.0602702" lon="2.1492778"><ele>809.0</ele><time>2026-05-03T08:45:00.235Z</time></trkpt><trkpt lat="42.0602206" lon="2.1493685"><ele>808.5714285714286</ele><time>2026-05-03T08:45:01.235Z</time></trkpt><trkpt lat="42.0601709" lon="2.1494434"><ele>808.1428571428571</ele><time>2026-05-03T08:45:02.234Z</time></trkpt><trkpt lat="42.0601216" lon="2.1495084"><ele>807.7142857142858</ele><time>2026-05-03T08:45:03.235Z</time></trkpt><trkpt lat="42.0600752" lon="2.1495756"><ele>807.2857142857142</ele><time>2026-05-03T08:45:04.235Z</time></trkpt><trkpt lat="42.0600254" lon="2.1496417"><ele>806.8571428571428</ele><time>2026-05-03T08:45:05.235Z</time></trkpt><trkpt lat="42.0599686" lon="2.1497058"><ele>806.4285714285714</ele><time>2026-05-03T08:45:06.235Z</time></trkpt><trkpt lat="42.059913" lon="2.1497725"><ele>806.0</ele><time>2026-05-03T08:45:07.235Z</time></trkpt><trkpt lat="42.0598601" lon="2.1498353"><ele>805.6666666666667</ele><time>2026-05-03T08:45:08.235Z</time></trkpt><trkpt lat="42.0598084" lon="2.1498896"><ele>805.3333333333334</ele><time>2026-05-03T08:45:09.235Z</time></trkpt><trkpt lat="42.0597592" lon="2.1499486"><ele>805.0</ele><time>2026-05-03T08:45:10.234Z</time></trkpt><trkpt lat="42.0597109" lon="2.1500071"><ele>804.6666666666667</ele><time>2026-05-03T08:45:11.234Z</time></trkpt><trkpt lat="42.0596626" lon="2.1500639"><ele>804.3333333333334</ele><time>2026-05-03T08:45:12.234Z</time></trkpt><trkpt lat="42.0595705" lon="2.1501662"><ele>804.0</ele><time>2026-05-03T08:45:14.235Z</time></trkpt><trkpt lat="42.0594886" lon="2.1502749"><ele>804.0</ele><time>2026-05-03T08:45:16.235Z</time></trkpt><trkpt lat="42.059391" lon="2.1503975"><ele>804.0</ele><time>2026-05-03T08:45:18.235Z</time></trkpt><trkpt lat="42.0593378" lon="2.150463"><ele>804.0</ele><time>2026-05-03T08:45:19.235Z</time></trkpt><trkpt lat="42.059288" lon="2.1505333"><ele>804.0</ele><time>2026-05-03T08:45:20.235Z</time></trkpt><trkpt lat="42.0592371" lon="2.1506025"><ele>804.0</ele><time>2026-05-03T08:45:21.234Z</time></trkpt><trkpt lat="42.0591875" lon="2.1506685"><ele>804.0</ele><time>2026-05-03T08:45:22.235Z</time></trkpt><trkpt lat="42.0591411" lon="2.150734"><ele>804.6</ele><time>2026-05-03T08:45:23.234Z</time></trkpt><trkpt lat="42.0590948" lon="2.1507962"><ele>805.2</ele><time>2026-05-03T08:45:24.235Z</time></trkpt><trkpt lat="42.0590174" lon="2.1509"><ele>805.8000000000001</ele><time>2026-05-03T08:45:26.235Z</time></trkpt><trkpt lat="42.0589516" lon="2.1509936"><ele>806.4000000000001</ele><time>2026-05-03T08:45:28.235Z</time></trkpt><trkpt lat="42.0588859" lon="2.1510944"><ele>807.0</ele><time>2026-05-03T08:45:30.235Z</time></trkpt><trkpt lat="42.0588174" lon="2.1511902"><ele>807.0</ele><time>2026-05-03T08:45:32.234Z</time></trkpt><trkpt lat="42.0587453" lon="2.1512968"><ele>807.0</ele><time>2026-05-03T08:45:34.235Z</time></trkpt><trkpt lat="42.0586678" lon="2.1514257"><ele>807.0</ele><time>2026-05-03T08:45:36.235Z</time></trkpt><trkpt lat="42.0586198" lon="2.1514962"><ele>807.0</ele><time>2026-05-03T08:45:37.235Z</time></trkpt><trkpt lat="42.0585656" lon="2.1515604"><ele>807.0</ele><time>2026-05-03T08:45:38.234Z</time></trkpt><trkpt lat="42.0585085" lon="2.1516306"><ele>807.0</ele><time>2026-05-03T08:45:39.234Z</time></trkpt><trkpt lat="42.0584459" lon="2.1517031"><ele>807.0</ele><time>2026-05-03T08:45:40.235Z</time></trkpt><trkpt lat="42.058371" lon="2.1517707"><ele>807.0</ele><time>2026-05-03T08:45:41.235Z</time></trkpt><trkpt lat="42.0582896" lon="2.1518363"><ele>807.0</ele><time>2026-05-03T08:45:42.235Z</time></trkpt><trkpt lat="42.0582021" lon="2.1519003"><ele>807.0</ele><time>2026-05-03T08:45:43.234Z</time></trkpt><trkpt lat="42.0581089" lon="2.1519597"><ele>807.0</ele><time>2026-05-03T08:45:44.235Z</time></trkpt><trkpt lat="42.0580177" lon="2.1520296"><ele>807.0</ele><time>2026-05-03T08:45:45.235Z</time></trkpt><trkpt lat="42.0579431" lon="2.1521159"><ele>807.0</ele><time>2026-05-03T08:45:46.235Z</time></trkpt><trkpt lat="42.0578807" lon="2.1522124"><ele>807.0</ele><time>2026-05-03T08:45:47.235Z</time></trkpt><trkpt lat="42.0578331" lon="2.1523155"><ele>807.0</ele><time>2026-05-03T08:45:48.235Z</time></trkpt><trkpt lat="42.0578041" lon="2.152429"><ele>806.0</ele><time>2026-05-03T08:45:49.234Z</time></trkpt><trkpt lat="42.0577874" lon="2.152558"><ele>805.0</ele><time>2026-05-03T08:45:50.235Z</time></trkpt><trkpt lat="42.0577893" lon="2.152714"><ele>804.0</ele><time>2026-05-03T08:45:51.235Z</time></trkpt><trkpt lat="42.0577928" lon="2.1528959"><ele>803.0</ele><time>2026-05-03T08:45:52.235Z</time></trkpt><trkpt lat="42.0577827" lon="2.1531007"><ele>801.6666666666667</ele><time>2026-05-03T08:45:53.235Z</time></trkpt><trkpt lat="42.0577291" lon="2.1533326"><ele>800.3333333333333</ele><time>2026-05-03T08:45:54.234Z</time></trkpt><trkpt lat="42.0576487" lon="2.153558"><ele>799.0</ele><time>2026-05-03T08:45:55.234Z</time></trkpt><trkpt lat="42.0575517" lon="2.1537653"><ele>799.0</ele><time>2026-05-03T08:45:56.235Z</time></trkpt><trkpt lat="42.0574612" lon="2.1539398"><ele>799.0</ele><time>2026-05-03T08:45:57.235Z</time></trkpt><trkpt lat="42.057388" lon="2.1541016"><ele>799.0</ele><time>2026-05-03T08:45:58.234Z</time></trkpt><trkpt lat="42.0573461" lon="2.1542522"><ele>799.0</ele><time>2026-05-03T08:45:59.235Z</time></trkpt><trkpt lat="42.0573485" lon="2.1543969"><ele>799.5</ele><time>2026-05-03T08:46:00.235Z</time></trkpt><trkpt lat="42.0573967" lon="2.1545305"><ele>800.0</ele><time>2026-05-03T08:46:01.234Z</time></trkpt><trkpt lat="42.0574937" lon="2.1546666"><ele>800.5</ele><time>2026-05-03T08:46:02.234Z</time></trkpt><trkpt lat="42.0576271" lon="2.1548068"><ele>801.0</ele><time>2026-05-03T08:46:03.235Z</time></trkpt><trkpt lat="42.0577764" lon="2.1549643"><ele>799.3333333333333</ele><time>2026-05-03T08:46:04.235Z</time></trkpt><trkpt lat="42.0579299" lon="2.1551203"><ele>797.6666666666666</ele><time>2026-05-03T08:46:05.234Z</time></trkpt><trkpt lat="42.0580778" lon="2.1552346"><ele>796.0</ele><time>2026-05-03T08:46:06.234Z</time></trkpt><trkpt lat="42.0582411" lon="2.1552814"><ele>797.3333333333333</ele><time>2026-05-03T08:46:07.235Z</time></trkpt><trkpt lat="42.0584242" lon="2.1553046"><ele>798.6666666666667</ele><time>2026-05-03T08:46:08.235Z</time></trkpt><trkpt lat="42.0585841" lon="2.1553305"><ele>800.0</ele><time>2026-05-03T08:46:09.235Z</time></trkpt><trkpt lat="42.0587238" lon="2.1553757"><ele>800.0</ele><time>2026-05-03T08:46:10.234Z</time></trkpt><trkpt lat="42.058844" lon="2.1554688"><ele>800.0</ele><time>2026-05-03T08:46:11.234Z</time></trkpt><trkpt lat="42.0589417" lon="2.1556067"><ele>800.0</ele><time>2026-05-03T08:46:12.234Z</time></trkpt><trkpt lat="42.0589981" lon="2.1557791"><ele>800.0</ele><time>2026-05-03T08:46:13.235Z</time></trkpt><trkpt lat="42.0590119" lon="2.1559877"><ele>796.6666666666667</ele><time>2026-05-03T08:46:14.235Z</time></trkpt><trkpt lat="42.0589829" lon="2.156226"><ele>793.3333333333333</ele><time>2026-05-03T08:46:15.235Z</time></trkpt><trkpt lat="42.0589431" lon="2.1564827"><ele>790.0</ele><time>2026-05-03T08:46:16.235Z</time></trkpt><trkpt lat="42.058897" lon="2.1567293"><ele>789.3333333333333</ele><time>2026-05-03T08:46:17.235Z</time></trkpt><trkpt lat="42.0588517" lon="2.1569368"><ele>788.6666666666667</ele><time>2026-05-03T08:46:18.235Z</time></trkpt><trkpt lat="42.0587864" lon="2.1571159"><ele>788.0</ele><time>2026-05-03T08:46:19.234Z</time></trkpt><trkpt lat="42.0586846" lon="2.1572634"><ele>788.0</ele><time>2026-05-03T08:46:20.235Z</time></trkpt><trkpt lat="42.0585322" lon="2.1574035"><ele>788.0</ele><time>2026-05-03T08:46:21.235Z</time></trkpt><trkpt lat="42.0583483" lon="2.1575479"><ele>788.0</ele><time>2026-05-03T08:46:22.235Z</time></trkpt><trkpt lat="42.0581332" lon="2.1577062"><ele>788.0</ele><time>2026-05-03T08:46:23.235Z</time></trkpt><trkpt lat="42.0578971" lon="2.1578786"><ele>788.0</ele><time>2026-05-03T08:46:24.234Z</time></trkpt><trkpt lat="42.0576421" lon="2.158066"><ele>790.0</ele><time>2026-05-03T08:46:25.235Z</time></trkpt><trkpt lat="42.0574018" lon="2.1582323"><ele>792.0</ele><time>2026-05-03T08:46:26.234Z</time></trkpt><trkpt lat="42.057182" lon="2.1583867"><ele>792.0</ele><time>2026-05-03T08:46:27.235Z</time></trkpt><trkpt lat="42.0569889" lon="2.1585573"><ele>792.0</ele><time>2026-05-03T08:46:28.235Z</time></trkpt><trkpt lat="42.0568231" lon="2.158737"><ele>792.0</ele><time>2026-05-03T08:46:29.234Z</time></trkpt><trkpt lat="42.0566631" lon="2.1588963"><ele>793.6666666666667</ele><time>2026-05-03T08:46:30.235Z</time></trkpt><trkpt lat="42.0564847" lon="2.1589973"><ele>795.3333333333334</ele><time>2026-05-03T08:46:31.235Z</time></trkpt><trkpt lat="42.0562748" lon="2.1590553"><ele>797.0</ele><time>2026-05-03T08:46:32.234Z</time></trkpt><trkpt lat="42.0560417" lon="2.159089"><ele>797.0</ele><time>2026-05-03T08:46:33.235Z</time></trkpt><trkpt lat="42.055815" lon="2.1591115"><ele>797.0</ele><time>2026-05-03T08:46:34.235Z</time></trkpt><trkpt lat="42.0556114" lon="2.1591382"><ele>797.0</ele><time>2026-05-03T08:46:35.235Z</time></trkpt><trkpt lat="42.0554189" lon="2.1591702"><ele>796.6666666666667</ele><time>2026-05-03T08:46:36.235Z</time></trkpt><trkpt lat="42.0552432" lon="2.1592262"><ele>796.3333333333333</ele><time>2026-05-03T08:46:37.234Z</time></trkpt><trkpt lat="42.0550882" lon="2.1593181"><ele>796.0</ele><time>2026-05-03T08:46:38.234Z</time></trkpt><trkpt lat="42.0549542" lon="2.1594454"><ele>796.5</ele><time>2026-05-03T08:46:39.234Z</time></trkpt><trkpt lat="42.0548586" lon="2.1595995"><ele>797.0</ele><time>2026-05-03T08:46:40.235Z</time></trkpt><trkpt lat="42.0548077" lon="2.159766"><ele>797.5</ele><time>2026-05-03T08:46:41.235Z</time></trkpt><trkpt lat="42.0548007" lon="2.1599561"><ele>798.0</ele><time>2026-05-03T08:46:42.235Z</time></trkpt><trkpt lat="42.0548332" lon="2.1601781"><ele>796.3333333333333</ele><time>2026-05-03T08:46:43.234Z</time></trkpt><trkpt lat="42.054878" lon="2.1604104"><ele>794.6666666666666</ele><time>2026-05-03T08:46:44.234Z</time></trkpt><trkpt lat="42.0548797" lon="2.1605996"><ele>793.0</ele><time>2026-05-03T08:46:45.234Z</time></trkpt><trkpt lat="42.054832" lon="2.1607747"><ele>792.6666666666666</ele><time>2026-05-03T08:46:46.234Z</time></trkpt><trkpt lat="42.0547309" lon="2.160914"><ele>792.3333333333333</ele><time>2026-05-03T08:46:47.235Z</time></trkpt><trkpt lat="42.054594" lon="2.1610185"><ele>792.0</ele><time>2026-05-03T08:46:48.235Z</time></trkpt><trkpt lat="42.0544562" lon="2.1611482"><ele>792.0</ele><time>2026-05-03T08:46:49.235Z</time></trkpt><trkpt lat="42.0543349" lon="2.1613406"><ele>792.0</ele><time>2026-05-03T08:46:50.234Z</time></trkpt><trkpt lat="42.054215" lon="2.1615789"><ele>792.0</ele><time>2026-05-03T08:46:51.235Z</time></trkpt><trkpt lat="42.0540814" lon="2.1618233"><ele>791.5</ele><time>2026-05-03T08:46:52.234Z</time></trkpt><trkpt lat="42.0539247" lon="2.1620705"><ele>791.0</ele><time>2026-05-03T08:46:53.235Z</time></trkpt><trkpt lat="42.0537484" lon="2.1622975"><ele>793.3333333333334</ele><time>2026-05-03T08:46:54.235Z</time></trkpt><trkpt lat="42.0535834" lon="2.1624915"><ele>795.6666666666667</ele><time>2026-05-03T08:46:55.234Z</time></trkpt><trkpt lat="42.0534368" lon="2.1626708"><ele>798.0</ele><time>2026-05-03T08:46:56.235Z</time></trkpt><trkpt lat="42.0533157" lon="2.1628349"><ele>798.0</ele><time>2026-05-03T08:46:57.235Z</time></trkpt><trkpt lat="42.0532344" lon="2.1629981"><ele>798.0</ele><time>2026-05-03T08:46:58.235Z</time></trkpt><trkpt lat="42.0531999" lon="2.1631797"><ele>798.0</ele><time>2026-05-03T08:46:59.234Z</time></trkpt><trkpt lat="42.0532098" lon="2.1633622"><ele>798.0</ele><time>2026-05-03T08:47:00.234Z</time></trkpt><trkpt lat="42.053269" lon="2.1635721"><ele>799.0</ele><time>2026-05-03T08:47:01.235Z</time></trkpt><trkpt lat="42.0533667" lon="2.1638231"><ele>800.0</ele><time>2026-05-03T08:47:02.235Z</time></trkpt><trkpt lat="42.0534755" lon="2.164114"><ele>800.0</ele><time>2026-05-03T08:47:03.234Z</time></trkpt><trkpt lat="42.0535906" lon="2.1644366"><ele>800.0</ele><time>2026-05-03T08:47:04.234Z</time></trkpt><trkpt lat="42.0537043" lon="2.1647573"><ele>800.0</ele><time>2026-05-03T08:47:05.235Z</time></trkpt><trkpt lat="42.0538074" lon="2.1650403"><ele>800.0</ele><time>2026-05-03T08:47:06.235Z</time></trkpt><trkpt lat="42.0538959" lon="2.1652802"><ele>800.0</ele><time>2026-05-03T08:47:07.234Z</time></trkpt><trkpt lat="42.0539671" lon="2.1654858"><ele>800.0</ele><time>2026-05-03T08:47:08.235Z</time></trkpt><trkpt lat="42.0540002" lon="2.1656822"><ele>800.0</ele><time>2026-05-03T08:47:09.235Z</time></trkpt><trkpt lat="42.0539848" lon="2.1658731"><ele>800.0</ele><time>2026-05-03T08:47:10.234Z</time></trkpt><trkpt lat="42.0539293" lon="2.1660446"><ele>800.0</ele><time>2026-05-03T08:47:11.234Z</time></trkpt><trkpt lat="42.0538605" lon="2.1661558"><ele>800.75</ele><time>2026-05-03T08:47:12.235Z</time></trkpt><trkpt lat="42.0537741" lon="2.1662081"><ele>801.5</ele><time>2026-05-03T08:47:13.235Z</time></trkpt><trkpt lat="42.0536762" lon="2.1661909"><ele>802.25</ele><time>2026-05-03T08:47:14.235Z</time></trkpt><trkpt lat="42.053569" lon="2.1661033"><ele>803.0</ele><time>2026-05-03T08:47:15.235Z</time></trkpt><trkpt lat="42.0534522" lon="2.1659796"><ele>803.0</ele><time>2026-05-03T08:47:16.234Z</time></trkpt><trkpt lat="42.0533199" lon="2.1658559"><ele>803.0</ele><time>2026-05-03T08:47:17.234Z</time></trkpt><trkpt lat="42.0531854" lon="2.165781"><ele>803.0</ele><time>2026-05-03T08:47:18.234Z</time></trkpt><trkpt lat="42.0530187" lon="2.1657511"><ele>801.6666666666667</ele><time>2026-05-03T08:47:19.235Z</time></trkpt><trkpt lat="42.0528652" lon="2.1657637"><ele>800.3333333333333</ele><time>2026-05-03T08:47:20.235Z</time></trkpt><trkpt lat="42.0527303" lon="2.1658255"><ele>799.0</ele><time>2026-05-03T08:47:21.235Z</time></trkpt><trkpt lat="42.0526018" lon="2.1659459"><ele>799.0</ele><time>2026-05-03T08:47:22.235Z</time></trkpt><trkpt lat="42.0524735" lon="2.1661389"><ele>799.0</ele><time>2026-05-03T08:47:23.234Z</time></trkpt><trkpt lat="42.0523354" lon="2.1663739"><ele>799.0</ele><time>2026-05-03T08:47:24.235Z</time></trkpt><trkpt lat="42.0521841" lon="2.1666201"><ele>798.0</ele><time>2026-05-03T08:47:25.235Z</time></trkpt><trkpt lat="42.0520626" lon="2.1668194"><ele>797.0</ele><time>2026-05-03T08:47:26.234Z</time></trkpt><trkpt lat="42.0519686" lon="2.1669951"><ele>796.0</ele><time>2026-05-03T08:47:27.235Z</time></trkpt><trkpt lat="42.0519151" lon="2.1671832"><ele>797.3333333333333</ele><time>2026-05-03T08:47:28.235Z</time></trkpt><trkpt lat="42.0519137" lon="2.1673916"><ele>798.6666666666667</ele><time>2026-05-03T08:47:29.234Z</time></trkpt><trkpt lat="42.0519455" lon="2.1676495"><ele>800.0</ele><time>2026-05-03T08:47:30.235Z</time></trkpt><trkpt lat="42.0519945" lon="2.167943"><ele>801.6666666666667</ele><time>2026-05-03T08:47:31.235Z</time></trkpt><trkpt lat="42.0520428" lon="2.1682504"><ele>803.3333333333333</ele><time>2026-05-03T08:47:32.235Z</time></trkpt><trkpt lat="42.0520802" lon="2.1685137"><ele>805.0</ele><time>2026-05-03T08:47:33.234Z</time></trkpt><trkpt lat="42.0521068" lon="2.168728"><ele>805.0</ele><time>2026-05-03T08:47:34.235Z</time></trkpt><trkpt lat="42.0521015" lon="2.1688996"><ele>805.0</ele><time>2026-05-03T08:47:35.235Z</time></trkpt><trkpt lat="42.0520489" lon="2.1690386"><ele>805.0</ele><time>2026-05-03T08:47:36.234Z</time></trkpt><trkpt lat="42.0519579" lon="2.1691281"><ele>805.0</ele><time>2026-05-03T08:47:37.234Z</time></trkpt><trkpt lat="42.0518503" lon="2.1691587"><ele>805.0</ele><time>2026-05-03T08:47:38.235Z</time></trkpt><trkpt lat="42.0517515" lon="2.1691253"><ele>805.0</ele><time>2026-05-03T08:47:39.234Z</time></trkpt><trkpt lat="42.0516758" lon="2.1690223"><ele>805.0</ele><time>2026-05-03T08:47:40.234Z</time></trkpt><trkpt lat="42.0516152" lon="2.1688698"><ele>805.0</ele><time>2026-05-03T08:47:41.235Z</time></trkpt><trkpt lat="42.0515428" lon="2.1687237"><ele>804.0</ele><time>2026-05-03T08:47:42.235Z</time></trkpt><trkpt lat="42.051454" lon="2.1686245"><ele>803.0</ele><time>2026-05-03T08:47:43.235Z</time></trkpt><trkpt lat="42.0513649" lon="2.1685939"><ele>802.0</ele><time>2026-05-03T08:47:44.235Z</time></trkpt><trkpt lat="42.0512738" lon="2.1686323"><ele>801.0</ele><time>2026-05-03T08:47:45.234Z</time></trkpt><trkpt lat="42.0511904" lon="2.1687422"><ele>800.0</ele><time>2026-05-03T08:47:46.234Z</time></trkpt><trkpt lat="42.0511332" lon="2.1689141"><ele>802.0</ele><time>2026-05-03T08:47:47.235Z</time></trkpt><trkpt lat="42.0511189" lon="2.169113"><ele>804.0</ele><time>2026-05-03T08:47:48.235Z</time></trkpt><trkpt lat="42.0511534" lon="2.16933"><ele>806.0</ele><time>2026-05-03T08:47:49.235Z</time></trkpt><trkpt lat="42.0512309" lon="2.1695703"><ele>806.0</ele><time>2026-05-03T08:47:50.235Z</time></trkpt><trkpt lat="42.0513452" lon="2.1698281"><ele>806.0</ele><time>2026-05-03T08:47:51.235Z</time></trkpt><trkpt lat="42.0514632" lon="2.1701131"><ele>808.3333333333334</ele><time>2026-05-03T08:47:52.235Z</time></trkpt><trkpt lat="42.0515621" lon="2.1704036"><ele>810.6666666666667</ele><time>2026-05-03T08:47:53.235Z</time></trkpt><trkpt lat="42.0516312" lon="2.1706588"><ele>813.0</ele><time>2026-05-03T08:47:54.235Z</time></trkpt><trkpt lat="42.0516722" lon="2.170877"><ele>814.25</ele><time>2026-05-03T08:47:55.234Z</time></trkpt><trkpt lat="42.0516724" lon="2.1710741"><ele>815.5</ele><time>2026-05-03T08:47:56.235Z</time></trkpt><trkpt lat="42.0516312" lon="2.1712293"><ele>816.75</ele><time>2026-05-03T08:47:57.234Z</time></trkpt><trkpt lat="42.0515606" lon="2.1713269"><ele>818.0</ele><time>2026-05-03T08:47:58.235Z</time></trkpt><trkpt lat="42.0514694" lon="2.1713698"><ele>819.5999999999999</ele><time>2026-05-03T08:47:59.235Z</time></trkpt><trkpt lat="42.0513844" lon="2.1713528"><ele>821.1999999999999</ele><time>2026-05-03T08:48:00.235Z</time></trkpt><trkpt lat="42.0513189" lon="2.1712625"><ele>822.8</ele><time>2026-05-03T08:48:01.234Z</time></trkpt><trkpt lat="42.0512626" lon="2.1711045"><ele>824.4</ele><time>2026-05-03T08:48:02.235Z</time></trkpt><trkpt lat="42.051194" lon="2.1709509"><ele>826.0</ele><time>2026-05-03T08:48:03.235Z</time></trkpt><trkpt lat="42.0510895" lon="2.1708352"><ele>826.0</ele><time>2026-05-03T08:48:04.235Z</time></trkpt><trkpt lat="42.050947" lon="2.1707363"><ele>826.0</ele><time>2026-05-03T08:48:05.235Z</time></trkpt><trkpt lat="42.0508107" lon="2.1706716"><ele>826.0</ele><time>2026-05-03T08:48:06.235Z</time></trkpt><trkpt lat="42.05069" lon="2.170663"><ele>826.0</ele><time>2026-05-03T08:48:07.235Z</time></trkpt><trkpt lat="42.0505837" lon="2.1707207"><ele>827.3333333333333</ele><time>2026-05-03T08:48:08.235Z</time></trkpt><trkpt lat="42.0504842" lon="2.1708495"><ele>828.6666666666667</ele><time>2026-05-03T08:48:09.234Z</time></trkpt><trkpt lat="42.0503739" lon="2.1710416"><ele>830.0</ele><time>2026-05-03T08:48:10.234Z</time></trkpt><trkpt lat="42.0502531" lon="2.171264"><ele>830.0</ele><time>2026-05-03T08:48:11.235Z</time></trkpt><trkpt lat="42.0501206" lon="2.1715137"><ele>830.0</ele><time>2026-05-03T08:48:12.234Z</time></trkpt><trkpt lat="42.04998" lon="2.1717824"><ele>833.0</ele><time>2026-05-03T08:48:13.235Z</time></trkpt><trkpt lat="42.0498476" lon="2.1720621"><ele>836.0</ele><time>2026-05-03T08:48:14.234Z</time></trkpt><trkpt lat="42.0497363" lon="2.1723183"><ele>838.0</ele><time>2026-05-03T08:48:15.235Z</time></trkpt><trkpt lat="42.0496405" lon="2.1725541"><ele>840.0</ele><time>2026-05-03T08:48:16.234Z</time></trkpt><trkpt lat="42.04957" lon="2.172739"><ele>842.0</ele><time>2026-05-03T08:48:17.234Z</time></trkpt><trkpt lat="42.0495111" lon="2.1728482"><ele>842.0</ele><time>2026-05-03T08:48:18.234Z</time></trkpt><trkpt lat="42.0494275" lon="2.1728987"><ele>842.0</ele><time>2026-05-03T08:48:19.234Z</time></trkpt><trkpt lat="42.049328" lon="2.1728718"><ele>842.0</ele><time>2026-05-03T08:48:20.234Z</time></trkpt><trkpt lat="42.0492108" lon="2.1727967"><ele>842.0</ele><time>2026-05-03T08:48:21.235Z</time></trkpt><trkpt lat="42.049066" lon="2.1727418"><ele>843.25</ele><time>2026-05-03T08:48:22.235Z</time></trkpt><trkpt lat="42.0489012" lon="2.1726864"><ele>844.5</ele><time>2026-05-03T08:48:23.234Z</time></trkpt><trkpt lat="42.0487756" lon="2.1726555"><ele>845.75</ele><time>2026-05-03T08:48:24.235Z</time></trkpt><trkpt lat="42.0486743" lon="2.17267"><ele>847.0</ele><time>2026-05-03T08:48:25.235Z</time></trkpt><trkpt lat="42.0485829" lon="2.1727469"><ele>847.0</ele><time>2026-05-03T08:48:26.235Z</time></trkpt><trkpt lat="42.0485259" lon="2.1728921"><ele>847.0</ele><time>2026-05-03T08:48:27.234Z</time></trkpt><trkpt lat="42.0484811" lon="2.1730668"><ele>847.0</ele><time>2026-05-03T08:48:28.235Z</time></trkpt><trkpt lat="42.0484245" lon="2.1731994"><ele>847.0</ele><time>2026-05-03T08:48:29.234Z</time></trkpt><trkpt lat="42.0483348" lon="2.1732954"><ele>852.0</ele><time>2026-05-03T08:48:30.235Z</time></trkpt><trkpt lat="42.048245" lon="2.1733768"><ele>857.0</ele><time>2026-05-03T08:48:31.235Z</time></trkpt><trkpt lat="42.0480879" lon="2.1733403"><ele>862.0</ele><time>2026-05-03T08:48:32.235Z</time></trkpt><trkpt lat="42.0479528" lon="2.173302"><ele>867.0</ele><time>2026-05-03T08:48:33.235Z</time></trkpt><trkpt lat="42.0478111" lon="2.1731927"><ele>865.5</ele><time>2026-05-03T08:48:34.234Z</time></trkpt><trkpt lat="42.0476959" lon="2.1731128"><ele>864.0</ele><time>2026-05-03T08:48:35.234Z</time></trkpt><trkpt lat="42.0476127" lon="2.1730142"><ele>862.5</ele><time>2026-05-03T08:48:36.235Z</time></trkpt><trkpt lat="42.0475634" lon="2.1728801"><ele>861.0</ele><time>2026-05-03T08:48:37.234Z</time></trkpt><trkpt lat="42.0475517" lon="2.1727138"><ele>861.0</ele><time>2026-05-03T08:48:38.235Z</time></trkpt><trkpt lat="42.0475674" lon="2.1725284"><ele>861.0</ele><time>2026-05-03T08:48:39.235Z</time></trkpt><trkpt lat="42.0475378" lon="2.1723447"><ele>861.0</ele><time>2026-05-03T08:48:40.234Z</time></trkpt><trkpt lat="42.0474684" lon="2.1721766"><ele>861.0</ele><time>2026-05-03T08:48:41.235Z</time></trkpt><trkpt lat="42.0473668" lon="2.1720081"><ele>860.25</ele><time>2026-05-03T08:48:42.234Z</time></trkpt><trkpt lat="42.0472584" lon="2.1718747"><ele>859.5</ele><time>2026-05-03T08:48:43.234Z</time></trkpt><trkpt lat="42.047147" lon="2.171795"><ele>858.75</ele><time>2026-05-03T08:48:44.235Z</time></trkpt><trkpt lat="42.0470308" lon="2.1717745"><ele>858.0</ele><time>2026-05-03T08:48:45.235Z</time></trkpt><trkpt lat="42.0469194" lon="2.1718078"><ele>858.0</ele><time>2026-05-03T08:48:46.234Z</time></trkpt><trkpt lat="42.0468141" lon="2.1718973"><ele>858.0</ele><time>2026-05-03T08:48:47.235Z</time></trkpt><trkpt lat="42.0467205" lon="2.1720479"><ele>858.0</ele><time>2026-05-03T08:48:48.235Z</time></trkpt><trkpt lat="42.046634" lon="2.1722626"><ele>855.0</ele><time>2026-05-03T08:48:49.235Z</time></trkpt><trkpt lat="42.0465514" lon="2.1725151"><ele>852.0</ele><time>2026-05-03T08:48:50.235Z</time></trkpt><trkpt lat="42.0464629" lon="2.1727484"><ele>849.0</ele><time>2026-05-03T08:48:51.235Z</time></trkpt><trkpt lat="42.0463569" lon="2.1729466"><ele>849.0</ele><time>2026-05-03T08:48:52.235Z</time></trkpt><trkpt lat="42.0462404" lon="2.1730927"><ele>849.0</ele><time>2026-05-03T08:48:53.235Z</time></trkpt><trkpt lat="42.046105" lon="2.1731875"><ele>849.0</ele><time>2026-05-03T08:48:54.235Z</time></trkpt><trkpt lat="42.0459464" lon="2.173266"><ele>853.3333333333333</ele><time>2026-05-03T08:48:55.234Z</time></trkpt><trkpt lat="42.0458091" lon="2.1733529"><ele>857.6666666666666</ele><time>2026-05-03T08:48:56.234Z</time></trkpt><trkpt lat="42.045691" lon="2.1734859"><ele>862.0</ele><time>2026-05-03T08:48:57.234Z</time></trkpt><trkpt lat="42.0455928" lon="2.1736842"><ele>862.0</ele><time>2026-05-03T08:48:58.234Z</time></trkpt><trkpt lat="42.0454995" lon="2.173911"><ele>862.0</ele><time>2026-05-03T08:48:59.235Z</time></trkpt><trkpt lat="42.0454125" lon="2.1740657"><ele>862.0</ele><time>2026-05-03T08:49:00.235Z</time></trkpt><trkpt lat="42.0453128" lon="2.1741852"><ele>865.75</ele><time>2026-05-03T08:49:01.235Z</time></trkpt><trkpt lat="42.0451967" lon="2.1742405"><ele>869.5</ele><time>2026-05-03T08:49:02.235Z</time></trkpt><trkpt lat="42.0450693" lon="2.1742361"><ele>873.25</ele><time>2026-05-03T08:49:03.235Z</time></trkpt><trkpt lat="42.0449355" lon="2.1741806"><ele>877.0</ele><time>2026-05-03T08:49:04.235Z</time></trkpt><trkpt lat="42.0447865" lon="2.1741012"><ele>875.0</ele><time>2026-05-03T08:49:05.235Z</time></trkpt><trkpt lat="42.0446347" lon="2.1740126"><ele>873.0</ele><time>2026-05-03T08:49:06.234Z</time></trkpt><trkpt lat="42.0444875" lon="2.1739461"><ele>871.0</ele><time>2026-05-03T08:49:07.235Z</time></trkpt><trkpt lat="42.0443714" lon="2.1739153"><ele>869.0</ele><time>2026-05-03T08:49:08.235Z</time></trkpt><trkpt lat="42.0442868" lon="2.1739095"><ele>869.0</ele><time>2026-05-03T08:49:09.235Z</time></trkpt><trkpt lat="42.0442045" lon="2.1739403"><ele>869.0000000000001</ele><time>2026-05-03T08:49:11.235Z</time></trkpt><trkpt lat="42.0441828" lon="2.1740201"><ele>869.0000000000001</ele><time>2026-05-03T08:49:13.234Z</time></trkpt><trkpt lat="42.0441527" lon="2.1742126"><ele>869.0</ele><time>2026-05-03T08:49:15.234Z</time></trkpt><trkpt lat="42.0441252" lon="2.1743403"><ele>869.0</ele><time>2026-05-03T08:49:16.234Z</time></trkpt><trkpt lat="42.0441157" lon="2.1744835"><ele>869.0</ele><time>2026-05-03T08:49:17.235Z</time></trkpt><trkpt lat="42.044154" lon="2.174622"><ele>869.0</ele><time>2026-05-03T08:49:18.235Z</time></trkpt><trkpt lat="42.0442435" lon="2.1747791"><ele>869.0</ele><time>2026-05-03T08:49:19.234Z</time></trkpt><trkpt lat="42.0443519" lon="2.1749421"><ele>869.0</ele><time>2026-05-03T08:49:20.235Z</time></trkpt><trkpt lat="42.0444215" lon="2.1751243"><ele>869.0</ele><time>2026-05-03T08:49:21.235Z</time></trkpt><trkpt lat="42.0444809" lon="2.1753063"><ele>869.0</ele><time>2026-05-03T08:49:22.234Z</time></trkpt><trkpt lat="42.0445616" lon="2.1754388"><ele>869.0</ele><time>2026-05-03T08:49:23.235Z</time></trkpt><trkpt lat="42.044632" lon="2.1755448"><ele>869.0</ele><time>2026-05-03T08:49:24.235Z</time></trkpt><trkpt lat="42.0446741" lon="2.1756571"><ele>867.0</ele><time>2026-05-03T08:49:25.235Z</time></trkpt><trkpt lat="42.0446473" lon="2.1757949"><ele>865.0</ele><time>2026-05-03T08:49:26.235Z</time></trkpt><trkpt lat="42.0445873" lon="2.1759387"><ele>863.0</ele><time>2026-05-03T08:49:27.235Z</time></trkpt><trkpt lat="42.044541" lon="2.1760879"><ele>861.0</ele><time>2026-05-03T08:49:28.234Z</time></trkpt><trkpt lat="42.0445363" lon="2.1762308"><ele>861.0</ele><time>2026-05-03T08:49:29.235Z</time></trkpt><trkpt lat="42.044575" lon="2.1763793"><ele>861.0</ele><time>2026-05-03T08:49:30.235Z</time></trkpt><trkpt lat="42.0446637" lon="2.1765038"><ele>861.0</ele><time>2026-05-03T08:49:31.234Z</time></trkpt><trkpt lat="42.0448029" lon="2.1766237"><ele>861.0</ele><time>2026-05-03T08:49:32.234Z</time></trkpt><trkpt lat="42.0449604" lon="2.1767626"><ele>862.3333333333333</ele><time>2026-05-03T08:49:33.234Z</time></trkpt><trkpt lat="42.0451072" lon="2.1769505"><ele>863.6666666666666</ele><time>2026-05-03T08:49:34.235Z</time></trkpt><trkpt lat="42.0452461" lon="2.1771969"><ele>865.0</ele><time>2026-05-03T08:49:35.235Z</time></trkpt><trkpt lat="42.0453737" lon="2.1774488"><ele>860.0</ele><time>2026-05-03T08:49:36.234Z</time></trkpt><trkpt lat="42.0454928" lon="2.1776656"><ele>855.0</ele><time>2026-05-03T08:49:37.234Z</time></trkpt><trkpt lat="42.0456191" lon="2.1778335"><ele>850.0</ele><time>2026-05-03T08:49:38.234Z</time></trkpt><trkpt lat="42.0457263" lon="2.1779739"><ele>850.0</ele><time>2026-05-03T08:49:39.234Z</time></trkpt><trkpt lat="42.0457698" lon="2.1781149"><ele>850.0</ele><time>2026-05-03T08:49:40.234Z</time></trkpt><trkpt lat="42.0457777" lon="2.1782401"><ele>850.0</ele><time>2026-05-03T08:49:41.235Z</time></trkpt><trkpt lat="42.0457505" lon="2.1783499"><ele>850.0</ele><time>2026-05-03T08:49:42.235Z</time></trkpt><trkpt lat="42.0456777" lon="2.178418"><ele>850.0</ele><time>2026-05-03T08:49:43.235Z</time></trkpt><trkpt lat="42.0455707" lon="2.1784318"><ele>851.25</ele><time>2026-05-03T08:49:44.235Z</time></trkpt><trkpt lat="42.0454422" lon="2.178425"><ele>852.5</ele><time>2026-05-03T08:49:45.234Z</time></trkpt><trkpt lat="42.0453074" lon="2.1784342"><ele>853.75</ele><time>2026-05-03T08:49:46.235Z</time></trkpt><trkpt lat="42.045166" lon="2.1785417"><ele>855.0</ele><time>2026-05-03T08:49:47.235Z</time></trkpt><trkpt lat="42.0450365" lon="2.1786255"><ele>855.0</ele><time>2026-05-03T08:49:48.235Z</time></trkpt><trkpt lat="42.0449365" lon="2.1786639"><ele>855.0</ele><time>2026-05-03T08:49:49.234Z</time></trkpt><trkpt lat="42.0448543" lon="2.178648"><ele>855.0</ele><time>2026-05-03T08:49:50.235Z</time></trkpt><trkpt lat="42.0448281" lon="2.1785057"><ele>855.0</ele><time>2026-05-03T08:49:52.235Z</time></trkpt><trkpt lat="42.0448881" lon="2.1784204"><ele>855.0</ele><time>2026-05-03T08:49:53.234Z</time></trkpt><trkpt lat="42.0450049" lon="2.1783435"><ele>855.0</ele><time>2026-05-03T08:49:54.235Z</time></trkpt><trkpt lat="42.0451572" lon="2.1782835"><ele>855.0</ele><time>2026-05-03T08:49:55.235Z</time></trkpt><trkpt lat="42.0452743" lon="2.1782269"><ele>855.0</ele><time>2026-05-03T08:49:56.235Z</time></trkpt><trkpt lat="42.045396" lon="2.1781774"><ele>855.0</ele><time>2026-05-03T08:49:57.235Z</time></trkpt><trkpt lat="42.045418" lon="2.1780492"><ele>853.75</ele><time>2026-05-03T08:49:58.235Z</time></trkpt><trkpt lat="42.0454184" lon="2.1779296"><ele>852.5</ele><time>2026-05-03T08:49:59.235Z</time></trkpt><trkpt lat="42.0453575" lon="2.1778073"><ele>851.25</ele><time>2026-05-03T08:50:00.235Z</time></trkpt><trkpt lat="42.0452522" lon="2.1776727"><ele>850.0</ele><time>2026-05-03T08:50:01.235Z</time></trkpt><trkpt lat="42.0451551" lon="2.1775018"><ele>849.6666666666666</ele><time>2026-05-03T08:50:02.234Z</time></trkpt><trkpt lat="42.0450446" lon="2.1773235"><ele>849.3333333333333</ele><time>2026-05-03T08:50:03.235Z</time></trkpt><trkpt lat="42.0448701" lon="2.1771744"><ele>849.0</ele><time>2026-05-03T08:50:04.235Z</time></trkpt><trkpt lat="42.0446676" lon="2.177037"><ele>849.0</ele><time>2026-05-03T08:50:05.235Z</time></trkpt><trkpt lat="42.0444322" lon="2.1769239"><ele>849.0</ele><time>2026-05-03T08:50:06.235Z</time></trkpt><trkpt lat="42.0441686" lon="2.1768341"><ele>842.0</ele><time>2026-05-03T08:50:07.235Z</time></trkpt><trkpt lat="42.0439515" lon="2.1767606"><ele>835.0</ele><time>2026-05-03T08:50:08.235Z</time></trkpt><trkpt lat="42.0437694" lon="2.1767044"><ele>828.0</ele><time>2026-05-03T08:50:09.234Z</time></trkpt><trkpt lat="42.0436333" lon="2.1766576"><ele>828.0</ele><time>2026-05-03T08:50:10.235Z</time></trkpt><trkpt lat="42.0435305" lon="2.1765873"><ele>828.0</ele><time>2026-05-03T08:50:11.235Z</time></trkpt><trkpt lat="42.0434729" lon="2.1764596"><ele>828.0</ele><time>2026-05-03T08:50:12.234Z</time></trkpt><trkpt lat="42.0434537" lon="2.176305"><ele>828.0</ele><time>2026-05-03T08:50:13.235Z</time></trkpt><trkpt lat="42.0434813" lon="2.1761093"><ele>830.5999999999999</ele><time>2026-05-03T08:50:14.235Z</time></trkpt><trkpt lat="42.0435161" lon="2.1759308"><ele>833.1999999999999</ele><time>2026-05-03T08:50:15.235Z</time></trkpt><trkpt lat="42.0435202" lon="2.1757729"><ele>835.8</ele><time>2026-05-03T08:50:16.235Z</time></trkpt><trkpt lat="42.0434764" lon="2.1756492"><ele>838.4</ele><time>2026-05-03T08:50:17.235Z</time></trkpt><trkpt lat="42.0434104" lon="2.1755739"><ele>841.0</ele><time>2026-05-03T08:50:18.235Z</time></trkpt><trkpt lat="42.0433331" lon="2.1755684"><ele>843.5</ele><time>2026-05-03T08:50:19.235Z</time></trkpt><trkpt lat="42.0432748" lon="2.1756284"><ele>846.0</ele><time>2026-05-03T08:50:20.235Z</time></trkpt><trkpt lat="42.0432577" lon="2.1757419"><ele>848.5</ele><time>2026-05-03T08:50:21.235Z</time></trkpt><trkpt lat="42.0432387" lon="2.1758592"><ele>851.0</ele><time>2026-05-03T08:50:22.235Z</time></trkpt><trkpt lat="42.0432916" lon="2.1761369"><ele>851.0</ele><time>2026-05-03T08:50:23.234Z</time></trkpt><trkpt lat="42.0432668" lon="2.1763253"><ele>851.0</ele><time>2026-05-03T08:50:24.234Z</time></trkpt><trkpt lat="42.0432406" lon="2.1765103"><ele>851.0</ele><time>2026-05-03T08:50:25.235Z</time></trkpt><trkpt lat="42.0432377" lon="2.1766625"><ele>851.0</ele><time>2026-05-03T08:50:26.234Z</time></trkpt><trkpt lat="42.0432821" lon="2.1768027"><ele>845.25</ele><time>2026-05-03T08:50:27.235Z</time></trkpt><trkpt lat="42.0433614" lon="2.1769005"><ele>839.5</ele><time>2026-05-03T08:50:28.234Z</time></trkpt><trkpt lat="42.0434912" lon="2.1769504"><ele>833.75</ele><time>2026-05-03T08:50:29.234Z</time></trkpt><trkpt lat="42.0436595" lon="2.1770094"><ele>828.0</ele><time>2026-05-03T08:50:30.234Z</time></trkpt><trkpt lat="42.0438505" lon="2.177141"><ele>828.0</ele><time>2026-05-03T08:50:31.235Z</time></trkpt><trkpt lat="42.0440057" lon="2.1772666"><ele>828.0</ele><time>2026-05-03T08:50:32.234Z</time></trkpt><trkpt lat="42.0441183" lon="2.1773634"><ele>828.0</ele><time>2026-05-03T08:50:33.234Z</time></trkpt><trkpt lat="42.0441912" lon="2.1774697"><ele>828.0</ele><time>2026-05-03T08:50:34.235Z</time></trkpt><trkpt lat="42.0442067" lon="2.1775845"><ele>828.5</ele><time>2026-05-03T08:50:35.235Z</time></trkpt><trkpt lat="42.044161" lon="2.1776991"><ele>829.0</ele><time>2026-05-03T08:50:36.235Z</time></trkpt><trkpt lat="42.0440586" lon="2.177794"><ele>829.5</ele><time>2026-05-03T08:50:37.234Z</time></trkpt><trkpt lat="42.0438958" lon="2.1778825"><ele>830.0</ele><time>2026-05-03T08:50:38.234Z</time></trkpt><trkpt lat="42.0436994" lon="2.1779904"><ele>824.0</ele><time>2026-05-03T08:50:39.235Z</time></trkpt><trkpt lat="42.0435179" lon="2.178087"><ele>818.0</ele><time>2026-05-03T08:50:40.235Z</time></trkpt><trkpt lat="42.0433728" lon="2.1781602"><ele>812.0</ele><time>2026-05-03T08:50:41.234Z</time></trkpt><trkpt lat="42.0432709" lon="2.1782315"><ele>808.75</ele><time>2026-05-03T08:50:42.235Z</time></trkpt><trkpt lat="42.0432129" lon="2.1783435"><ele>805.5</ele><time>2026-05-03T08:50:43.235Z</time></trkpt><trkpt lat="42.0431507" lon="2.1784597"><ele>802.25</ele><time>2026-05-03T08:50:44.235Z</time></trkpt><trkpt lat="42.0432191" lon="2.1786986"><ele>799.0</ele><time>2026-05-03T08:50:45.234Z</time></trkpt><trkpt lat="42.0431783" lon="2.1788545"><ele>799.0</ele><time>2026-05-03T08:50:46.234Z</time></trkpt><trkpt lat="42.0431052" lon="2.1789869"><ele>799.0</ele><time>2026-05-03T08:50:47.234Z</time></trkpt><trkpt lat="42.0430486" lon="2.179117"><ele>799.0</ele><time>2026-05-03T08:50:48.234Z</time></trkpt><trkpt lat="42.0430357" lon="2.1792927"><ele>799.0</ele><time>2026-05-03T08:50:49.234Z</time></trkpt><trkpt lat="42.0430304" lon="2.1794961"><ele>797.25</ele><time>2026-05-03T08:50:50.235Z</time></trkpt><trkpt lat="42.0429771" lon="2.1796766"><ele>795.5</ele><time>2026-05-03T08:50:51.234Z</time></trkpt><trkpt lat="42.0428958" lon="2.1798193"><ele>793.75</ele><time>2026-05-03T08:50:52.234Z</time></trkpt><trkpt lat="42.042867" lon="2.1799558"><ele>792.0</ele><time>2026-05-03T08:50:53.235Z</time></trkpt><trkpt lat="42.0428684" lon="2.1800719"><ele>790.75</ele><time>2026-05-03T08:50:54.234Z</time></trkpt><trkpt lat="42.0429222" lon="2.1801538"><ele>789.5</ele><time>2026-05-03T08:50:55.235Z</time></trkpt><trkpt lat="42.0430277" lon="2.1801929"><ele>788.25</ele><time>2026-05-03T08:50:56.234Z</time></trkpt><trkpt lat="42.0431887" lon="2.1802114"><ele>787.0</ele><time>2026-05-03T08:50:57.235Z</time></trkpt><trkpt lat="42.0433795" lon="2.1802199"><ele>791.2</ele><time>2026-05-03T08:50:58.235Z</time></trkpt><trkpt lat="42.0435111" lon="2.1802378"><ele>795.4000000000001</ele><time>2026-05-03T08:50:59.235Z</time></trkpt><trkpt lat="42.0435942" lon="2.1802984"><ele>799.5999999999999</ele><time>2026-05-03T08:51:00.235Z</time></trkpt><trkpt lat="42.0436471" lon="2.1804086"><ele>803.8</ele><time>2026-05-03T08:51:01.235Z</time></trkpt><trkpt lat="42.0436743" lon="2.1805398"><ele>808.0</ele><time>2026-05-03T08:51:02.235Z</time></trkpt><trkpt lat="42.0437388" lon="2.180636"><ele>802.75</ele><time>2026-05-03T08:51:03.234Z</time></trkpt><trkpt lat="42.0438366" lon="2.1806921"><ele>797.5</ele><time>2026-05-03T08:51:04.234Z</time></trkpt><trkpt lat="42.043939" lon="2.1807708"><ele>792.25</ele><time>2026-05-03T08:51:05.235Z</time></trkpt><trkpt lat="42.0440011" lon="2.1808925"><ele>787.0</ele><time>2026-05-03T08:51:06.234Z</time></trkpt><trkpt lat="42.0440391" lon="2.1810493"><ele>787.0</ele><time>2026-05-03T08:51:07.235Z</time></trkpt><trkpt lat="42.0440299" lon="2.181172"><ele>787.0</ele><time>2026-05-03T08:51:08.235Z</time></trkpt><trkpt lat="42.0439813" lon="2.181267"><ele>787.0</ele><time>2026-05-03T08:51:09.235Z</time></trkpt><trkpt lat="42.0438827" lon="2.1813124"><ele>787.0</ele><time>2026-05-03T08:51:10.235Z</time></trkpt><trkpt lat="42.0437317" lon="2.1813206"><ele>787.0</ele><time>2026-05-03T08:51:11.235Z</time></trkpt><trkpt lat="42.043572" lon="2.1813539"><ele>787.0</ele><time>2026-05-03T08:51:12.235Z</time></trkpt><trkpt lat="42.0433392" lon="2.1813894"><ele>787.0</ele><time>2026-05-03T08:51:13.235Z</time></trkpt><trkpt lat="42.0431836" lon="2.1814234"><ele>787.0</ele><time>2026-05-03T08:51:14.235Z</time></trkpt><trkpt lat="42.0430477" lon="2.1814846"><ele>780.2</ele><time>2026-05-03T08:51:15.235Z</time></trkpt><trkpt lat="42.0429515" lon="2.1815687"><ele>773.4000000000001</ele><time>2026-05-03T08:51:16.235Z</time></trkpt><trkpt lat="42.0429002" lon="2.1816693"><ele>766.5999999999999</ele><time>2026-05-03T08:51:17.235Z</time></trkpt><trkpt lat="42.0428794" lon="2.1817817"><ele>759.8</ele><time>2026-05-03T08:51:18.235Z</time></trkpt><trkpt lat="42.0429072" lon="2.1818888"><ele>753.0</ele><time>2026-05-03T08:51:19.235Z</time></trkpt><trkpt lat="42.0429875" lon="2.1819721"><ele>753.0</ele><time>2026-05-03T08:51:20.234Z</time></trkpt><trkpt lat="42.0431029" lon="2.1820479"><ele>753.0</ele><time>2026-05-03T08:51:21.234Z</time></trkpt><trkpt lat="42.0431758" lon="2.182136"><ele>753.0</ele><time>2026-05-03T08:51:22.234Z</time></trkpt><trkpt lat="42.0431968" lon="2.1822721"><ele>753.0</ele><time>2026-05-03T08:51:23.235Z</time></trkpt><trkpt lat="42.043162" lon="2.1824078"><ele>753.0</ele><time>2026-05-03T08:51:24.235Z</time></trkpt><trkpt lat="42.0430905" lon="2.1825249"><ele>751.5</ele><time>2026-05-03T08:51:25.235Z</time></trkpt><trkpt lat="42.0430458" lon="2.1826247"><ele>750.0</ele><time>2026-05-03T08:51:26.234Z</time></trkpt><trkpt lat="42.0430332" lon="2.1827284"><ele>748.5</ele><time>2026-05-03T08:51:27.235Z</time></trkpt><trkpt lat="42.0430717" lon="2.1828366"><ele>747.0</ele><time>2026-05-03T08:51:28.234Z</time></trkpt><trkpt lat="42.0431454" lon="2.1829369"><ele>745.5</ele><time>2026-05-03T08:51:29.234Z</time></trkpt><trkpt lat="42.0431927" lon="2.1830391"><ele>744.0</ele><time>2026-05-03T08:51:30.234Z</time></trkpt><trkpt lat="42.0431917" lon="2.1831593"><ele>742.3333333333334</ele><time>2026-05-03T08:51:31.234Z</time></trkpt><trkpt lat="42.043134" lon="2.1833076"><ele>740.6666666666667</ele><time>2026-05-03T08:51:32.234Z</time></trkpt><trkpt lat="42.0430379" lon="2.1834841"><ele>739.0</ele><time>2026-05-03T08:51:33.235Z</time></trkpt><trkpt lat="42.0429382" lon="2.1836904"><ele>739.0</ele><time>2026-05-03T08:51:34.234Z</time></trkpt><trkpt lat="42.0428729" lon="2.1838395"><ele>739.0</ele><time>2026-05-03T08:51:35.234Z</time></trkpt><trkpt lat="42.0428352" lon="2.1839789"><ele>739.0</ele><time>2026-05-03T08:51:36.235Z</time></trkpt><trkpt lat="42.0428443" lon="2.1841077"><ele>739.0</ele><time>2026-05-03T08:51:37.235Z</time></trkpt><trkpt lat="42.0429009" lon="2.1841994"><ele>739.0</ele><time>2026-05-03T08:51:38.234Z</time></trkpt><trkpt lat="42.043006" lon="2.1842417"><ele>740.0</ele><time>2026-05-03T08:51:39.235Z</time></trkpt><trkpt lat="42.0431603" lon="2.1842716"><ele>741.0</ele><time>2026-05-03T08:51:40.235Z</time></trkpt><trkpt lat="42.0432935" lon="2.184329"><ele>742.0</ele><time>2026-05-03T08:51:41.235Z</time></trkpt><trkpt lat="42.0434386" lon="2.1844201"><ele>744.8</ele><time>2026-05-03T08:51:42.235Z</time></trkpt><trkpt lat="42.0435414" lon="2.1845164"><ele>747.6</ele><time>2026-05-03T08:51:43.234Z</time></trkpt><trkpt lat="42.0436063" lon="2.184625"><ele>750.4</ele><time>2026-05-03T08:51:44.234Z</time></trkpt><trkpt lat="42.0436311" lon="2.1847479"><ele>753.1999999999999</ele><time>2026-05-03T08:51:45.235Z</time></trkpt><trkpt lat="42.0436228" lon="2.1848908"><ele>756.0</ele><time>2026-05-03T08:51:46.235Z</time></trkpt><trkpt lat="42.0435634" lon="2.1850576"><ele>756.0</ele><time>2026-05-03T08:51:47.235Z</time></trkpt><trkpt lat="42.0434605" lon="2.1852597"><ele>756.0</ele><time>2026-05-03T08:51:48.235Z</time></trkpt><trkpt lat="42.043336" lon="2.185479"><ele>756.0</ele><time>2026-05-03T08:51:49.234Z</time></trkpt><trkpt lat="42.0432383" lon="2.1856502"><ele>747.25</ele><time>2026-05-03T08:51:50.235Z</time></trkpt><trkpt lat="42.0431753" lon="2.1857982"><ele>738.5</ele><time>2026-05-03T08:51:51.235Z</time></trkpt><trkpt lat="42.0431626" lon="2.1859429"><ele>729.75</ele><time>2026-05-03T08:51:52.234Z</time></trkpt><trkpt lat="42.0432183" lon="2.1860978"><ele>721.0</ele><time>2026-05-03T08:51:53.234Z</time></trkpt><trkpt lat="42.0432655" lon="2.1862417"><ele>721.0</ele><time>2026-05-03T08:51:54.235Z</time></trkpt><trkpt lat="42.0432534" lon="2.1863833"><ele>721.0</ele><time>2026-05-03T08:51:55.235Z</time></trkpt><trkpt lat="42.0431835" lon="2.1865067"><ele>721.0</ele><time>2026-05-03T08:51:56.234Z</time></trkpt><trkpt lat="42.0430956" lon="2.186625"><ele>721.0</ele><time>2026-05-03T08:51:57.235Z</time></trkpt><trkpt lat="42.0430493" lon="2.1867579"><ele>723.0</ele><time>2026-05-03T08:51:58.235Z</time></trkpt><trkpt lat="42.0430484" lon="2.1869289"><ele>725.0</ele><time>2026-05-03T08:51:59.234Z</time></trkpt><trkpt lat="42.0430636" lon="2.1870903"><ele>727.0</ele><time>2026-05-03T08:52:00.234Z</time></trkpt><trkpt lat="42.0430254" lon="2.1872203"><ele>729.0</ele><time>2026-05-03T08:52:01.234Z</time></trkpt><trkpt lat="42.0429315" lon="2.1873106"><ele>733.6666666666666</ele><time>2026-05-03T08:52:02.235Z</time></trkpt><trkpt lat="42.0427891" lon="2.187373"><ele>738.3333333333333</ele><time>2026-05-03T08:52:03.235Z</time></trkpt><trkpt lat="42.0426111" lon="2.187379"><ele>743.0</ele><time>2026-05-03T08:52:04.235Z</time></trkpt><trkpt lat="42.0424233" lon="2.1873366"><ele>736.0</ele><time>2026-05-03T08:52:05.234Z</time></trkpt><trkpt lat="42.0422728" lon="2.1872882"><ele>729.0</ele><time>2026-05-03T08:52:06.235Z</time></trkpt><trkpt lat="42.042146" lon="2.1872586"><ele>722.0</ele><time>2026-05-03T08:52:07.234Z</time></trkpt><trkpt lat="42.042042" lon="2.1872834"><ele>715.0</ele><time>2026-05-03T08:52:08.235Z</time></trkpt><trkpt lat="42.0419383" lon="2.1873599"><ele>715.0</ele><time>2026-05-03T08:52:09.234Z</time></trkpt><trkpt lat="42.0418512" lon="2.1874829"><ele>715.0</ele><time>2026-05-03T08:52:10.235Z</time></trkpt><trkpt lat="42.0418052" lon="2.1876296"><ele>715.0</ele><time>2026-05-03T08:52:11.235Z</time></trkpt><trkpt lat="42.0417939" lon="2.1877744"><ele>715.0</ele><time>2026-05-03T08:52:12.234Z</time></trkpt><trkpt lat="42.0418005" lon="2.1879017"><ele>715.0</ele><time>2026-05-03T08:52:13.234Z</time></trkpt><trkpt lat="42.0418107" lon="2.1880083"><ele>715.0</ele><time>2026-05-03T08:52:14.235Z</time></trkpt><trkpt lat="42.0417933" lon="2.1881606"><ele>715.0</ele><time>2026-05-03T08:52:16.234Z</time></trkpt><trkpt lat="42.0416928" lon="2.188174"><ele>715.0</ele><time>2026-05-03T08:52:18.235Z</time></trkpt><trkpt lat="42.0416575" lon="2.1881007"><ele>715.0</ele><time>2026-05-03T08:52:19.235Z</time></trkpt><trkpt lat="42.0416508" lon="2.1879922"><ele>715.0</ele><time>2026-05-03T08:52:20.235Z</time></trkpt><trkpt lat="42.0416686" lon="2.1878382"><ele>715.0</ele><time>2026-05-03T08:52:21.234Z</time></trkpt><trkpt lat="42.0417144" lon="2.1876317"><ele>715.0</ele><time>2026-05-03T08:52:22.235Z</time></trkpt><trkpt lat="42.0417941" lon="2.1873947"><ele>715.0</ele><time>2026-05-03T08:52:23.235Z</time></trkpt><trkpt lat="42.0418727" lon="2.187212"><ele>712.0</ele><time>2026-05-03T08:52:24.235Z</time></trkpt><trkpt lat="42.0419447" lon="2.1870873"><ele>709.0</ele><time>2026-05-03T08:52:25.235Z</time></trkpt><trkpt lat="42.0420449" lon="2.187029"><ele>706.0</ele><time>2026-05-03T08:52:26.235Z</time></trkpt><trkpt lat="42.0421893" lon="2.1870176"><ele>703.0</ele><time>2026-05-03T08:52:27.235Z</time></trkpt><trkpt lat="42.0423172" lon="2.1869976"><ele>703.0</ele><time>2026-05-03T08:52:28.235Z</time></trkpt><trkpt lat="42.0424099" lon="2.1869193"><ele>703.0</ele><time>2026-05-03T08:52:29.235Z</time></trkpt><trkpt lat="42.0424822" lon="2.1867628"><ele>703.0</ele><time>2026-05-03T08:52:30.235Z</time></trkpt><trkpt lat="42.0425292" lon="2.1865912"><ele>703.0</ele><time>2026-05-03T08:52:31.234Z</time></trkpt><trkpt lat="42.0425322" lon="2.1864518"><ele>703.4</ele><time>2026-05-03T08:52:32.235Z</time></trkpt><trkpt lat="42.0424772" lon="2.1863264"><ele>703.8</ele><time>2026-05-03T08:52:33.234Z</time></trkpt><trkpt lat="42.0424039" lon="2.1862265"><ele>704.2</ele><time>2026-05-03T08:52:34.235Z</time></trkpt><trkpt lat="42.0423792" lon="2.1861044"><ele>704.6</ele><time>2026-05-03T08:52:35.235Z</time></trkpt><trkpt lat="42.0424026" lon="2.1859537"><ele>705.0</ele><time>2026-05-03T08:52:36.234Z</time></trkpt><trkpt lat="42.0424578" lon="2.1857824"><ele>708.0</ele><time>2026-05-03T08:52:37.235Z</time></trkpt><trkpt lat="42.0424776" lon="2.1856488"><ele>711.0</ele><time>2026-05-03T08:52:38.234Z</time></trkpt><trkpt lat="42.042437" lon="2.1855197"><ele>714.0</ele><time>2026-05-03T08:52:39.235Z</time></trkpt><trkpt lat="42.0423526" lon="2.185403"><ele>717.0</ele><time>2026-05-03T08:52:40.235Z</time></trkpt><trkpt lat="42.0422368" lon="2.1852533"><ele>717.0</ele><time>2026-05-03T08:52:41.234Z</time></trkpt><trkpt lat="42.0421453" lon="2.1850358"><ele>717.0</ele><time>2026-05-03T08:52:42.234Z</time></trkpt><trkpt lat="42.0420733" lon="2.1848614"><ele>717.0</ele><time>2026-05-03T08:52:43.235Z</time></trkpt><trkpt lat="42.0420136" lon="2.1847197"><ele>717.0</ele><time>2026-05-03T08:52:44.235Z</time></trkpt><trkpt lat="42.0419456" lon="2.1846322"><ele>717.0</ele><time>2026-05-03T08:52:45.234Z</time></trkpt><trkpt lat="42.0418551" lon="2.1846198"><ele>717.0</ele><time>2026-05-03T08:52:46.234Z</time></trkpt><trkpt lat="42.0417587" lon="2.1846798"><ele>717.0</ele><time>2026-05-03T08:52:47.234Z</time></trkpt><trkpt lat="42.0416826" lon="2.1847609"><ele>717.0</ele><time>2026-05-03T08:52:48.235Z</time></trkpt><trkpt lat="42.041656" lon="2.1848733"><ele>717.0</ele><time>2026-05-03T08:52:49.235Z</time></trkpt><trkpt lat="42.0416718" lon="2.1850257"><ele>717.0</ele><time>2026-05-03T08:52:50.234Z</time></trkpt><trkpt lat="42.0416602" lon="2.1852156"><ele>717.0</ele><time>2026-05-03T08:52:51.234Z</time></trkpt><trkpt lat="42.0416118" lon="2.1854171"><ele>717.0</ele><time>2026-05-03T08:52:52.235Z</time></trkpt><trkpt lat="42.0415493" lon="2.1855861"><ele>719.0</ele><time>2026-05-03T08:52:53.234Z</time></trkpt><trkpt lat="42.0414632" lon="2.1857094"><ele>721.0</ele><time>2026-05-03T08:52:54.235Z</time></trkpt><trkpt lat="42.0413467" lon="2.1857901"><ele>723.0</ele><time>2026-05-03T08:52:55.235Z</time></trkpt><trkpt lat="42.0411934" lon="2.1858465"><ele>725.0</ele><time>2026-05-03T08:52:56.235Z</time></trkpt><trkpt lat="42.041048" lon="2.1859312"><ele>725.0</ele><time>2026-05-03T08:52:57.235Z</time></trkpt><trkpt lat="42.0409367" lon="2.1860436"><ele>725.0</ele><time>2026-05-03T08:52:58.235Z</time></trkpt><trkpt lat="42.040851" lon="2.1862176"><ele>725.0</ele><time>2026-05-03T08:52:59.235Z</time></trkpt><trkpt lat="42.0407794" lon="2.1863874"><ele>725.0</ele><time>2026-05-03T08:53:00.235Z</time></trkpt><trkpt lat="42.0406915" lon="2.1865079"><ele>724.2</ele><time>2026-05-03T08:53:01.234Z</time></trkpt><trkpt lat="42.0405952" lon="2.1865746"><ele>723.4</ele><time>2026-05-03T08:53:02.234Z</time></trkpt><trkpt lat="42.0404864" lon="2.1865798"><ele>722.5999999999999</ele><time>2026-05-03T08:53:03.234Z</time></trkpt><trkpt lat="42.0403611" lon="2.1865479"><ele>721.8</ele><time>2026-05-03T08:53:04.235Z</time></trkpt><trkpt lat="42.0402578" lon="2.1865562"><ele>721.0</ele><time>2026-05-03T08:53:05.235Z</time></trkpt><trkpt lat="42.0401909" lon="2.1866349"><ele>721.0</ele><time>2026-05-03T08:53:06.235Z</time></trkpt><trkpt lat="42.0401707" lon="2.1867755"><ele>721.0</ele><time>2026-05-03T08:53:07.235Z</time></trkpt><trkpt lat="42.0401945" lon="2.1869331"><ele>721.0</ele><time>2026-05-03T08:53:08.234Z</time></trkpt><trkpt lat="42.0402121" lon="2.1870613"><ele>721.0</ele><time>2026-05-03T08:53:09.235Z</time></trkpt><trkpt lat="42.0401834" lon="2.1871772"><ele>721.0</ele><time>2026-05-03T08:53:10.234Z</time></trkpt><trkpt lat="42.0401089" lon="2.1873142"><ele>724.25</ele><time>2026-05-03T08:53:11.235Z</time></trkpt><trkpt lat="42.0400144" lon="2.1874552"><ele>727.5</ele><time>2026-05-03T08:53:12.235Z</time></trkpt><trkpt lat="42.0399163" lon="2.1875532"><ele>730.75</ele><time>2026-05-03T08:53:13.234Z</time></trkpt><trkpt lat="42.0397642" lon="2.1875976"><ele>734.0</ele><time>2026-05-03T08:53:14.235Z</time></trkpt><trkpt lat="42.0396579" lon="2.1876488"><ele>734.0</ele><time>2026-05-03T08:53:15.235Z</time></trkpt><trkpt lat="42.0395842" lon="2.1877508"><ele>734.0</ele><time>2026-05-03T08:53:16.234Z</time></trkpt><trkpt lat="42.0395564" lon="2.1879364"><ele>734.0</ele><time>2026-05-03T08:53:17.234Z</time></trkpt><trkpt lat="42.0395525" lon="2.1881774"><ele>734.0</ele><time>2026-05-03T08:53:18.235Z</time></trkpt><trkpt lat="42.0395523" lon="2.1883858"><ele>728.8000000000001</ele><time>2026-05-03T08:53:19.235Z</time></trkpt><trkpt lat="42.0395384" lon="2.188541"><ele>723.6</ele><time>2026-05-03T08:53:20.235Z</time></trkpt><trkpt lat="42.0394876" lon="2.1886568"><ele>718.4</ele><time>2026-05-03T08:53:21.234Z</time></trkpt><trkpt lat="42.0394039" lon="2.1887075"><ele>713.2</ele><time>2026-05-03T08:53:22.235Z</time></trkpt><trkpt lat="42.0392768" lon="2.1887001"><ele>708.0</ele><time>2026-05-03T08:53:23.234Z</time></trkpt><trkpt lat="42.0390925" lon="2.1886752"><ele>708.0</ele><time>2026-05-03T08:53:24.235Z</time></trkpt><trkpt lat="42.0388589" lon="2.1886687"><ele>708.0</ele><time>2026-05-03T08:53:25.234Z</time></trkpt><trkpt lat="42.0385928" lon="2.1886551"><ele>708.0</ele><time>2026-05-03T08:53:26.235Z</time></trkpt><trkpt lat="42.03835" lon="2.1886304"><ele>708.0</ele><time>2026-05-03T08:53:27.235Z</time></trkpt><trkpt lat="42.0381436" lon="2.1886089"><ele>707.25</ele><time>2026-05-03T08:53:28.234Z</time></trkpt><trkpt lat="42.0379797" lon="2.1885931"><ele>706.5</ele><time>2026-05-03T08:53:29.234Z</time></trkpt><trkpt lat="42.0378647" lon="2.1886115"><ele>705.75</ele><time>2026-05-03T08:53:30.234Z</time></trkpt><trkpt lat="42.037771" lon="2.1886756"><ele>705.0</ele><time>2026-05-03T08:53:31.235Z</time></trkpt><trkpt lat="42.0377201" lon="2.1888038"><ele>705.0</ele><time>2026-05-03T08:53:32.235Z</time></trkpt><trkpt lat="42.0377208" lon="2.1889601"><ele>705.0</ele><time>2026-05-03T08:53:33.235Z</time></trkpt><trkpt lat="42.0377735" lon="2.189144"><ele>705.0</ele><time>2026-05-03T08:53:34.235Z</time></trkpt><trkpt lat="42.0378692" lon="2.18933"><ele>705.0</ele><time>2026-05-03T08:53:35.235Z</time></trkpt><trkpt lat="42.0380087" lon="2.1895041"><ele>704.5</ele><time>2026-05-03T08:53:36.235Z</time></trkpt><trkpt lat="42.0382062" lon="2.1896571"><ele>704.0</ele><time>2026-05-03T08:53:37.234Z</time></trkpt><trkpt lat="42.0384275" lon="2.1898242"><ele>700.0</ele><time>2026-05-03T08:53:38.234Z</time></trkpt><trkpt lat="42.0386006" lon="2.1899946"><ele>696.0</ele><time>2026-05-03T08:53:39.234Z</time></trkpt><trkpt lat="42.0387487" lon="2.1901578"><ele>692.0</ele><time>2026-05-03T08:53:40.235Z</time></trkpt><trkpt lat="42.038868" lon="2.1903053"><ele>692.0</ele><time>2026-05-03T08:53:41.234Z</time></trkpt><trkpt lat="42.0389556" lon="2.1904695"><ele>692.0</ele><time>2026-05-03T08:53:42.234Z</time></trkpt><trkpt lat="42.0390055" lon="2.1906662"><ele>692.0</ele><time>2026-05-03T08:53:43.235Z</time></trkpt><trkpt lat="42.0390269" lon="2.19086"><ele>697.0</ele><time>2026-05-03T08:53:44.235Z</time></trkpt><trkpt lat="42.0390739" lon="2.1910289"><ele>702.0</ele><time>2026-05-03T08:53:45.234Z</time></trkpt><trkpt lat="42.03918" lon="2.1911809"><ele>707.0</ele><time>2026-05-03T08:53:46.235Z</time></trkpt><trkpt lat="42.0393468" lon="2.1913359"><ele>697.0</ele><time>2026-05-03T08:53:47.234Z</time></trkpt><trkpt lat="42.0395558" lon="2.1915103"><ele>687.0</ele><time>2026-05-03T08:53:48.235Z</time></trkpt><trkpt lat="42.0397208" lon="2.1916645"><ele>677.0</ele><time>2026-05-03T08:53:49.235Z</time></trkpt><trkpt lat="42.0398663" lon="2.1918166"><ele>669.6666666666666</ele><time>2026-05-03T08:53:50.234Z</time></trkpt><trkpt lat="42.0399687" lon="2.1919828"><ele>662.3333333333334</ele><time>2026-05-03T08:53:51.235Z</time></trkpt><trkpt lat="42.0400391" lon="2.1921546"><ele>655.0</ele><time>2026-05-03T08:53:52.234Z</time></trkpt><trkpt lat="42.0400833" lon="2.1923649"><ele>655.0</ele><time>2026-05-03T08:53:53.235Z</time></trkpt><trkpt lat="42.0400894" lon="2.1926297"><ele>655.0</ele><time>2026-05-03T08:53:54.234Z</time></trkpt><trkpt lat="42.0400851" lon="2.1929368"><ele>655.0</ele><time>2026-05-03T08:53:55.235Z</time></trkpt><trkpt lat="42.0400716" lon="2.1932059"><ele>655.0</ele><time>2026-05-03T08:53:56.235Z</time></trkpt><trkpt lat="42.0400257" lon="2.1934887"><ele>655.0</ele><time>2026-05-03T08:53:57.234Z</time></trkpt><trkpt lat="42.0399489" lon="2.19378"><ele>655.0</ele><time>2026-05-03T08:53:58.235Z</time></trkpt><trkpt lat="42.039887" lon="2.1940165"><ele>656.3333333333334</ele><time>2026-05-03T08:53:59.235Z</time></trkpt><trkpt lat="42.0398605" lon="2.1942337"><ele>657.6666666666666</ele><time>2026-05-03T08:54:00.234Z</time></trkpt><trkpt lat="42.0399007" lon="2.1944499"><ele>659.0</ele><time>2026-05-03T08:54:01.235Z</time></trkpt><trkpt lat="42.0399849" lon="2.1946681"><ele>656.6666666666666</ele><time>2026-05-03T08:54:02.234Z</time></trkpt><trkpt lat="42.0400484" lon="2.1948758"><ele>654.3333333333334</ele><time>2026-05-03T08:54:03.235Z</time></trkpt><trkpt lat="42.0400772" lon="2.1951068"><ele>652.0</ele><time>2026-05-03T08:54:04.234Z</time></trkpt><trkpt lat="42.0400933" lon="2.1953344"><ele>652.0</ele><time>2026-05-03T08:54:05.234Z</time></trkpt><trkpt lat="42.0400974" lon="2.1955469"><ele>652.0</ele><time>2026-05-03T08:54:06.235Z</time></trkpt><trkpt lat="42.0400602" lon="2.1957991"><ele>652.0</ele><time>2026-05-03T08:54:07.235Z</time></trkpt><trkpt lat="42.0400297" lon="2.1960515"><ele>650.5</ele><time>2026-05-03T08:54:08.235Z</time></trkpt><trkpt lat="42.0399715" lon="2.1963534"><ele>649.0</ele><time>2026-05-03T08:54:09.234Z</time></trkpt><trkpt lat="42.0398446" lon="2.1966425"><ele>643.3333333333334</ele><time>2026-05-03T08:54:10.234Z</time></trkpt><trkpt lat="42.0397322" lon="2.1968838"><ele>637.6666666666666</ele><time>2026-05-03T08:54:11.235Z</time></trkpt><trkpt lat="42.0396797" lon="2.1970232"><ele>632.0</ele><time>2026-05-03T08:54:12.235Z</time></trkpt><trkpt lat="42.0395766" lon="2.1971276"><ele>632.0</ele><time>2026-05-03T08:54:13.234Z</time></trkpt><trkpt lat="42.0394907" lon="2.1971316"><ele>632.0</ele><time>2026-05-03T08:54:14.235Z</time></trkpt><trkpt lat="42.0394071" lon="2.1970575"><ele>632.0</ele><time>2026-05-03T08:54:15.234Z</time></trkpt><trkpt lat="42.0393001" lon="2.1969143"><ele>632.0</ele><time>2026-05-03T08:54:16.235Z</time></trkpt><trkpt lat="42.0391805" lon="2.1967135"><ele>633.6666666666666</ele><time>2026-05-03T08:54:17.235Z</time></trkpt><trkpt lat="42.0390649" lon="2.1964736"><ele>635.3333333333334</ele><time>2026-05-03T08:54:18.235Z</time></trkpt><trkpt lat="42.0389805" lon="2.1961915"><ele>637.0</ele><time>2026-05-03T08:54:19.234Z</time></trkpt><trkpt lat="42.0388823" lon="2.1958944"><ele>639.3333333333334</ele><time>2026-05-03T08:54:20.235Z</time></trkpt><trkpt lat="42.0387724" lon="2.1956585"><ele>641.6666666666666</ele><time>2026-05-03T08:54:21.235Z</time></trkpt><trkpt lat="42.0386748" lon="2.1954822"><ele>644.0</ele><time>2026-05-03T08:54:22.234Z</time></trkpt><trkpt lat="42.038585" lon="2.1953636"><ele>644.0</ele><time>2026-05-03T08:54:23.235Z</time></trkpt><trkpt lat="42.0384889" lon="2.1953277"><ele>644.0</ele><time>2026-05-03T08:54:24.235Z</time></trkpt><trkpt lat="42.038389" lon="2.1953454"><ele>644.0</ele><time>2026-05-03T08:54:25.235Z</time></trkpt><trkpt lat="42.0383011" lon="2.1954182"><ele>644.0</ele><time>2026-05-03T08:54:26.235Z</time></trkpt><trkpt lat="42.0382511" lon="2.1955625"><ele>644.0</ele><time>2026-05-03T08:54:27.235Z</time></trkpt><trkpt lat="42.0381708" lon="2.1957386"><ele>644.5</ele><time>2026-05-03T08:54:28.235Z</time></trkpt><trkpt lat="42.0382003" lon="2.1962214"><ele>645.0</ele><time>2026-05-03T08:54:29.234Z</time></trkpt><trkpt lat="42.0381745" lon="2.1964789"><ele>640.0</ele><time>2026-05-03T08:54:30.235Z</time></trkpt><trkpt lat="42.0382064" lon="2.1967543"><ele>635.0</ele><time>2026-05-03T08:54:31.235Z</time></trkpt><trkpt lat="42.0382485" lon="2.1969708"><ele>630.0</ele><time>2026-05-03T08:54:32.235Z</time></trkpt><trkpt lat="42.0382628" lon="2.1971493"><ele>630.0</ele><time>2026-05-03T08:54:33.235Z</time></trkpt><trkpt lat="42.0382366" lon="2.1972933"><ele>630.0</ele><time>2026-05-03T08:54:34.234Z</time></trkpt><trkpt lat="42.0381501" lon="2.1973853"><ele>630.0</ele><time>2026-05-03T08:54:35.235Z</time></trkpt><trkpt lat="42.0380504" lon="2.1974025"><ele>630.0</ele><time>2026-05-03T08:54:36.235Z</time></trkpt><trkpt lat="42.0379249" lon="2.1973464"><ele>630.0</ele><time>2026-05-03T08:54:37.235Z</time></trkpt><trkpt lat="42.0377769" lon="2.1972329"><ele>630.0</ele><time>2026-05-03T08:54:38.235Z</time></trkpt><trkpt lat="42.0376629" lon="2.1971126"><ele>630.0</ele><time>2026-05-03T08:54:39.235Z</time></trkpt><trkpt lat="42.0375891" lon="2.1969665"><ele>630.0</ele><time>2026-05-03T08:54:40.234Z</time></trkpt><trkpt lat="42.0375443" lon="2.1967693"><ele>630.0</ele><time>2026-05-03T08:54:41.235Z</time></trkpt><trkpt lat="42.0374966" lon="2.1965881"><ele>630.0</ele><time>2026-05-03T08:54:42.234Z</time></trkpt><trkpt lat="42.0374074" lon="2.1964372"><ele>630.0</ele><time>2026-05-03T08:54:43.235Z</time></trkpt><trkpt lat="42.0372849" lon="2.1963636"><ele>630.0</ele><time>2026-05-03T08:54:44.235Z</time></trkpt><trkpt lat="42.0371603" lon="2.1963358"><ele>631.25</ele><time>2026-05-03T08:54:45.234Z</time></trkpt><trkpt lat="42.0370404" lon="2.1963673"><ele>632.5</ele><time>2026-05-03T08:54:46.235Z</time></trkpt><trkpt lat="42.0369427" lon="2.1964808"><ele>633.75</ele><time>2026-05-03T08:54:47.234Z</time></trkpt><trkpt lat="42.0368709" lon="2.1966287"><ele>635.0</ele><time>2026-05-03T08:54:48.235Z</time></trkpt><trkpt lat="42.0368442" lon="2.1967891"><ele>635.0</ele><time>2026-05-03T08:54:49.235Z</time></trkpt><trkpt lat="42.0368703" lon="2.1969693"><ele>635.0</ele><time>2026-05-03T08:54:50.235Z</time></trkpt><trkpt lat="42.0369645" lon="2.1971591"><ele>635.0</ele><time>2026-05-03T08:54:51.235Z</time></trkpt><trkpt lat="42.0370692" lon="2.1973987"><ele>638.5</ele><time>2026-05-03T08:54:52.235Z</time></trkpt><trkpt lat="42.0371777" lon="2.1977185"><ele>642.0</ele><time>2026-05-03T08:54:53.235Z</time></trkpt><trkpt lat="42.0373021" lon="2.198069"><ele>639.5</ele><time>2026-05-03T08:54:54.234Z</time></trkpt><trkpt lat="42.0374556" lon="2.1984428"><ele>637.0</ele><time>2026-05-03T08:54:55.235Z</time></trkpt><trkpt lat="42.0375882" lon="2.1987566"><ele>633.0</ele><time>2026-05-03T08:54:56.234Z</time></trkpt><trkpt lat="42.0376982" lon="2.1990155"><ele>629.0</ele><time>2026-05-03T08:54:57.235Z</time></trkpt><trkpt lat="42.0377823" lon="2.1992204"><ele>625.0</ele><time>2026-05-03T08:54:58.235Z</time></trkpt><trkpt lat="42.0378347" lon="2.1994037"><ele>625.0</ele><time>2026-05-03T08:54:59.234Z</time></trkpt><trkpt lat="42.037836" lon="2.1995929"><ele>625.0</ele><time>2026-05-03T08:55:00.235Z</time></trkpt><trkpt lat="42.0377743" lon="2.1997958"><ele>625.0</ele><time>2026-05-03T08:55:01.235Z</time></trkpt><trkpt lat="42.037675" lon="2.1999916"><ele>624.6666666666667</ele><time>2026-05-03T08:55:02.235Z</time></trkpt><trkpt lat="42.0375455" lon="2.2001792"><ele>624.3333333333334</ele><time>2026-05-03T08:55:03.235Z</time></trkpt><trkpt lat="42.037388" lon="2.2003662"><ele>624.0</ele><time>2026-05-03T08:55:04.235Z</time></trkpt><trkpt lat="42.0372245" lon="2.2005269"><ele>626.3333333333334</ele><time>2026-05-03T08:55:05.235Z</time></trkpt><trkpt lat="42.0370737" lon="2.2006547"><ele>628.6666666666667</ele><time>2026-05-03T08:55:06.234Z</time></trkpt><trkpt lat="42.0369315" lon="2.2007309"><ele>631.0</ele><time>2026-05-03T08:55:07.234Z</time></trkpt><trkpt lat="42.0368056" lon="2.2007668"><ele>628.6666666666667</ele><time>2026-05-03T08:55:08.235Z</time></trkpt><trkpt lat="42.0366787" lon="2.2007418"><ele>626.3333333333334</ele><time>2026-05-03T08:55:09.234Z</time></trkpt><trkpt lat="42.0365077" lon="2.2006619"><ele>624.0</ele><time>2026-05-03T08:55:10.235Z</time></trkpt><trkpt lat="42.0362833" lon="2.2005251"><ele>624.0</ele><time>2026-05-03T08:55:11.234Z</time></trkpt><trkpt lat="42.0360441" lon="2.2003859"><ele>624.0</ele><time>2026-05-03T08:55:12.235Z</time></trkpt><trkpt lat="42.0358241" lon="2.2002576"><ele>622.6666666666666</ele><time>2026-05-03T08:55:13.234Z</time></trkpt><trkpt lat="42.0356185" lon="2.2001368"><ele>621.3333333333333</ele><time>2026-05-03T08:55:14.235Z</time></trkpt><trkpt lat="42.0354259" lon="2.200047"><ele>620.0</ele><time>2026-05-03T08:55:15.235Z</time></trkpt><trkpt lat="42.0352612" lon="2.1999902"><ele>620.0</ele><time>2026-05-03T08:55:16.234Z</time></trkpt><trkpt lat="42.0351341" lon="2.1999626"><ele>620.0</ele><time>2026-05-03T08:55:17.235Z</time></trkpt><trkpt lat="42.0350316" lon="2.1999831"><ele>620.0</ele><time>2026-05-03T08:55:18.234Z</time></trkpt><trkpt lat="42.0349442" lon="2.2000676"><ele>620.0</ele><time>2026-05-03T08:55:19.235Z</time></trkpt><trkpt lat="42.0348738" lon="2.2001951"><ele>622.0</ele><time>2026-05-03T08:55:20.235Z</time></trkpt><trkpt lat="42.0348575" lon="2.200313"><ele>624.0</ele><time>2026-05-03T08:55:21.235Z</time></trkpt><trkpt lat="42.0348876" lon="2.2004743"><ele>626.0</ele><time>2026-05-03T08:55:22.235Z</time></trkpt><trkpt lat="42.0349166" lon="2.2006115"><ele>628.0</ele><time>2026-05-03T08:55:23.234Z</time></trkpt><trkpt lat="42.0348984" lon="2.20074"><ele>630.0</ele><time>2026-05-03T08:55:24.234Z</time></trkpt><trkpt lat="42.0348315" lon="2.2008791"><ele>630.0</ele><time>2026-05-03T08:55:25.235Z</time></trkpt><trkpt lat="42.0347712" lon="2.200985"><ele>630.0</ele><time>2026-05-03T08:55:26.234Z</time></trkpt><trkpt lat="42.0347541" lon="2.2011091"><ele>630.0</ele><time>2026-05-03T08:55:27.235Z</time></trkpt><trkpt lat="42.0348106" lon="2.201244"><ele>630.0</ele><time>2026-05-03T08:55:28.234Z</time></trkpt><trkpt lat="42.0349067" lon="2.2014046"><ele>625.6666666666666</ele><time>2026-05-03T08:55:29.235Z</time></trkpt><trkpt lat="42.0350143" lon="2.2015862"><ele>621.3333333333333</ele><time>2026-05-03T08:55:30.234Z</time></trkpt><trkpt lat="42.0350819" lon="2.2017487"><ele>617.0</ele><time>2026-05-03T08:55:31.235Z</time></trkpt><trkpt lat="42.0351186" lon="2.2019312"><ele>617.0</ele><time>2026-05-03T08:55:32.235Z</time></trkpt><trkpt lat="42.0351388" lon="2.2021537"><ele>617.0</ele><time>2026-05-03T08:55:33.235Z</time></trkpt><trkpt lat="42.0351359" lon="2.2024082"><ele>617.0</ele><time>2026-05-03T08:55:34.234Z</time></trkpt><trkpt lat="42.0351161" lon="2.2026222"><ele>617.0</ele><time>2026-05-03T08:55:35.234Z</time></trkpt><trkpt lat="42.035078" lon="2.202789"><ele>617.0</ele><time>2026-05-03T08:55:36.234Z</time></trkpt><trkpt lat="42.0349953" lon="2.2029191"><ele>617.0</ele><time>2026-05-03T08:55:37.235Z</time></trkpt><trkpt lat="42.0348572" lon="2.2030476"><ele>617.0</ele><time>2026-05-03T08:55:38.234Z</time></trkpt><trkpt lat="42.0346606" lon="2.2032045"><ele>618.5</ele><time>2026-05-03T08:55:39.235Z</time></trkpt><trkpt lat="42.0344536" lon="2.2034134"><ele>620.0</ele><time>2026-05-03T08:55:40.235Z</time></trkpt><trkpt lat="42.0342328" lon="2.2036764"><ele>621.5</ele><time>2026-05-03T08:55:41.235Z</time></trkpt><trkpt lat="42.0340159" lon="2.2039522"><ele>623.0</ele><time>2026-05-03T08:55:42.234Z</time></trkpt><trkpt lat="42.0338276" lon="2.2041998"><ele>623.0</ele><time>2026-05-03T08:55:43.235Z</time></trkpt><trkpt lat="42.0336506" lon="2.2044154"><ele>623.0</ele><time>2026-05-03T08:55:44.234Z</time></trkpt><trkpt lat="42.0334595" lon="2.2045963"><ele>623.5</ele><time>2026-05-03T08:55:45.235Z</time></trkpt><trkpt lat="42.0332115" lon="2.2047855"><ele>624.0</ele><time>2026-05-03T08:55:46.234Z</time></trkpt><trkpt lat="42.0329395" lon="2.2049896"><ele>623.0</ele><time>2026-05-03T08:55:47.235Z</time></trkpt><trkpt lat="42.0326617" lon="2.2051914"><ele>622.0</ele><time>2026-05-03T08:55:48.235Z</time></trkpt><trkpt lat="42.0324374" lon="2.2053547"><ele>623.0</ele><time>2026-05-03T08:55:49.234Z</time></trkpt><trkpt lat="42.0322524" lon="2.2054991"><ele>624.0</ele><time>2026-05-03T08:55:50.235Z</time></trkpt><trkpt lat="42.0320977" lon="2.2056824"><ele>625.0</ele><time>2026-05-03T08:55:51.234Z</time></trkpt><trkpt lat="42.0319665" lon="2.2059434"><ele>625.0</ele><time>2026-05-03T08:55:52.235Z</time></trkpt><trkpt lat="42.0318463" lon="2.2062434"><ele>625.0</ele><time>2026-05-03T08:55:53.234Z</time></trkpt><trkpt lat="42.0317461" lon="2.2065028"><ele>624.0</ele><time>2026-05-03T08:55:54.235Z</time></trkpt><trkpt lat="42.03166" lon="2.2067384"><ele>623.0</ele><time>2026-05-03T08:55:55.235Z</time></trkpt><trkpt lat="42.0315834" lon="2.2069246"><ele>622.0</ele><time>2026-05-03T08:55:56.234Z</time></trkpt><trkpt lat="42.031478" lon="2.2070607"><ele>624.6666666666667</ele><time>2026-05-03T08:55:57.235Z</time></trkpt><trkpt lat="42.0313283" lon="2.2071565"><ele>627.3333333333334</ele><time>2026-05-03T08:55:58.235Z</time></trkpt><trkpt lat="42.031132" lon="2.2072297"><ele>630.0</ele><time>2026-05-03T08:55:59.235Z</time></trkpt><trkpt lat="42.0309551" lon="2.2072745"><ele>630.0</ele><time>2026-05-03T08:56:00.235Z</time></trkpt><trkpt lat="42.0307899" lon="2.2072652"><ele>630.0</ele><time>2026-05-03T08:56:01.235Z</time></trkpt><trkpt lat="42.0306517" lon="2.2072285"><ele>630.0</ele><time>2026-05-03T08:56:02.234Z</time></trkpt><trkpt lat="42.0305347" lon="2.2072351"><ele>630.0</ele><time>2026-05-03T08:56:03.235Z</time></trkpt><trkpt lat="42.0304368" lon="2.207309"><ele>628.6666666666666</ele><time>2026-05-03T08:56:04.234Z</time></trkpt><trkpt lat="42.0303279" lon="2.2073937"><ele>627.3333333333333</ele><time>2026-05-03T08:56:05.234Z</time></trkpt><trkpt lat="42.0303264" lon="2.2076579"><ele>626.0</ele><time>2026-05-03T08:56:06.234Z</time></trkpt><trkpt lat="42.0302636" lon="2.2078104"><ele>626.0</ele><time>2026-05-03T08:56:07.234Z</time></trkpt><trkpt lat="42.0301515" lon="2.2079576"><ele>626.0</ele><time>2026-05-03T08:56:08.234Z</time></trkpt><trkpt lat="42.0299861" lon="2.2081316"><ele>626.0</ele><time>2026-05-03T08:56:09.234Z</time></trkpt><trkpt lat="42.029778" lon="2.2083277"><ele>625.5</ele><time>2026-05-03T08:56:10.235Z</time></trkpt><trkpt lat="42.0295604" lon="2.2085242"><ele>625.0</ele><time>2026-05-03T08:56:11.234Z</time></trkpt><trkpt lat="42.0293741" lon="2.2087113"><ele>625.0</ele><time>2026-05-03T08:56:12.235Z</time></trkpt><trkpt lat="42.0291832" lon="2.2089538"><ele>625.0</ele><time>2026-05-03T08:56:13.235Z</time></trkpt><trkpt lat="42.0290019" lon="2.209246"><ele>626.0</ele><time>2026-05-03T08:56:14.235Z</time></trkpt><trkpt lat="42.028814" lon="2.209572"><ele>627.0</ele><time>2026-05-03T08:56:15.234Z</time></trkpt><trkpt lat="42.0286154" lon="2.2099119"><ele>627.0</ele><time>2026-05-03T08:56:16.235Z</time></trkpt><trkpt lat="42.0284355" lon="2.2102206"><ele>627.0</ele><time>2026-05-03T08:56:17.234Z</time></trkpt><trkpt lat="42.0282802" lon="2.2105049"><ele>628.6666666666666</ele><time>2026-05-03T08:56:18.235Z</time></trkpt><trkpt lat="42.0281615" lon="2.210759"><ele>630.3333333333333</ele><time>2026-05-03T08:56:19.235Z</time></trkpt><trkpt lat="42.0280654" lon="2.2109894"><ele>632.0</ele><time>2026-05-03T08:56:20.234Z</time></trkpt><trkpt lat="42.027986" lon="2.2111957"><ele>632.0</ele><time>2026-05-03T08:56:21.234Z</time></trkpt><trkpt lat="42.0279147" lon="2.211377"><ele>632.0</ele><time>2026-05-03T08:56:22.235Z</time></trkpt><trkpt lat="42.0278483" lon="2.2115348"><ele>632.0</ele><time>2026-05-03T08:56:23.235Z</time></trkpt><trkpt lat="42.0277693" lon="2.2116649"><ele>632.0</ele><time>2026-05-03T08:56:24.235Z</time></trkpt><trkpt lat="42.027664" lon="2.2117676"><ele>632.3333333333333</ele><time>2026-05-03T08:56:25.235Z</time></trkpt><trkpt lat="42.0275157" lon="2.2118418"><ele>632.6666666666666</ele><time>2026-05-03T08:56:26.235Z</time></trkpt><trkpt lat="42.0273417" lon="2.2118922"><ele>633.0</ele><time>2026-05-03T08:56:27.234Z</time></trkpt><trkpt lat="42.0271922" lon="2.2119333"><ele>633.0</ele><time>2026-05-03T08:56:28.235Z</time></trkpt><trkpt lat="42.0270866" lon="2.2120057"><ele>633.0</ele><time>2026-05-03T08:56:29.235Z</time></trkpt><trkpt lat="42.0269741" lon="2.2120899"><ele>633.0</ele><time>2026-05-03T08:56:30.235Z</time></trkpt><trkpt lat="42.0268676" lon="2.2122158"><ele>633.0</ele><time>2026-05-03T08:56:31.235Z</time></trkpt><trkpt lat="42.0268443" lon="2.2124829"><ele>632.0</ele><time>2026-05-03T08:56:32.235Z</time></trkpt><trkpt lat="42.0269851" lon="2.2128986"><ele>631.0</ele><time>2026-05-03T08:56:33.235Z</time></trkpt><trkpt lat="42.0269869" lon="2.2131479"><ele>631.0</ele><time>2026-05-03T08:56:34.235Z</time></trkpt><trkpt lat="42.0269467" lon="2.2133367"><ele>631.0</ele><time>2026-05-03T08:56:35.235Z</time></trkpt><trkpt lat="42.0268397" lon="2.2135077"><ele>631.0</ele><time>2026-05-03T08:56:36.234Z</time></trkpt><trkpt lat="42.0267014" lon="2.2136439"><ele>633.0</ele><time>2026-05-03T08:56:37.235Z</time></trkpt><trkpt lat="42.0266121" lon="2.2137858"><ele>635.0</ele><time>2026-05-03T08:56:38.235Z</time></trkpt><trkpt lat="42.0265485" lon="2.2140011"><ele>637.0</ele><time>2026-05-03T08:56:39.235Z</time></trkpt><trkpt lat="42.0265129" lon="2.2142714"><ele>637.0</ele><time>2026-05-03T08:56:40.235Z</time></trkpt><trkpt lat="42.0264384" lon="2.2145076"><ele>637.0</ele><time>2026-05-03T08:56:41.235Z</time></trkpt><trkpt lat="42.0263397" lon="2.214724"><ele>637.0</ele><time>2026-05-03T08:56:42.235Z</time></trkpt><trkpt lat="42.0262752" lon="2.2149628"><ele>635.3333333333334</ele><time>2026-05-03T08:56:43.235Z</time></trkpt><trkpt lat="42.0262669" lon="2.2152417"><ele>633.6666666666666</ele><time>2026-05-03T08:56:44.235Z</time></trkpt><trkpt lat="42.0262933" lon="2.2155584"><ele>632.0</ele><time>2026-05-03T08:56:45.235Z</time></trkpt><trkpt lat="42.0262998" lon="2.2158755"><ele>631.5</ele><time>2026-05-03T08:56:46.235Z</time></trkpt><trkpt lat="42.0262484" lon="2.2162119"><ele>631.0</ele><time>2026-05-03T08:56:47.234Z</time></trkpt><trkpt lat="42.026171" lon="2.2165879"><ele>631.0</ele><time>2026-05-03T08:56:48.235Z</time></trkpt><trkpt lat="42.0260863" lon="2.2169719"><ele>631.0</ele><time>2026-05-03T08:56:49.234Z</time></trkpt><trkpt lat="42.0260064" lon="2.2172932"><ele>632.0</ele><time>2026-05-03T08:56:50.235Z</time></trkpt><trkpt lat="42.0259176" lon="2.2175793"><ele>633.0</ele><time>2026-05-03T08:56:51.235Z</time></trkpt><trkpt lat="42.0257954" lon="2.2178301"><ele>633.0</ele><time>2026-05-03T08:56:52.235Z</time></trkpt><trkpt lat="42.0256241" lon="2.2180772"><ele>633.0</ele><time>2026-05-03T08:56:53.234Z</time></trkpt><trkpt lat="42.025418" lon="2.218346"><ele>634.5</ele><time>2026-05-03T08:56:54.235Z</time></trkpt><trkpt lat="42.0252018" lon="2.2186362"><ele>636.0</ele><time>2026-05-03T08:56:55.235Z</time></trkpt><trkpt lat="42.0250095" lon="2.2189317"><ele>637.5</ele><time>2026-05-03T08:56:56.235Z</time></trkpt><trkpt lat="42.0248432" lon="2.2192345"><ele>639.0</ele><time>2026-05-03T08:56:57.235Z</time></trkpt><trkpt lat="42.0246961" lon="2.2194872"><ele>639.0</ele><time>2026-05-03T08:56:58.235Z</time></trkpt><trkpt lat="42.024549" lon="2.2196958"><ele>639.0</ele><time>2026-05-03T08:56:59.235Z</time></trkpt><trkpt lat="42.0243715" lon="2.2198634"><ele>639.0</ele><time>2026-05-03T08:57:00.235Z</time></trkpt><trkpt lat="42.0242088" lon="2.2199952"><ele>642.0</ele><time>2026-05-03T08:57:01.234Z</time></trkpt><trkpt lat="42.0240696" lon="2.2201344"><ele>645.0</ele><time>2026-05-03T08:57:02.235Z</time></trkpt><trkpt lat="42.0239573" lon="2.2203312"><ele>648.0</ele><time>2026-05-03T08:57:03.234Z</time></trkpt><trkpt lat="42.0238554" lon="2.2205229"><ele>648.6666666666666</ele><time>2026-05-03T08:57:04.234Z</time></trkpt><trkpt lat="42.0237873" lon="2.2207272"><ele>649.3333333333333</ele><time>2026-05-03T08:57:05.235Z</time></trkpt><trkpt lat="42.0237195" lon="2.2209113"><ele>650.0</ele><time>2026-05-03T08:57:06.235Z</time></trkpt><trkpt lat="42.0236669" lon="2.2211056"><ele>650.0</ele><time>2026-05-03T08:57:07.235Z</time></trkpt><trkpt lat="42.0236342" lon="2.2213222"><ele>650.0</ele><time>2026-05-03T08:57:08.235Z</time></trkpt><trkpt lat="42.023611" lon="2.2215641"><ele>650.0</ele><time>2026-05-03T08:57:09.235Z</time></trkpt><trkpt lat="42.0235912" lon="2.2217846"><ele>650.0</ele><time>2026-05-03T08:57:10.234Z</time></trkpt><trkpt lat="42.0235948" lon="2.2219967"><ele>650.0</ele><time>2026-05-03T08:57:11.234Z</time></trkpt><trkpt lat="42.0236313" lon="2.2222043"><ele>650.0</ele><time>2026-05-03T08:57:12.234Z</time></trkpt><trkpt lat="42.0237223" lon="2.2224123"><ele>649.3333333333333</ele><time>2026-05-03T08:57:13.235Z</time></trkpt><trkpt lat="42.0238498" lon="2.2226449"><ele>648.6666666666666</ele><time>2026-05-03T08:57:14.234Z</time></trkpt><trkpt lat="42.0239994" lon="2.2228853"><ele>648.0</ele><time>2026-05-03T08:57:15.235Z</time></trkpt><trkpt lat="42.0241304" lon="2.2231043"><ele>645.6666666666666</ele><time>2026-05-03T08:57:16.235Z</time></trkpt><trkpt lat="42.0242484" lon="2.2233069"><ele>643.3333333333333</ele><time>2026-05-03T08:57:17.234Z</time></trkpt><trkpt lat="42.0243306" lon="2.2235102"><ele>641.0</ele><time>2026-05-03T08:57:18.234Z</time></trkpt><trkpt lat="42.0243781" lon="2.2237201"><ele>641.0</ele><time>2026-05-03T08:57:19.234Z</time></trkpt><trkpt lat="42.0243829" lon="2.2239494"><ele>641.0</ele><time>2026-05-03T08:57:20.235Z</time></trkpt><trkpt lat="42.0243469" lon="2.2241456"><ele>641.0</ele><time>2026-05-03T08:57:21.234Z</time></trkpt><trkpt lat="42.0243008" lon="2.2243183"><ele>639.6666666666666</ele><time>2026-05-03T08:57:22.235Z</time></trkpt><trkpt lat="42.0242926" lon="2.2245085"><ele>638.3333333333334</ele><time>2026-05-03T08:57:23.234Z</time></trkpt><trkpt lat="42.0243348" lon="2.2247228"><ele>637.0</ele><time>2026-05-03T08:57:24.234Z</time></trkpt><trkpt lat="42.0244022" lon="2.2249824"><ele>635.3333333333334</ele><time>2026-05-03T08:57:25.235Z</time></trkpt><trkpt lat="42.0244459" lon="2.2251951"><ele>633.6666666666666</ele><time>2026-05-03T08:57:26.235Z</time></trkpt><trkpt lat="42.0244563" lon="2.225394"><ele>632.0</ele><time>2026-05-03T08:57:27.235Z</time></trkpt><trkpt lat="42.0244092" lon="2.2255946"><ele>630.5</ele><time>2026-05-03T08:57:28.235Z</time></trkpt><trkpt lat="42.0243364" lon="2.2257517"><ele>629.0</ele><time>2026-05-03T08:57:29.235Z</time></trkpt><trkpt lat="42.0242433" lon="2.2258602"><ele>627.5</ele><time>2026-05-03T08:57:30.235Z</time></trkpt><trkpt lat="42.0241291" lon="2.2259345"><ele>626.0</ele><time>2026-05-03T08:57:31.235Z</time></trkpt><trkpt lat="42.0240398" lon="2.2260182"><ele>622.2</ele><time>2026-05-03T08:57:32.235Z</time></trkpt><trkpt lat="42.0239826" lon="2.2261352"><ele>618.4000000000001</ele><time>2026-05-03T08:57:33.235Z</time></trkpt><trkpt lat="42.0239642" lon="2.2262979"><ele>614.6</ele><time>2026-05-03T08:57:34.235Z</time></trkpt><trkpt lat="42.0239336" lon="2.2264315"><ele>610.8000000000001</ele><time>2026-05-03T08:57:35.235Z</time></trkpt><trkpt lat="42.023869" lon="2.226518"><ele>607.0</ele><time>2026-05-03T08:57:36.235Z</time></trkpt><trkpt lat="42.0237941" lon="2.2265491"><ele>607.0</ele><time>2026-05-03T08:57:37.235Z</time></trkpt><trkpt lat="42.023723" lon="2.2265124"><ele>607.0</ele><time>2026-05-03T08:57:38.235Z</time></trkpt><trkpt lat="42.0236856" lon="2.2264047"><ele>607.0</ele><time>2026-05-03T08:57:39.235Z</time></trkpt><trkpt lat="42.0236836" lon="2.2262296"><ele>607.0</ele><time>2026-05-03T08:57:40.234Z</time></trkpt><trkpt lat="42.0236818" lon="2.2260581"><ele>607.0</ele><time>2026-05-03T08:57:41.235Z</time></trkpt><trkpt lat="42.0236331" lon="2.225924"><ele>607.0</ele><time>2026-05-03T08:57:42.235Z</time></trkpt><trkpt lat="42.0235306" lon="2.2258224"><ele>607.0</ele><time>2026-05-03T08:57:43.235Z</time></trkpt><trkpt lat="42.0234452" lon="2.2257213"><ele>607.0</ele><time>2026-05-03T08:57:44.235Z</time></trkpt><trkpt lat="42.023399" lon="2.2255539"><ele>607.0</ele><time>2026-05-03T08:57:45.234Z</time></trkpt><trkpt lat="42.0233686" lon="2.2253144"><ele>609.75</ele><time>2026-05-03T08:57:46.234Z</time></trkpt><trkpt lat="42.0233474" lon="2.2250871"><ele>612.5</ele><time>2026-05-03T08:57:47.234Z</time></trkpt><trkpt lat="42.0233193" lon="2.2249023"><ele>615.25</ele><time>2026-05-03T08:57:48.234Z</time></trkpt><trkpt lat="42.0232694" lon="2.2247656"><ele>618.0</ele><time>2026-05-03T08:57:49.234Z</time></trkpt><trkpt lat="42.0232273" lon="2.2246341"><ele>621.0</ele><time>2026-05-03T08:57:50.235Z</time></trkpt><trkpt lat="42.0231445" lon="2.224571"><ele>624.0</ele><time>2026-05-03T08:57:51.234Z</time></trkpt><trkpt lat="42.0230735" lon="2.2245376"><ele>627.0</ele><time>2026-05-03T08:57:52.235Z</time></trkpt><trkpt lat="42.0230137" lon="2.2246671"><ele>630.0</ele><time>2026-05-03T08:57:53.234Z</time></trkpt><trkpt lat="42.0228954" lon="2.2248721"><ele>630.0</ele><time>2026-05-03T08:57:54.235Z</time></trkpt><trkpt lat="42.0228166" lon="2.2253752"><ele>630.0</ele><time>2026-05-03T08:57:55.235Z</time></trkpt><trkpt lat="42.0227224" lon="2.2256295"><ele>626.3333333333334</ele><time>2026-05-03T08:57:56.234Z</time></trkpt><trkpt lat="42.0226123" lon="2.2258432"><ele>622.6666666666667</ele><time>2026-05-03T08:57:57.235Z</time></trkpt><trkpt lat="42.0224974" lon="2.2260289"><ele>619.0</ele><time>2026-05-03T08:57:58.234Z</time></trkpt><trkpt lat="42.0223853" lon="2.2262246"><ele>623.0</ele><time>2026-05-03T08:57:59.235Z</time></trkpt><trkpt lat="42.0222898" lon="2.2264711"><ele>627.0</ele><time>2026-05-03T08:58:00.235Z</time></trkpt><trkpt lat="42.022221" lon="2.2266773"><ele>631.0</ele><time>2026-05-03T08:58:01.235Z</time></trkpt><trkpt lat="42.0221558" lon="2.2268471"><ele>631.0</ele><time>2026-05-03T08:58:02.235Z</time></trkpt><trkpt lat="42.0220635" lon="2.2269749"><ele>631.0</ele><time>2026-05-03T08:58:03.234Z</time></trkpt><trkpt lat="42.0219442" lon="2.2270874"><ele>631.0</ele><time>2026-05-03T08:58:04.235Z</time></trkpt><trkpt lat="42.0218734" lon="2.2272224"><ele>631.0</ele><time>2026-05-03T08:58:05.234Z</time></trkpt><trkpt lat="42.0217974" lon="2.2273634"><ele>627.25</ele><time>2026-05-03T08:58:06.234Z</time></trkpt><trkpt lat="42.0218255" lon="2.2275607"><ele>623.5</ele><time>2026-05-03T08:58:07.234Z</time></trkpt><trkpt lat="42.021784" lon="2.227744"><ele>619.75</ele><time>2026-05-03T08:58:08.235Z</time></trkpt><trkpt lat="42.0217794" lon="2.2279412"><ele>616.0</ele><time>2026-05-03T08:58:09.235Z</time></trkpt><trkpt lat="42.0217747" lon="2.2281292"><ele>613.0</ele><time>2026-05-03T08:58:10.235Z</time></trkpt><trkpt lat="42.0217327" lon="2.2282828"><ele>610.0</ele><time>2026-05-03T08:58:11.235Z</time></trkpt><trkpt lat="42.021658" lon="2.2284185"><ele>607.0</ele><time>2026-05-03T08:58:12.235Z</time></trkpt><trkpt lat="42.0215657" lon="2.2285639"><ele>604.0</ele><time>2026-05-03T08:58:13.234Z</time></trkpt><trkpt lat="42.0215277" lon="2.2287267"><ele>608.25</ele><time>2026-05-03T08:58:14.235Z</time></trkpt><trkpt lat="42.0215233" lon="2.2288933"><ele>612.5</ele><time>2026-05-03T08:58:15.235Z</time></trkpt><trkpt lat="42.0215017" lon="2.2290265"><ele>616.75</ele><time>2026-05-03T08:58:16.235Z</time></trkpt><trkpt lat="42.0214335" lon="2.2291302"><ele>621.0</ele><time>2026-05-03T08:58:17.235Z</time></trkpt><trkpt lat="42.0213143" lon="2.2292464"><ele>621.0</ele><time>2026-05-03T08:58:18.234Z</time></trkpt><trkpt lat="42.0212015" lon="2.2294098"><ele>621.0</ele><time>2026-05-03T08:58:19.235Z</time></trkpt><trkpt lat="42.0211265" lon="2.2296099"><ele>621.0</ele><time>2026-05-03T08:58:20.234Z</time></trkpt><trkpt lat="42.0210802" lon="2.2298275"><ele>618.25</ele><time>2026-05-03T08:58:21.235Z</time></trkpt><trkpt lat="42.0210507" lon="2.2300174"><ele>615.5</ele><time>2026-05-03T08:58:22.234Z</time></trkpt><trkpt lat="42.0209997" lon="2.2301531"><ele>612.75</ele><time>2026-05-03T08:58:23.235Z</time></trkpt><trkpt lat="42.0209025" lon="2.230248"><ele>610.0</ele><time>2026-05-03T08:58:24.235Z</time></trkpt><trkpt lat="42.0207936" lon="2.2303826"><ele>610.0</ele><time>2026-05-03T08:58:25.234Z</time></trkpt><trkpt lat="42.0207187" lon="2.2305845"><ele>610.0</ele><time>2026-05-03T08:58:26.235Z</time></trkpt><trkpt lat="42.0206631" lon="2.2308499"><ele>610.0</ele><time>2026-05-03T08:58:27.235Z</time></trkpt><trkpt lat="42.0206154" lon="2.231146"><ele>603.6666666666667</ele><time>2026-05-03T08:58:28.235Z</time></trkpt><trkpt lat="42.0205669" lon="2.2314122"><ele>597.3333333333334</ele><time>2026-05-03T08:58:29.235Z</time></trkpt><trkpt lat="42.0205087" lon="2.2316469"><ele>591.0</ele><time>2026-05-03T08:58:30.235Z</time></trkpt><trkpt lat="42.0204236" lon="2.2318301"><ele>586.5</ele><time>2026-05-03T08:58:31.235Z</time></trkpt><trkpt lat="42.0203265" lon="2.2319705"><ele>582.0</ele><time>2026-05-03T08:58:32.235Z</time></trkpt><trkpt lat="42.0202204" lon="2.2320698"><ele>577.5</ele><time>2026-05-03T08:58:33.235Z</time></trkpt><trkpt lat="42.0201111" lon="2.2321084"><ele>573.0</ele><time>2026-05-03T08:58:34.235Z</time></trkpt><trkpt lat="42.0200021" lon="2.2320736"><ele>570.0</ele><time>2026-05-03T08:58:35.234Z</time></trkpt><trkpt lat="42.0198917" lon="2.2319643"><ele>567.0</ele><time>2026-05-03T08:58:36.234Z</time></trkpt><trkpt lat="42.019782" lon="2.2317714"><ele>564.0</ele><time>2026-05-03T08:58:37.234Z</time></trkpt><trkpt lat="42.0196711" lon="2.2315521"><ele>569.0</ele><time>2026-05-03T08:58:38.235Z</time></trkpt><trkpt lat="42.0195846" lon="2.2313746"><ele>574.0</ele><time>2026-05-03T08:58:39.234Z</time></trkpt><trkpt lat="42.0195031" lon="2.2312385"><ele>579.0</ele><time>2026-05-03T08:58:40.235Z</time></trkpt><trkpt lat="42.019404" lon="2.2311669"><ele>584.0</ele><time>2026-05-03T08:58:41.234Z</time></trkpt><trkpt lat="42.0192848" lon="2.2311789"><ele>586.6666666666666</ele><time>2026-05-03T08:58:42.234Z</time></trkpt><trkpt lat="42.01915" lon="2.2312782"><ele>589.3333333333334</ele><time>2026-05-03T08:58:43.235Z</time></trkpt><trkpt lat="42.0190096" lon="2.2314447"><ele>592.0</ele><time>2026-05-03T08:58:44.235Z</time></trkpt><trkpt lat="42.0188878" lon="2.231649"><ele>592.0</ele><time>2026-05-03T08:58:45.235Z</time></trkpt><trkpt lat="42.0188113" lon="2.2318911"><ele>592.0</ele><time>2026-05-03T08:58:46.235Z</time></trkpt><trkpt lat="42.0187763" lon="2.2321665"><ele>592.0</ele><time>2026-05-03T08:58:47.234Z</time></trkpt><trkpt lat="42.0187568" lon="2.2324112"><ele>587.25</ele><time>2026-05-03T08:58:48.235Z</time></trkpt><trkpt lat="42.0187162" lon="2.2326168"><ele>582.5</ele><time>2026-05-03T08:58:49.234Z</time></trkpt><trkpt lat="42.0186467" lon="2.2327897"><ele>577.75</ele><time>2026-05-03T08:58:50.235Z</time></trkpt><trkpt lat="42.01856" lon="2.2329311"><ele>573.0</ele><time>2026-05-03T08:58:51.235Z</time></trkpt><trkpt lat="42.0184359" lon="2.2330617"><ele>573.5</ele><time>2026-05-03T08:58:52.235Z</time></trkpt><trkpt lat="42.0183202" lon="2.2331665"><ele>574.0</ele><time>2026-05-03T08:58:53.234Z</time></trkpt><trkpt lat="42.0182315" lon="2.2332672"><ele>574.5</ele><time>2026-05-03T08:58:54.235Z</time></trkpt><trkpt lat="42.0181811" lon="2.2333905"><ele>575.0</ele><time>2026-05-03T08:58:55.235Z</time></trkpt><trkpt lat="42.0181807" lon="2.2335144"><ele>575.0</ele><time>2026-05-03T08:58:56.234Z</time></trkpt><trkpt lat="42.0182228" lon="2.2336239"><ele>575.0</ele><time>2026-05-03T08:58:57.235Z</time></trkpt><trkpt lat="42.0183078" lon="2.2336907"><ele>575.0</ele><time>2026-05-03T08:58:58.235Z</time></trkpt><trkpt lat="42.0183929" lon="2.2337198"><ele>575.0</ele><time>2026-05-03T08:58:59.235Z</time></trkpt><trkpt lat="42.0185335" lon="2.2336221"><ele>575.0</ele><time>2026-05-03T08:59:00.234Z</time></trkpt><trkpt lat="42.0186326" lon="2.2334896"><ele>574.5</ele><time>2026-05-03T08:59:01.235Z</time></trkpt><trkpt lat="42.0187415" lon="2.2332904"><ele>574.0</ele><time>2026-05-03T08:59:02.234Z</time></trkpt><trkpt lat="42.0188238" lon="2.2331591"><ele>573.5</ele><time>2026-05-03T08:59:03.234Z</time></trkpt><trkpt lat="42.0189182" lon="2.2330782"><ele>573.0</ele><time>2026-05-03T08:59:04.235Z</time></trkpt><trkpt lat="42.0190081" lon="2.2330641"><ele>573.0</ele><time>2026-05-03T08:59:05.235Z</time></trkpt><trkpt lat="42.0190812" lon="2.2331185"><ele>573.0</ele><time>2026-05-03T08:59:06.235Z</time></trkpt><trkpt lat="42.0191335" lon="2.2332404"><ele>573.0</ele><time>2026-05-03T08:59:07.235Z</time></trkpt><trkpt lat="42.0191544" lon="2.2333772"><ele>573.0</ele><time>2026-05-03T08:59:08.234Z</time></trkpt><trkpt lat="42.0191721" lon="2.2335025"><ele>573.0</ele><time>2026-05-03T08:59:09.235Z</time></trkpt><trkpt lat="42.0191889" lon="2.2336188"><ele>569.6</ele><time>2026-05-03T08:59:10.235Z</time></trkpt><trkpt lat="42.0192033" lon="2.2337327"><ele>566.1999999999999</ele><time>2026-05-03T08:59:11.234Z</time></trkpt><trkpt lat="42.0192176" lon="2.2338468"><ele>562.8</ele><time>2026-05-03T08:59:12.234Z</time></trkpt><trkpt lat="42.0192313" lon="2.2339681"><ele>559.4</ele><time>2026-05-03T08:59:13.235Z</time></trkpt><trkpt lat="42.0192445" lon="2.2340904"><ele>556.0</ele><time>2026-05-03T08:59:14.235Z</time></trkpt><trkpt lat="42.0192588" lon="2.2342176"><ele>554.6</ele><time>2026-05-03T08:59:15.235Z</time></trkpt><trkpt lat="42.019274" lon="2.2343494"><ele>553.2</ele><time>2026-05-03T08:59:16.235Z</time></trkpt><trkpt lat="42.0192868" lon="2.2344877"><ele>551.8</ele><time>2026-05-03T08:59:17.234Z</time></trkpt><trkpt lat="42.0192966" lon="2.2346291"><ele>550.4</ele><time>2026-05-03T08:59:18.235Z</time></trkpt><trkpt lat="42.0192985" lon="2.2347672"><ele>549.0</ele><time>2026-05-03T08:59:19.235Z</time></trkpt><trkpt lat="42.0192897" lon="2.2349017"><ele>548.0</ele><time>2026-05-03T08:59:20.235Z</time></trkpt><trkpt lat="42.0192769" lon="2.2350358"><ele>547.0</ele><time>2026-05-03T08:59:21.235Z</time></trkpt><trkpt lat="42.0192631" lon="2.2351578"><ele>546.0</ele><time>2026-05-03T08:59:22.235Z</time></trkpt><trkpt lat="42.0192381" lon="2.2352707"><ele>545.0</ele><time>2026-05-03T08:59:23.235Z</time></trkpt><trkpt lat="42.0191989" lon="2.2353718"><ele>544.0</ele><time>2026-05-03T08:59:24.234Z</time></trkpt><trkpt lat="42.0191415" lon="2.2354609"><ele>544.0</ele><time>2026-05-03T08:59:25.235Z</time></trkpt><trkpt lat="42.0190699" lon="2.2355396"><ele>544.0</ele><time>2026-05-03T08:59:26.235Z</time></trkpt><trkpt lat="42.0190045" lon="2.2356264"><ele>544.0</ele><time>2026-05-03T08:59:27.234Z</time></trkpt><trkpt lat="42.018961" lon="2.2357344"><ele>544.0</ele><time>2026-05-03T08:59:28.235Z</time></trkpt><trkpt lat="42.0189392" lon="2.235863"><ele>544.0</ele><time>2026-05-03T08:59:29.235Z</time></trkpt><trkpt lat="42.0189417" lon="2.2360005"><ele>542.8333333333334</ele><time>2026-05-03T08:59:30.234Z</time></trkpt><trkpt lat="42.0189489" lon="2.2361342"><ele>541.6666666666667</ele><time>2026-05-03T08:59:31.235Z</time></trkpt><trkpt lat="42.0189539" lon="2.2362627"><ele>540.5</ele><time>2026-05-03T08:59:32.235Z</time></trkpt><trkpt lat="42.0189523" lon="2.2363829"><ele>539.3333333333334</ele><time>2026-05-03T08:59:33.235Z</time></trkpt><trkpt lat="42.0189268" lon="2.2364869"><ele>538.1666666666666</ele><time>2026-05-03T08:59:34.235Z</time></trkpt><trkpt lat="42.0188745" lon="2.2365708"><ele>537.0</ele><time>2026-05-03T08:59:35.234Z</time></trkpt><trkpt lat="42.0188056" lon="2.2366307"><ele>535.4</ele><time>2026-05-03T08:59:36.235Z</time></trkpt><trkpt lat="42.018719" lon="2.2366623"><ele>533.8000000000001</ele><time>2026-05-03T08:59:37.234Z</time></trkpt><trkpt lat="42.0186218" lon="2.236678"><ele>532.2</ele><time>2026-05-03T08:59:38.235Z</time></trkpt><trkpt lat="42.0185165" lon="2.2366839"><ele>530.6</ele><time>2026-05-03T08:59:39.235Z</time></trkpt><trkpt lat="42.018398" lon="2.2366889"><ele>529.0</ele><time>2026-05-03T08:59:40.235Z</time></trkpt><trkpt lat="42.0182795" lon="2.2366909"><ele>529.0</ele><time>2026-05-03T08:59:41.235Z</time></trkpt><trkpt lat="42.0181631" lon="2.2366914"><ele>529.0</ele><time>2026-05-03T08:59:42.235Z</time></trkpt><trkpt lat="42.0180567" lon="2.2366945"><ele>529.0</ele><time>2026-05-03T08:59:43.235Z</time></trkpt><trkpt lat="42.017961" lon="2.2366969"><ele>529.0</ele><time>2026-05-03T08:59:44.235Z</time></trkpt><trkpt lat="42.017892" lon="2.2366996"><ele>529.0</ele><time>2026-05-03T08:59:45.235Z</time></trkpt><trkpt lat="42.0177813" lon="2.2367034"><ele>529.0</ele><time>2026-05-03T08:59:47.235Z</time></trkpt><trkpt lat="42.0176651" lon="2.2367079"><ele>529.0</ele><time>2026-05-03T08:59:49.234Z</time></trkpt><trkpt lat="42.0175935" lon="2.2367071"><ele>529.0</ele><time>2026-05-03T08:59:50.235Z</time></trkpt><trkpt lat="42.0175108" lon="2.2367109"><ele>529.0</ele><time>2026-05-03T08:59:51.235Z</time></trkpt><trkpt lat="42.0174076" lon="2.2367135"><ele>529.0</ele><time>2026-05-03T08:59:52.235Z</time></trkpt><trkpt lat="42.017299" lon="2.2367124"><ele>529.8</ele><time>2026-05-03T08:59:53.235Z</time></trkpt><trkpt lat="42.0172067" lon="2.2367112"><ele>530.5999999999999</ele><time>2026-05-03T08:59:54.235Z</time></trkpt><trkpt lat="42.0171343" lon="2.2367162"><ele>531.4</ele><time>2026-05-03T08:59:55.235Z</time></trkpt><trkpt lat="42.0170339" lon="2.2367156"><ele>532.1999999999999</ele><time>2026-05-03T08:59:57.234Z</time></trkpt><trkpt lat="42.0169165" lon="2.2367174"><ele>533.0</ele><time>2026-05-03T08:59:59.234Z</time></trkpt><trkpt lat="42.0168428" lon="2.2367183"><ele>533.0</ele><time>2026-05-03T09:00:00.235Z</time></trkpt><trkpt lat="42.0167592" lon="2.2367311"><ele>533.0</ele><time>2026-05-03T09:00:01.235Z</time></trkpt><trkpt lat="42.016679" lon="2.2367465"><ele>533.0</ele><time>2026-05-03T09:00:02.235Z</time></trkpt><trkpt lat="42.0166101" lon="2.236766"><ele>533.0</ele><time>2026-05-03T09:00:03.235Z</time></trkpt><trkpt lat="42.0165244" lon="2.2368192"><ele>533.0</ele><time>2026-05-03T09:00:05.235Z</time></trkpt><trkpt lat="42.0164496" lon="2.2369179"><ele>533.0</ele><time>2026-05-03T09:00:07.235Z</time></trkpt><trkpt lat="42.0163877" lon="2.2369877"><ele>533.4</ele><time>2026-05-03T09:00:08.235Z</time></trkpt><trkpt lat="42.0163199" lon="2.2370783"><ele>533.8</ele><time>2026-05-03T09:00:09.235Z</time></trkpt><trkpt lat="42.016253" lon="2.2371833"><ele>534.2</ele><time>2026-05-03T09:00:10.235Z</time></trkpt><trkpt lat="42.0162106" lon="2.2372882"><ele>534.6</ele><time>2026-05-03T09:00:11.235Z</time></trkpt><trkpt lat="42.0161848" lon="2.2373916"><ele>535.0</ele><time>2026-05-03T09:00:12.235Z</time></trkpt><trkpt lat="42.016162" lon="2.2374996"><ele>535.0</ele><time>2026-05-03T09:00:13.234Z</time></trkpt><trkpt lat="42.0161429" lon="2.2376171"><ele>535.0</ele><time>2026-05-03T09:00:14.234Z</time></trkpt><trkpt lat="42.0161311" lon="2.2377397"><ele>535.0</ele><time>2026-05-03T09:00:15.234Z</time></trkpt><trkpt lat="42.0161227" lon="2.237875"><ele>535.0</ele><time>2026-05-03T09:00:16.234Z</time></trkpt><trkpt lat="42.0161137" lon="2.2379986"><ele>535.0</ele><time>2026-05-03T09:00:17.234Z</time></trkpt><trkpt lat="42.0161008" lon="2.2381118"><ele>534.4285714285714</ele><time>2026-05-03T09:00:18.235Z</time></trkpt><trkpt lat="42.0160719" lon="2.2382048"><ele>533.8571428571429</ele><time>2026-05-03T09:00:19.235Z</time></trkpt><trkpt lat="42.0160276" lon="2.2382773"><ele>533.2857142857143</ele><time>2026-05-03T09:00:20.235Z</time></trkpt><trkpt lat="42.0159659" lon="2.238326"><ele>532.7142857142858</ele><time>2026-05-03T09:00:21.234Z</time></trkpt><trkpt lat="42.0158985" lon="2.2383482"><ele>532.1428571428572</ele><time>2026-05-03T09:00:22.234Z</time></trkpt><trkpt lat="42.0158132" lon="2.2383594"><ele>531.5714285714286</ele><time>2026-05-03T09:00:24.235Z</time></trkpt><trkpt lat="42.0157472" lon="2.2383843"><ele>531.0</ele><time>2026-05-03T09:00:34.235Z</time></trkpt><trkpt lat="42.0158175" lon="2.2383914"><ele>531.0</ele><time>2026-05-03T09:00:42.235Z</time></trkpt><trkpt lat="42.0159093" lon="2.2384612"><ele>531.0</ele><time>2026-05-03T09:00:44.235Z</time></trkpt><trkpt lat="42.0159388" lon="2.2385533"><ele>531.0</ele><time>2026-05-03T09:00:45.234Z</time></trkpt><trkpt lat="42.0159593" lon="2.2386487"><ele>531.0</ele><time>2026-05-03T09:00:46.234Z</time></trkpt><trkpt lat="42.01599" lon="2.2387446"><ele>531.0</ele><time>2026-05-03T09:00:47.235Z</time></trkpt><trkpt lat="42.0160244" lon="2.2388285"><ele>531.0</ele><time>2026-05-03T09:00:48.234Z</time></trkpt><trkpt lat="42.0160682" lon="2.2389119"><ele>530.6666666666666</ele><time>2026-05-03T09:00:49.234Z</time></trkpt><trkpt lat="42.0161103" lon="2.2389968"><ele>530.3333333333334</ele><time>2026-05-03T09:00:50.235Z</time></trkpt><trkpt lat="42.0161471" lon="2.2390736"><ele>530.0</ele><time>2026-05-03T09:00:51.234Z</time></trkpt><trkpt lat="42.0161831" lon="2.2391441"><ele>529.6666666666667</ele><time>2026-05-03T09:00:52.235Z</time></trkpt><trkpt lat="42.0162372" lon="2.2392516"><ele>529.3333333333334</ele><time>2026-05-03T09:00:54.234Z</time></trkpt><trkpt lat="42.0162975" lon="2.2393767"><ele>529.0</ele><time>2026-05-03T09:00:56.234Z</time></trkpt><trkpt lat="42.0163428" lon="2.2394506"><ele>529.0</ele><time>2026-05-03T09:00:57.235Z</time></trkpt><trkpt lat="42.0163923" lon="2.2395225"><ele>529.0</ele><time>2026-05-03T09:00:58.235Z</time></trkpt><trkpt lat="42.0164445" lon="2.2395988"><ele>529.0</ele><time>2026-05-03T09:00:59.235Z</time></trkpt><trkpt lat="42.0164969" lon="2.2396773"><ele>529.0</ele><time>2026-05-03T09:01:00.234Z</time></trkpt><trkpt lat="42.0165429" lon="2.2397463"><ele>529.0</ele><time>2026-05-03T09:01:01.234Z</time></trkpt><trkpt lat="42.0165875" lon="2.2398117"><ele>529.0</ele><time>2026-05-03T09:01:02.235Z</time></trkpt><trkpt lat="42.0166337" lon="2.2398742"><ele>529.0</ele><time>2026-05-03T09:01:03.235Z</time></trkpt><trkpt lat="42.0166828" lon="2.2399427"><ele>528.3333333333334</ele><time>2026-05-03T09:01:04.234Z</time></trkpt><trkpt lat="42.0167354" lon="2.2400159"><ele>527.6666666666667</ele><time>2026-05-03T09:01:05.235Z</time></trkpt><trkpt lat="42.0167876" lon="2.240096"><ele>527.0</ele><time>2026-05-03T09:01:06.235Z</time></trkpt><trkpt lat="42.0168405" lon="2.2401811"><ele>526.3333333333334</ele><time>2026-05-03T09:01:07.235Z</time></trkpt><trkpt lat="42.0168977" lon="2.2402672"><ele>525.6666666666666</ele><time>2026-05-03T09:01:08.235Z</time></trkpt><trkpt lat="42.0169582" lon="2.2403547"><ele>525.0</ele><time>2026-05-03T09:01:09.235Z</time></trkpt><trkpt lat="42.0170182" lon="2.2404403"><ele>525.0</ele><time>2026-05-03T09:01:10.235Z</time></trkpt><trkpt lat="42.0170752" lon="2.2405252"><ele>525.0</ele><time>2026-05-03T09:01:11.235Z</time></trkpt><trkpt lat="42.0171296" lon="2.2406076"><ele>525.0</ele><time>2026-05-03T09:01:12.235Z</time></trkpt><trkpt lat="42.0171831" lon="2.2406901"><ele>525.0</ele><time>2026-05-03T09:01:13.235Z</time></trkpt><trkpt lat="42.0172386" lon="2.2407724"><ele>525.0</ele><time>2026-05-03T09:01:14.234Z</time></trkpt><trkpt lat="42.0172961" lon="2.2408558"><ele>525.0</ele><time>2026-05-03T09:01:15.235Z</time></trkpt><trkpt lat="42.0173542" lon="2.2409407"><ele>524.5</ele><time>2026-05-03T09:01:16.235Z</time></trkpt><trkpt lat="42.017414" lon="2.241023"><ele>524.0</ele><time>2026-05-03T09:01:17.235Z</time></trkpt><trkpt lat="42.0174717" lon="2.2411027"><ele>523.5</ele><time>2026-05-03T09:01:18.235Z</time></trkpt><trkpt lat="42.0175327" lon="2.2411856"><ele>523.0</ele><time>2026-05-03T09:01:19.235Z</time></trkpt><trkpt lat="42.0175953" lon="2.241273"><ele>522.5</ele><time>2026-05-03T09:01:20.235Z</time></trkpt><trkpt lat="42.0176598" lon="2.2413569"><ele>522.0</ele><time>2026-05-03T09:01:21.235Z</time></trkpt><trkpt lat="42.0177199" lon="2.2414351"><ele>520.6666666666666</ele><time>2026-05-03T09:01:22.234Z</time></trkpt><trkpt lat="42.0177775" lon="2.2415145"><ele>519.3333333333334</ele><time>2026-05-03T09:01:23.235Z</time></trkpt><trkpt lat="42.0178356" lon="2.2415977"><ele>518.0</ele><time>2026-05-03T09:01:24.235Z</time></trkpt><trkpt lat="42.0178927" lon="2.2416747"><ele>516.6666666666667</ele><time>2026-05-03T09:01:25.235Z</time></trkpt><trkpt lat="42.0179459" lon="2.2417488"><ele>515.3333333333334</ele><time>2026-05-03T09:01:26.235Z</time></trkpt><trkpt lat="42.0180275" lon="2.2418592"><ele>514.0</ele><time>2026-05-03T09:01:28.234Z</time></trkpt><trkpt lat="42.0181027" lon="2.2419638"><ele>514.0</ele><time>2026-05-03T09:01:30.235Z</time></trkpt><trkpt lat="42.0181895" lon="2.2420846"><ele>514.0</ele><time>2026-05-03T09:01:32.234Z</time></trkpt><trkpt lat="42.0182359" lon="2.2421507"><ele>514.0</ele><time>2026-05-03T09:01:33.235Z</time></trkpt><trkpt lat="42.0182884" lon="2.2422181"><ele>514.0</ele><time>2026-05-03T09:01:34.234Z</time></trkpt><trkpt lat="42.0183395" lon="2.2422875"><ele>514.0</ele><time>2026-05-03T09:01:35.235Z</time></trkpt><trkpt lat="42.0183894" lon="2.2423528"><ele>514.0</ele><time>2026-05-03T09:01:36.235Z</time></trkpt><trkpt lat="42.0184334" lon="2.2424159"><ele>513.1666666666667</ele><time>2026-05-03T09:01:37.235Z</time></trkpt><trkpt lat="42.0184765" lon="2.2424782"><ele>512.3333333333334</ele><time>2026-05-03T09:01:38.234Z</time></trkpt><trkpt lat="42.0185294" lon="2.2425975"><ele>511.5</ele><time>2026-05-03T09:01:40.235Z</time></trkpt><trkpt lat="42.0185163" lon="2.2426915"><ele>510.66666666666663</ele><time>2026-05-03T09:01:42.235Z</time></trkpt><trkpt lat="42.0184255" lon="2.2427522"><ele>509.8333333333333</ele><time>2026-05-03T09:01:44.234Z</time></trkpt><trkpt lat="42.0183498" lon="2.2427678"><ele>509.0</ele><time>2026-05-03T09:01:45.235Z</time></trkpt><trkpt lat="42.0182568" lon="2.2427924"><ele>509.0</ele><time>2026-05-03T09:01:46.235Z</time></trkpt><trkpt lat="42.0181589" lon="2.2428215"><ele>509.0</ele><time>2026-05-03T09:01:47.235Z</time></trkpt><trkpt lat="42.0180535" lon="2.242851"><ele>509.0</ele><time>2026-05-03T09:01:48.235Z</time></trkpt><trkpt lat="42.0179437" lon="2.2428842"><ele>509.0</ele><time>2026-05-03T09:01:49.234Z</time></trkpt><trkpt lat="42.017835" lon="2.2429144"><ele>509.0</ele><time>2026-05-03T09:01:50.234Z</time></trkpt><trkpt lat="42.0177335" lon="2.2429427"><ele>509.0</ele><time>2026-05-03T09:01:51.234Z</time></trkpt><trkpt lat="42.0176302" lon="2.2429722"><ele>509.0</ele><time>2026-05-03T09:01:52.234Z</time></trkpt><trkpt lat="42.0175282" lon="2.2429993"><ele>509.0</ele><time>2026-05-03T09:01:53.234Z</time></trkpt><trkpt lat="42.0174362" lon="2.2430247"><ele>509.0</ele><time>2026-05-03T09:01:54.235Z</time></trkpt><trkpt lat="42.0173456" lon="2.2430507"><ele>509.0</ele><time>2026-05-03T09:01:55.235Z</time></trkpt><trkpt lat="42.0172558" lon="2.2430742"><ele>510.2</ele><time>2026-05-03T09:01:56.234Z</time></trkpt><trkpt lat="42.0171678" lon="2.2430989"><ele>511.4</ele><time>2026-05-03T09:01:57.234Z</time></trkpt><trkpt lat="42.017086" lon="2.2431219"><ele>512.6</ele><time>2026-05-03T09:01:58.235Z</time></trkpt><trkpt lat="42.0170157" lon="2.2431488"><ele>513.8</ele><time>2026-05-03T09:01:59.234Z</time></trkpt><trkpt lat="42.0169119" lon="2.2432045"><ele>515.0</ele><time>2026-05-03T09:02:01.235Z</time></trkpt><trkpt lat="42.0168287" lon="2.2433233"><ele>515.0</ele><time>2026-05-03T09:02:03.235Z</time></trkpt><trkpt lat="42.0167673" lon="2.2433849"><ele>515.0</ele><time>2026-05-03T09:02:04.235Z</time></trkpt><trkpt lat="42.0167008" lon="2.2434397"><ele>515.0</ele><time>2026-05-03T09:02:05.235Z</time></trkpt><trkpt lat="42.0166375" lon="2.2434947"><ele>515.0</ele><time>2026-05-03T09:02:06.235Z</time></trkpt><trkpt lat="42.0165664" lon="2.2435554"><ele>515.0</ele><time>2026-05-03T09:02:07.234Z</time></trkpt><trkpt lat="42.0164873" lon="2.2436198"><ele>515.0</ele><time>2026-05-03T09:02:08.234Z</time></trkpt><trkpt lat="42.016405" lon="2.2436836"><ele>514.6666666666666</ele><time>2026-05-03T09:02:09.235Z</time></trkpt><trkpt lat="42.0163177" lon="2.2437483"><ele>514.3333333333333</ele><time>2026-05-03T09:02:10.235Z</time></trkpt><trkpt lat="42.0162353" lon="2.2438121"><ele>514.0</ele><time>2026-05-03T09:02:11.235Z</time></trkpt><trkpt lat="42.0161593" lon="2.2438765"><ele>513.6666666666666</ele><time>2026-05-03T09:02:12.234Z</time></trkpt><trkpt lat="42.0160907" lon="2.2439379"><ele>513.3333333333334</ele><time>2026-05-03T09:02:13.235Z</time></trkpt><trkpt lat="42.0160246" lon="2.2439947"><ele>513.0</ele><time>2026-05-03T09:02:14.234Z</time></trkpt><trkpt lat="42.015963" lon="2.2440467"><ele>513.0</ele><time>2026-05-03T09:02:15.235Z</time></trkpt><trkpt lat="42.0158965" lon="2.2441022"><ele>513.0</ele><time>2026-05-03T09:02:16.234Z</time></trkpt><trkpt lat="42.0158211" lon="2.2441598"><ele>513.0</ele><time>2026-05-03T09:02:17.235Z</time></trkpt><trkpt lat="42.0157405" lon="2.244216"><ele>513.0</ele><time>2026-05-03T09:02:18.235Z</time></trkpt><trkpt lat="42.0156646" lon="2.2442723"><ele>513.0</ele><time>2026-05-03T09:02:19.235Z</time></trkpt><trkpt lat="42.0155983" lon="2.2443274"><ele>513.0</ele><time>2026-05-03T09:02:20.234Z</time></trkpt><trkpt lat="42.0155386" lon="2.244374"><ele>513.3333333333334</ele><time>2026-05-03T09:02:21.235Z</time></trkpt><trkpt lat="42.0154438" lon="2.2444518"><ele>513.6666666666666</ele><time>2026-05-03T09:02:23.235Z</time></trkpt><trkpt lat="42.0153674" lon="2.2445121"><ele>514.0</ele><time>2026-05-03T09:02:25.235Z</time></trkpt><trkpt lat="42.0152944" lon="2.2445639"><ele>514.3333333333333</ele><time>2026-05-03T09:02:29.234Z</time></trkpt><trkpt lat="42.0152365" lon="2.2444999"><ele>514.6666666666666</ele><time>2026-05-03T09:02:31.235Z</time></trkpt><trkpt lat="42.0152122" lon="2.2444213"><ele>515.0</ele><time>2026-05-03T09:02:32.235Z</time></trkpt><trkpt lat="42.0151944" lon="2.2443161"><ele>515.0</ele><time>2026-05-03T09:02:33.234Z</time></trkpt><trkpt lat="42.0151773" lon="2.2441977"><ele>515.0</ele><time>2026-05-03T09:02:34.235Z</time></trkpt><trkpt lat="42.0151557" lon="2.2440799"><ele>515.0</ele><time>2026-05-03T09:02:35.235Z</time></trkpt><trkpt lat="42.0151369" lon="2.2439639"><ele>515.0</ele><time>2026-05-03T09:02:36.234Z</time></trkpt><trkpt lat="42.015119" lon="2.2438512"><ele>515.0</ele><time>2026-05-03T09:02:37.234Z</time></trkpt><trkpt lat="42.0151017" lon="2.2437448"><ele>515.0</ele><time>2026-05-03T09:02:38.234Z</time></trkpt><trkpt lat="42.0150818" lon="2.2436278"><ele>515.2</ele><time>2026-05-03T09:02:39.234Z</time></trkpt><trkpt lat="42.015059" lon="2.243495"><ele>515.4</ele><time>2026-05-03T09:02:40.235Z</time></trkpt><trkpt lat="42.0150371" lon="2.2433634"><ele>515.6</ele><time>2026-05-03T09:02:41.234Z</time></trkpt><trkpt lat="42.0150168" lon="2.2432352"><ele>515.8</ele><time>2026-05-03T09:02:42.234Z</time></trkpt><trkpt lat="42.0149971" lon="2.2431118"><ele>516.0</ele><time>2026-05-03T09:02:43.234Z</time></trkpt><trkpt lat="42.0149759" lon="2.2429927"><ele>516.0</ele><time>2026-05-03T09:02:44.234Z</time></trkpt><trkpt lat="42.014959" lon="2.2428762"><ele>516.0</ele><time>2026-05-03T09:02:45.235Z</time></trkpt><trkpt lat="42.0149434" lon="2.2427805"><ele>516.0</ele><time>2026-05-03T09:02:46.234Z</time></trkpt><trkpt lat="42.0149289" lon="2.2426942"><ele>516.0</ele><time>2026-05-03T09:02:47.235Z</time></trkpt><trkpt lat="42.0149117" lon="2.2425839"><ele>516.0</ele><time>2026-05-03T09:02:48.235Z</time></trkpt><trkpt lat="42.0148907" lon="2.242455"><ele>516.0</ele><time>2026-05-03T09:02:49.235Z</time></trkpt><trkpt lat="42.0148661" lon="2.2423111"><ele>516.0</ele><time>2026-05-03T09:02:50.234Z</time></trkpt><trkpt lat="42.0148425" lon="2.2421675"><ele>516.0</ele><time>2026-05-03T09:02:51.235Z</time></trkpt><trkpt lat="42.0148207" lon="2.2420264"><ele>516.0</ele><time>2026-05-03T09:02:52.235Z</time></trkpt><trkpt lat="42.0148011" lon="2.2419033"><ele>516.0</ele><time>2026-05-03T09:02:53.234Z</time></trkpt><trkpt lat="42.0147829" lon="2.2417943"><ele>516.0</ele><time>2026-05-03T09:02:54.235Z</time></trkpt><trkpt lat="42.0147683" lon="2.2416867"><ele>516.0</ele><time>2026-05-03T09:02:55.235Z</time></trkpt><trkpt lat="42.0147527" lon="2.2415804"><ele>516.0</ele><time>2026-05-03T09:02:56.235Z</time></trkpt><trkpt lat="42.0147324" lon="2.2414905"><ele>516.0</ele><time>2026-05-03T09:02:57.235Z</time></trkpt><trkpt lat="42.0146931" lon="2.2414218"><ele>516.0</ele><time>2026-05-03T09:02:58.234Z</time></trkpt><trkpt lat="42.0146058" lon="2.2413814"><ele>516.0</ele><time>2026-05-03T09:03:00.235Z</time></trkpt><trkpt lat="42.0145239" lon="2.2413514"><ele>516.0</ele><time>2026-05-03T09:03:03.234Z</time></trkpt><trkpt lat="42.0144605" lon="2.241311"><ele>515.6</ele><time>2026-05-03T09:03:05.235Z</time></trkpt><trkpt lat="42.0143757" lon="2.2412563"><ele>515.2</ele><time>2026-05-03T09:03:07.235Z</time></trkpt><trkpt lat="42.0142975" lon="2.2411138"><ele>514.8</ele><time>2026-05-03T09:03:09.234Z</time></trkpt><trkpt lat="42.0142501" lon="2.2410129"><ele>514.4</ele><time>2026-05-03T09:03:10.235Z</time></trkpt><trkpt lat="42.0142051" lon="2.2409052"><ele>514.0</ele><time>2026-05-03T09:03:11.235Z</time></trkpt><trkpt lat="42.0141591" lon="2.2408159"><ele>513.2</ele><time>2026-05-03T09:03:12.235Z</time></trkpt><trkpt lat="42.0141094" lon="2.2407175"><ele>512.4</ele><time>2026-05-03T09:03:13.234Z</time></trkpt><trkpt lat="42.0140463" lon="2.2405937"><ele>511.6</ele><time>2026-05-03T09:03:14.235Z</time></trkpt><trkpt lat="42.0139724" lon="2.2404595"><ele>510.8</ele><time>2026-05-03T09:03:15.235Z</time></trkpt><trkpt lat="42.0139151" lon="2.2403505"><ele>510.0</ele><time>2026-05-03T09:03:16.234Z</time></trkpt><trkpt lat="42.0138646" lon="2.2402602"><ele>510.0</ele><time>2026-05-03T09:03:17.235Z</time></trkpt><trkpt lat="42.0138279" lon="2.2401834"><ele>510.0</ele><time>2026-05-03T09:03:18.234Z</time></trkpt><trkpt lat="42.0137588" lon="2.2401234"><ele>510.0</ele><time>2026-05-03T09:03:20.234Z</time></trkpt><trkpt lat="42.0136465" lon="2.2401674"><ele>510.0</ele><time>2026-05-03T09:03:22.235Z</time></trkpt><trkpt lat="42.0135731" lon="2.2402246"><ele>510.0</ele><time>2026-05-03T09:03:23.235Z</time></trkpt><trkpt lat="42.0134898" lon="2.2402804"><ele>510.0</ele><time>2026-05-03T09:03:24.234Z</time></trkpt><trkpt lat="42.0134187" lon="2.2403482"><ele>510.0</ele><time>2026-05-03T09:03:25.234Z</time></trkpt><trkpt lat="42.013365" lon="2.2404326"><ele>510.0</ele><time>2026-05-03T09:03:26.235Z</time></trkpt><trkpt lat="42.0133248" lon="2.2405272"><ele>510.0</ele><time>2026-05-03T09:03:27.235Z</time></trkpt><trkpt lat="42.0132954" lon="2.2406071"><ele>510.0</ele><time>2026-05-03T09:03:28.235Z</time></trkpt><trkpt lat="42.0132491" lon="2.2407219"><ele>510.0</ele><time>2026-05-03T09:03:30.235Z</time></trkpt><trkpt lat="42.0132192" lon="2.2408014"><ele>510.0</ele><time>2026-05-03T09:03:31.234Z</time></trkpt><trkpt lat="42.0131823" lon="2.2409001"><ele>508.8333333333333</ele><time>2026-05-03T09:03:32.235Z</time></trkpt><trkpt lat="42.0131395" lon="2.2410023"><ele>507.66666666666663</ele><time>2026-05-03T09:03:33.234Z</time></trkpt><trkpt lat="42.0130916" lon="2.2411008"><ele>506.5</ele><time>2026-05-03T09:03:34.235Z</time></trkpt><trkpt lat="42.0130381" lon="2.2411863"><ele>505.3333333333333</ele><time>2026-05-03T09:03:35.234Z</time></trkpt><trkpt lat="42.0129786" lon="2.2412657"><ele>504.16666666666663</ele><time>2026-05-03T09:03:36.234Z</time></trkpt><trkpt lat="42.0129207" lon="2.2413371"><ele>503.0</ele><time>2026-05-03T09:03:37.235Z</time></trkpt><trkpt lat="42.0128649" lon="2.2414061"><ele>502.16666666666663</ele><time>2026-05-03T09:03:38.235Z</time></trkpt><trkpt lat="42.0128163" lon="2.2414719"><ele>501.3333333333333</ele><time>2026-05-03T09:03:39.235Z</time></trkpt><trkpt lat="42.0127711" lon="2.2415366"><ele>500.5</ele><time>2026-05-03T09:03:40.234Z</time></trkpt><trkpt lat="42.0127227" lon="2.2416126"><ele>499.66666666666663</ele><time>2026-05-03T09:03:41.235Z</time></trkpt><trkpt lat="42.0126733" lon="2.2416966"><ele>498.8333333333333</ele><time>2026-05-03T09:03:42.235Z</time></trkpt><trkpt lat="42.0126314" lon="2.2417899"><ele>498.0</ele><time>2026-05-03T09:03:43.235Z</time></trkpt><trkpt lat="42.0125896" lon="2.2418831"><ele>498.0</ele><time>2026-05-03T09:03:44.235Z</time></trkpt><trkpt lat="42.0125441" lon="2.2419956"><ele>497.99999999999994</ele><time>2026-05-03T09:03:45.234Z</time></trkpt><trkpt lat="42.0124913" lon="2.2421116"><ele>497.99999999999994</ele><time>2026-05-03T09:03:46.235Z</time></trkpt><trkpt lat="42.0124436" lon="2.2422262"><ele>498.0</ele><time>2026-05-03T09:03:47.234Z</time></trkpt><trkpt lat="42.012398" lon="2.2423418"><ele>498.0</ele><time>2026-05-03T09:03:48.235Z</time></trkpt><trkpt lat="42.0123536" lon="2.2424496"><ele>496.8333333333333</ele><time>2026-05-03T09:03:49.235Z</time></trkpt><trkpt lat="42.0123091" lon="2.2425467"><ele>495.66666666666663</ele><time>2026-05-03T09:03:50.235Z</time></trkpt><trkpt lat="42.0122664" lon="2.2426337"><ele>494.5</ele><time>2026-05-03T09:03:51.235Z</time></trkpt><trkpt lat="42.0122051" lon="2.2427164"><ele>493.3333333333333</ele><time>2026-05-03T09:03:52.235Z</time></trkpt><trkpt lat="42.0121345" lon="2.2427933"><ele>492.16666666666663</ele><time>2026-05-03T09:03:53.234Z</time></trkpt><trkpt lat="42.0120632" lon="2.2428654"><ele>491.0</ele><time>2026-05-03T09:03:54.234Z</time></trkpt><trkpt lat="42.0119833" lon="2.2429316"><ele>491.0</ele><time>2026-05-03T09:03:55.235Z</time></trkpt><trkpt lat="42.0119028" lon="2.2429892"><ele>491.0</ele><time>2026-05-03T09:03:56.234Z</time></trkpt><trkpt lat="42.0118212" lon="2.2430446"><ele>491.0</ele><time>2026-05-03T09:03:57.235Z</time></trkpt><trkpt lat="42.0117377" lon="2.2431047"><ele>491.0</ele><time>2026-05-03T09:03:58.235Z</time></trkpt><trkpt lat="42.0116575" lon="2.243172"><ele>491.0</ele><time>2026-05-03T09:03:59.235Z</time></trkpt><trkpt lat="42.0115794" lon="2.2432471"><ele>490.20000000000005</ele><time>2026-05-03T09:04:00.235Z</time></trkpt><trkpt lat="42.0115087" lon="2.2433189"><ele>489.40000000000003</ele><time>2026-05-03T09:04:01.234Z</time></trkpt><trkpt lat="42.0114442" lon="2.2433846"><ele>488.6</ele><time>2026-05-03T09:04:02.235Z</time></trkpt><trkpt lat="42.011383" lon="2.2434415"><ele>487.8</ele><time>2026-05-03T09:04:03.235Z</time></trkpt><trkpt lat="42.0113047" lon="2.2435208"><ele>487.0</ele><time>2026-05-03T09:04:05.235Z</time></trkpt><trkpt lat="42.0112106" lon="2.2436043"><ele>487.00000000000006</ele><time>2026-05-03T09:04:07.235Z</time></trkpt><trkpt lat="42.0111514" lon="2.2436523"><ele>487.0</ele><time>2026-05-03T09:04:08.234Z</time></trkpt><trkpt lat="42.0110937" lon="2.243695"><ele>487.0</ele><time>2026-05-03T09:04:09.235Z</time></trkpt><trkpt lat="42.0110009" lon="2.2437623"><ele>487.0</ele><time>2026-05-03T09:04:11.235Z</time></trkpt><trkpt lat="42.010944" lon="2.2438025"><ele>487.00000000000006</ele><time>2026-05-03T09:04:13.234Z</time></trkpt><trkpt lat="42.0108579" lon="2.2438601"><ele>487.0</ele><time>2026-05-03T09:04:15.235Z</time></trkpt><trkpt lat="42.0107995" lon="2.2439039"><ele>486.6666666666667</ele><time>2026-05-03T09:04:16.235Z</time></trkpt><trkpt lat="42.0107247" lon="2.24395"><ele>486.33333333333337</ele><time>2026-05-03T09:04:17.235Z</time></trkpt><trkpt lat="42.0106544" lon="2.2440009"><ele>486.0</ele><time>2026-05-03T09:04:18.234Z</time></trkpt><trkpt lat="42.0105813" lon="2.2440525"><ele>485.66666666666663</ele><time>2026-05-03T09:04:19.234Z</time></trkpt><trkpt lat="42.0105094" lon="2.2440993"><ele>485.3333333333333</ele><time>2026-05-03T09:04:20.234Z</time></trkpt><trkpt lat="42.0104427" lon="2.244153"><ele>485.0</ele><time>2026-05-03T09:04:21.234Z</time></trkpt><trkpt lat="42.0103803" lon="2.2442018"><ele>484.8</ele><time>2026-05-03T09:04:22.235Z</time></trkpt><trkpt lat="42.0102687" lon="2.2442859"><ele>484.6</ele><time>2026-05-03T09:04:24.234Z</time></trkpt><trkpt lat="42.0102007" lon="2.2443327"><ele>484.4</ele><time>2026-05-03T09:04:25.235Z</time></trkpt><trkpt lat="42.0101322" lon="2.244379"><ele>484.2</ele><time>2026-05-03T09:04:26.235Z</time></trkpt><trkpt lat="42.0100572" lon="2.2444318"><ele>484.0</ele><time>2026-05-03T09:04:27.235Z</time></trkpt><trkpt lat="42.0099769" lon="2.2444849"><ele>483.33333333333337</ele><time>2026-05-03T09:04:28.235Z</time></trkpt><trkpt lat="42.0098923" lon="2.2445394"><ele>482.6666666666667</ele><time>2026-05-03T09:04:29.234Z</time></trkpt><trkpt lat="42.009811" lon="2.2445922"><ele>482.0</ele><time>2026-05-03T09:04:30.235Z</time></trkpt><trkpt lat="42.0097411" lon="2.2446638"><ele>481.33333333333337</ele><time>2026-05-03T09:04:31.234Z</time></trkpt><trkpt lat="42.0096837" lon="2.2447548"><ele>480.6666666666667</ele><time>2026-05-03T09:04:32.234Z</time></trkpt><trkpt lat="42.0096423" lon="2.2448467"><ele>480.0</ele><time>2026-05-03T09:04:33.235Z</time></trkpt><trkpt lat="42.0096094" lon="2.2449395"><ele>479.5</ele><time>2026-05-03T09:04:34.235Z</time></trkpt><trkpt lat="42.0095769" lon="2.2450321"><ele>479.0</ele><time>2026-05-03T09:04:35.234Z</time></trkpt><trkpt lat="42.0095412" lon="2.2451149"><ele>478.5</ele><time>2026-05-03T09:04:36.234Z</time></trkpt><trkpt lat="42.0095053" lon="2.2451965"><ele>478.0</ele><time>2026-05-03T09:04:37.235Z</time></trkpt><trkpt lat="42.0094427" lon="2.2453328"><ele>477.5</ele><time>2026-05-03T09:04:39.234Z</time></trkpt><trkpt lat="42.0093938" lon="2.2454387"><ele>477.0</ele><time>2026-05-03T09:04:41.235Z</time></trkpt><trkpt lat="42.0093486" lon="2.2455064"><ele>477.0</ele><time>2026-05-03T09:04:44.235Z</time></trkpt><trkpt lat="42.0092514" lon="2.2455111"><ele>477.00000000000006</ele><time>2026-05-03T09:04:49.234Z</time></trkpt><trkpt lat="42.0091195" lon="2.2454649"><ele>477.00000000000006</ele><time>2026-05-03T09:04:51.234Z</time></trkpt><trkpt lat="42.009043" lon="2.2454302"><ele>477.0</ele><time>2026-05-03T09:04:52.234Z</time></trkpt><trkpt lat="42.0089675" lon="2.245402"><ele>477.0</ele><time>2026-05-03T09:04:53.235Z</time></trkpt><trkpt lat="42.0088927" lon="2.2453727"><ele>476.1666666666667</ele><time>2026-05-03T09:04:54.234Z</time></trkpt><trkpt lat="42.0088183" lon="2.245346"><ele>475.33333333333337</ele><time>2026-05-03T09:04:55.235Z</time></trkpt><trkpt lat="42.0087512" lon="2.2453231"><ele>474.5</ele><time>2026-05-03T09:04:56.235Z</time></trkpt><trkpt lat="42.0086682" lon="2.2452995"><ele>473.6666666666667</ele><time>2026-05-03T09:04:58.235Z</time></trkpt><trkpt lat="42.0085975" lon="2.2452674"><ele>472.83333333333337</ele><time>2026-05-03T09:05:19.235Z</time></trkpt><trkpt lat="42.0086137" lon="2.2451739"><ele>472.0</ele><time>2026-05-03T09:05:21.235Z</time></trkpt><trkpt lat="42.0086564" lon="2.2450458"><ele>472.00000000000006</ele><time>2026-05-03T09:05:23.234Z</time></trkpt><trkpt lat="42.0087092" lon="2.2448849"><ele>472.0</ele><time>2026-05-03T09:05:25.235Z</time></trkpt><trkpt lat="42.0087335" lon="2.2447995"><ele>472.0</ele><time>2026-05-03T09:05:26.234Z</time></trkpt><trkpt lat="42.0087525" lon="2.2447044"><ele>472.0</ele><time>2026-05-03T09:05:27.235Z</time></trkpt><trkpt lat="42.0087688" lon="2.2446099"><ele>472.00000000000006</ele><time>2026-05-03T09:05:28.235Z</time></trkpt><trkpt lat="42.0087781" lon="2.2445148"><ele>472.0</ele><time>2026-05-03T09:05:29.235Z</time></trkpt><trkpt lat="42.00878" lon="2.2444174"><ele>472.83333333333337</ele><time>2026-05-03T09:05:30.234Z</time></trkpt><trkpt lat="42.0087786" lon="2.2443186"><ele>473.6666666666667</ele><time>2026-05-03T09:05:31.235Z</time></trkpt><trkpt lat="42.0087748" lon="2.2442178"><ele>474.5</ele><time>2026-05-03T09:05:32.235Z</time></trkpt><trkpt lat="42.0087728" lon="2.244119"><ele>475.33333333333337</ele><time>2026-05-03T09:05:33.235Z</time></trkpt><trkpt lat="42.008773" lon="2.2440253"><ele>476.1666666666667</ele><time>2026-05-03T09:05:34.234Z</time></trkpt><trkpt lat="42.0087772" lon="2.2438778"><ele>477.0</ele><time>2026-05-03T09:05:36.235Z</time></trkpt><trkpt lat="42.0087693" lon="2.2437723"><ele>477.1666666666667</ele><time>2026-05-03T09:05:38.235Z</time></trkpt><trkpt lat="42.0087137" lon="2.2436944"><ele>477.33333333333337</ele><time>2026-05-03T09:05:40.234Z</time></trkpt><trkpt lat="42.0086041" lon="2.2436533"><ele>477.5</ele><time>2026-05-03T09:05:42.235Z</time></trkpt><trkpt lat="42.0085349" lon="2.2436294"><ele>477.6666666666667</ele><time>2026-05-03T09:05:43.235Z</time></trkpt><trkpt lat="42.008463" lon="2.2435995"><ele>477.83333333333337</ele><time>2026-05-03T09:05:44.235Z</time></trkpt><trkpt lat="42.0083961" lon="2.2435694"><ele>478.0</ele><time>2026-05-03T09:05:45.235Z</time></trkpt><trkpt lat="42.0083368" lon="2.2435403"><ele>477.50000000000006</ele><time>2026-05-03T09:05:46.235Z</time></trkpt><trkpt lat="42.0082427" lon="2.2434714"><ele>477.0</ele><time>2026-05-03T09:05:48.235Z</time></trkpt><trkpt lat="42.0081797" lon="2.2433443"><ele>476.5</ele><time>2026-05-03T09:05:50.234Z</time></trkpt><trkpt lat="42.0081462" lon="2.2432553"><ele>476.0</ele><time>2026-05-03T09:05:51.235Z</time></trkpt><trkpt lat="42.008113" lon="2.2431648"><ele>475.50000000000006</ele><time>2026-05-03T09:05:52.235Z</time></trkpt><trkpt lat="42.0080777" lon="2.2430731"><ele>475.0</ele><time>2026-05-03T09:05:53.234Z</time></trkpt><trkpt lat="42.0080445" lon="2.2429752"><ele>475.00000000000006</ele><time>2026-05-03T09:05:54.235Z</time></trkpt><trkpt lat="42.0080134" lon="2.2428725"><ele>475.0</ele><time>2026-05-03T09:05:55.234Z</time></trkpt><trkpt lat="42.0079796" lon="2.2427672"><ele>475.0</ele><time>2026-05-03T09:05:56.235Z</time></trkpt><trkpt lat="42.0079473" lon="2.2426631"><ele>475.0</ele><time>2026-05-03T09:05:57.235Z</time></trkpt><trkpt lat="42.0079156" lon="2.2425555"><ele>475.00000000000006</ele><time>2026-05-03T09:05:58.235Z</time></trkpt><trkpt lat="42.0078876" lon="2.24245"><ele>475.0</ele><time>2026-05-03T09:05:59.234Z</time></trkpt><trkpt lat="42.0078544" lon="2.2423443"><ele>475.33333333333337</ele><time>2026-05-03T09:06:00.235Z</time></trkpt><trkpt lat="42.0078234" lon="2.2422374"><ele>475.6666666666667</ele><time>2026-05-03T09:06:01.234Z</time></trkpt><trkpt lat="42.0077896" lon="2.2421347"><ele>476.0</ele><time>2026-05-03T09:06:02.235Z</time></trkpt><trkpt lat="42.007756" lon="2.2420292"><ele>476.33333333333337</ele><time>2026-05-03T09:06:03.234Z</time></trkpt><trkpt lat="42.0077213" lon="2.2419217"><ele>476.6666666666667</ele><time>2026-05-03T09:06:04.235Z</time></trkpt><trkpt lat="42.0076883" lon="2.2418089"><ele>477.0</ele><time>2026-05-03T09:06:05.235Z</time></trkpt><trkpt lat="42.0076576" lon="2.2416921"><ele>477.0</ele><time>2026-05-03T09:06:06.235Z</time></trkpt><trkpt lat="42.0076285" lon="2.2415845"><ele>477.0</ele><time>2026-05-03T09:06:07.235Z</time></trkpt><trkpt lat="42.0075964" lon="2.2414772"><ele>477.0</ele><time>2026-05-03T09:06:08.234Z</time></trkpt><trkpt lat="42.007565" lon="2.241372"><ele>477.0</ele><time>2026-05-03T09:06:09.235Z</time></trkpt><trkpt lat="42.0075326" lon="2.2412749"><ele>477.0</ele><time>2026-05-03T09:06:10.235Z</time></trkpt><trkpt lat="42.0075025" lon="2.2411768"><ele>477.0</ele><time>2026-05-03T09:06:11.234Z</time></trkpt><trkpt lat="42.0074763" lon="2.2410841"><ele>477.0</ele><time>2026-05-03T09:06:12.235Z</time></trkpt><trkpt lat="42.0074573" lon="2.2409563"><ele>477.0</ele><time>2026-05-03T09:06:14.235Z</time></trkpt><trkpt lat="42.0074716" lon="2.2408626"><ele>477.0</ele><time>2026-05-03T09:06:23.235Z</time></trkpt><trkpt lat="42.0075689" lon="2.2408638"><ele>477.0</ele><time>2026-05-03T09:06:25.235Z</time></trkpt><trkpt lat="42.0076467" lon="2.2408578"><ele>477.0</ele><time>2026-05-03T09:06:26.234Z</time></trkpt><trkpt lat="42.0077404" lon="2.2408356"><ele>477.0</ele><time>2026-05-03T09:06:27.234Z</time></trkpt><trkpt lat="42.007846" lon="2.2408067"><ele>477.20000000000005</ele><time>2026-05-03T09:06:28.234Z</time></trkpt><trkpt lat="42.0079597" lon="2.2407768"><ele>477.40000000000003</ele><time>2026-05-03T09:06:29.234Z</time></trkpt><trkpt lat="42.0080719" lon="2.2407501"><ele>477.59999999999997</ele><time>2026-05-03T09:06:30.235Z</time></trkpt><trkpt lat="42.0081791" lon="2.2407246"><ele>477.79999999999995</ele><time>2026-05-03T09:06:31.235Z</time></trkpt><trkpt lat="42.0082754" lon="2.2406981"><ele>478.0</ele><time>2026-05-03T09:06:32.234Z</time></trkpt><trkpt lat="42.0083572" lon="2.240672"><ele>478.83333333333337</ele><time>2026-05-03T09:06:33.234Z</time></trkpt><trkpt lat="42.0084265" lon="2.2406455"><ele>479.6666666666667</ele><time>2026-05-03T09:06:34.235Z</time></trkpt><trkpt lat="42.0084865" lon="2.2406081"><ele>480.5</ele><time>2026-05-03T09:06:35.235Z</time></trkpt><trkpt lat="42.00855" lon="2.2405593"><ele>481.33333333333337</ele><time>2026-05-03T09:06:36.234Z</time></trkpt><trkpt lat="42.0086271" lon="2.2405044"><ele>482.1666666666667</ele><time>2026-05-03T09:06:37.234Z</time></trkpt><trkpt lat="42.0087081" lon="2.2404399"><ele>483.0</ele><time>2026-05-03T09:06:38.234Z</time></trkpt><trkpt lat="42.008788" lon="2.2403769"><ele>484.4</ele><time>2026-05-03T09:06:39.234Z</time></trkpt><trkpt lat="42.0088534" lon="2.2403233"><ele>485.79999999999995</ele><time>2026-05-03T09:06:40.234Z</time></trkpt><trkpt lat="42.0089333" lon="2.2402273"><ele>487.2</ele><time>2026-05-03T09:06:42.235Z</time></trkpt><trkpt lat="42.0088992" lon="2.240123"><ele>488.6</ele><time>2026-05-03T09:06:45.234Z</time></trkpt><trkpt lat="42.0088015" lon="2.2401562"><ele>490.0</ele><time>2026-05-03T09:06:47.234Z</time></trkpt><trkpt lat="42.0087325" lon="2.2402121"><ele>490.0</ele><time>2026-05-03T09:06:48.235Z</time></trkpt><trkpt lat="42.0086462" lon="2.2402838"><ele>490.0</ele><time>2026-05-03T09:06:49.235Z</time></trkpt><trkpt lat="42.0085525" lon="2.2403566"><ele>490.0</ele><time>2026-05-03T09:06:50.234Z</time></trkpt><trkpt lat="42.0084513" lon="2.2404264"><ele>490.0</ele><time>2026-05-03T09:06:51.234Z</time></trkpt><trkpt lat="42.0083401" lon="2.240492"><ele>490.0</ele><time>2026-05-03T09:06:52.234Z</time></trkpt><trkpt lat="42.008221" lon="2.2405481"><ele>489.0</ele><time>2026-05-03T09:06:53.235Z</time></trkpt><trkpt lat="42.0080964" lon="2.2405924"><ele>488.0</ele><time>2026-05-03T09:06:54.235Z</time></trkpt><trkpt lat="42.0079653" lon="2.2406356"><ele>487.0</ele><time>2026-05-03T09:06:55.235Z</time></trkpt><trkpt lat="42.007828" lon="2.2406813"><ele>486.0</ele><time>2026-05-03T09:06:56.235Z</time></trkpt><trkpt lat="42.0076861" lon="2.240721"><ele>483.33333333333337</ele><time>2026-05-03T09:06:57.235Z</time></trkpt><trkpt lat="42.0075396" lon="2.240758"><ele>480.6666666666667</ele><time>2026-05-03T09:06:58.235Z</time></trkpt><trkpt lat="42.0073909" lon="2.2407934"><ele>478.0</ele><time>2026-05-03T09:06:59.235Z</time></trkpt><trkpt lat="42.0072392" lon="2.2408298"><ele>477.6666666666667</ele><time>2026-05-03T09:07:00.235Z</time></trkpt><trkpt lat="42.0070847" lon="2.2408678"><ele>477.33333333333337</ele><time>2026-05-03T09:07:01.235Z</time></trkpt><trkpt lat="42.0069289" lon="2.2409082"><ele>477.0</ele><time>2026-05-03T09:07:02.235Z</time></trkpt><trkpt lat="42.0067725" lon="2.2409439"><ele>477.33333333333337</ele><time>2026-05-03T09:07:03.234Z</time></trkpt><trkpt lat="42.0066189" lon="2.2409774"><ele>477.6666666666667</ele><time>2026-05-03T09:07:04.234Z</time></trkpt><trkpt lat="42.0064667" lon="2.2410117"><ele>478.0</ele><time>2026-05-03T09:07:05.235Z</time></trkpt><trkpt lat="42.0063179" lon="2.2410448"><ele>478.0</ele><time>2026-05-03T09:07:06.235Z</time></trkpt><trkpt lat="42.0061738" lon="2.2410797"><ele>478.0</ele><time>2026-05-03T09:07:07.235Z</time></trkpt><trkpt lat="42.0060342" lon="2.2411064"><ele>478.0</ele><time>2026-05-03T09:07:08.235Z</time></trkpt><trkpt lat="42.0059038" lon="2.2411318"><ele>478.0</ele><time>2026-05-03T09:07:09.235Z</time></trkpt><trkpt lat="42.0057817" lon="2.2411524"><ele>477.4</ele><time>2026-05-03T09:07:10.235Z</time></trkpt><trkpt lat="42.0056652" lon="2.241168"><ele>476.79999999999995</ele><time>2026-05-03T09:07:11.235Z</time></trkpt><trkpt lat="42.0055565" lon="2.2411754"><ele>476.2</ele><time>2026-05-03T09:07:12.235Z</time></trkpt><trkpt lat="42.0054549" lon="2.2411716"><ele>475.6</ele><time>2026-05-03T09:07:13.234Z</time></trkpt><trkpt lat="42.0053629" lon="2.2411859"><ele>475.0</ele><time>2026-05-03T09:07:14.235Z</time></trkpt><trkpt lat="42.0052746" lon="2.2412321"><ele>475.0</ele><time>2026-05-03T09:07:15.235Z</time></trkpt><trkpt lat="42.0051891" lon="2.2413004"><ele>475.0</ele><time>2026-05-03T09:07:16.235Z</time></trkpt><trkpt lat="42.0050994" lon="2.2413718"><ele>475.0</ele><time>2026-05-03T09:07:17.235Z</time></trkpt><trkpt lat="42.0049924" lon="2.2414256"><ele>475.0</ele><time>2026-05-03T09:07:18.235Z</time></trkpt><trkpt lat="42.0048771" lon="2.2414731"><ele>475.0</ele><time>2026-05-03T09:07:19.235Z</time></trkpt><trkpt lat="42.0047604" lon="2.2415166"><ele>474.2</ele><time>2026-05-03T09:07:20.234Z</time></trkpt><trkpt lat="42.0046464" lon="2.2415567"><ele>473.4</ele><time>2026-05-03T09:07:21.234Z</time></trkpt><trkpt lat="42.0045405" lon="2.2415961"><ele>472.6</ele><time>2026-05-03T09:07:22.235Z</time></trkpt><trkpt lat="42.0044428" lon="2.2416327"><ele>471.8</ele><time>2026-05-03T09:07:23.235Z</time></trkpt><trkpt lat="42.004354" lon="2.2416643"><ele>471.0</ele><time>2026-05-03T09:07:24.235Z</time></trkpt><trkpt lat="42.0042717" lon="2.241692"><ele>471.0</ele><time>2026-05-03T09:07:25.234Z</time></trkpt><trkpt lat="42.0041904" lon="2.2417229"><ele>471.0</ele><time>2026-05-03T09:07:26.235Z</time></trkpt><trkpt lat="42.0040997" lon="2.241758"><ele>471.0</ele><time>2026-05-03T09:07:27.234Z</time></trkpt><trkpt lat="42.0040059" lon="2.2417929"><ele>471.0</ele><time>2026-05-03T09:07:28.235Z</time></trkpt><trkpt lat="42.0039069" lon="2.2418313"><ele>471.0</ele><time>2026-05-03T09:07:29.234Z</time></trkpt><trkpt lat="42.0038024" lon="2.2418744"><ele>471.25</ele><time>2026-05-03T09:07:30.234Z</time></trkpt><trkpt lat="42.003692" lon="2.241922"><ele>471.5</ele><time>2026-05-03T09:07:31.234Z</time></trkpt><trkpt lat="42.0035736" lon="2.2419622"><ele>471.75</ele><time>2026-05-03T09:07:32.235Z</time></trkpt><trkpt lat="42.0034491" lon="2.2419874"><ele>472.0</ele><time>2026-05-03T09:07:33.234Z</time></trkpt><trkpt lat="42.003323" lon="2.2420009"><ele>472.0</ele><time>2026-05-03T09:07:34.234Z</time></trkpt><trkpt lat="42.0032004" lon="2.2420097"><ele>472.00000000000006</ele><time>2026-05-03T09:07:35.235Z</time></trkpt><trkpt lat="42.0030838" lon="2.24201"><ele>472.00000000000006</ele><time>2026-05-03T09:07:36.235Z</time></trkpt><trkpt lat="42.0029767" lon="2.242002"><ele>472.0</ele><time>2026-05-03T09:07:37.235Z</time></trkpt><trkpt lat="42.0028753" lon="2.2420078"><ele>472.0</ele><time>2026-05-03T09:07:38.235Z</time></trkpt><trkpt lat="42.0027756" lon="2.2420322"><ele>472.0</ele><time>2026-05-03T09:07:39.235Z</time></trkpt><trkpt lat="42.0026784" lon="2.2420827"><ele>472.0</ele><time>2026-05-03T09:07:40.235Z</time></trkpt><trkpt lat="42.0025804" lon="2.2421529"><ele>472.0</ele><time>2026-05-03T09:07:41.235Z</time></trkpt><trkpt lat="42.002471" lon="2.2422325"><ele>472.0</ele><time>2026-05-03T09:07:42.235Z</time></trkpt><trkpt lat="42.0023505" lon="2.2423116"><ele>468.6666666666667</ele><time>2026-05-03T09:07:43.235Z</time></trkpt><trkpt lat="42.0022188" lon="2.2423941"><ele>465.33333333333337</ele><time>2026-05-03T09:07:44.235Z</time></trkpt><trkpt lat="42.0020808" lon="2.2424732"><ele>462.0</ele><time>2026-05-03T09:07:45.235Z</time></trkpt><trkpt lat="42.0019335" lon="2.2425357"><ele>462.0</ele><time>2026-05-03T09:07:46.235Z</time></trkpt><trkpt lat="42.0017745" lon="2.2425688"><ele>462.0</ele><time>2026-05-03T09:07:47.234Z</time></trkpt><trkpt lat="42.0016095" lon="2.2425654"><ele>462.0</ele><time>2026-05-03T09:07:48.234Z</time></trkpt><trkpt lat="42.0014396" lon="2.2425575"><ele>462.66666666666663</ele><time>2026-05-03T09:07:49.235Z</time></trkpt><trkpt lat="42.0012625" lon="2.2425584"><ele>463.3333333333333</ele><time>2026-05-03T09:07:50.235Z</time></trkpt><trkpt lat="42.0010774" lon="2.2425706"><ele>464.0</ele><time>2026-05-03T09:07:51.235Z</time></trkpt><trkpt lat="42.0008874" lon="2.2425891"><ele>463.66666666666663</ele><time>2026-05-03T09:07:52.235Z</time></trkpt><trkpt lat="42.0006918" lon="2.2426038"><ele>463.33333333333337</ele><time>2026-05-03T09:07:53.235Z</time></trkpt><trkpt lat="42.0004934" lon="2.2426187"><ele>463.0</ele><time>2026-05-03T09:07:54.234Z</time></trkpt><trkpt lat="42.0002941" lon="2.2426346"><ele>463.0</ele><time>2026-05-03T09:07:55.235Z</time></trkpt><trkpt lat="42.0000949" lon="2.2426564"><ele>463.0</ele><time>2026-05-03T09:07:56.234Z</time></trkpt><trkpt lat="41.9998944" lon="2.2426894"><ele>463.0</ele><time>2026-05-03T09:07:57.234Z</time></trkpt><trkpt lat="41.9996928" lon="2.2427379"><ele>463.0</ele><time>2026-05-03T09:07:58.235Z</time></trkpt><trkpt lat="41.9994923" lon="2.2427927"><ele>463.0</ele><time>2026-05-03T09:07:59.235Z</time></trkpt><trkpt lat="41.9992934" lon="2.2428482"><ele>463.0</ele><time>2026-05-03T09:08:00.235Z</time></trkpt><trkpt lat="41.9990957" lon="2.242899"><ele>463.6666666666667</ele><time>2026-05-03T09:08:01.235Z</time></trkpt><trkpt lat="41.9988993" lon="2.2429482"><ele>464.33333333333337</ele><time>2026-05-03T09:08:02.234Z</time></trkpt><trkpt lat="41.9987018" lon="2.2429965"><ele>465.0</ele><time>2026-05-03T09:08:03.235Z</time></trkpt><trkpt lat="41.9985063" lon="2.243045"><ele>464.33333333333337</ele><time>2026-05-03T09:08:04.235Z</time></trkpt><trkpt lat="41.9983138" lon="2.2430973"><ele>463.6666666666667</ele><time>2026-05-03T09:08:05.234Z</time></trkpt><trkpt lat="41.998123" lon="2.2431516"><ele>463.0</ele><time>2026-05-03T09:08:06.234Z</time></trkpt><trkpt lat="41.9979331" lon="2.2432112"><ele>463.0</ele><time>2026-05-03T09:08:07.235Z</time></trkpt><trkpt lat="41.9977474" lon="2.2432769"><ele>463.0</ele><time>2026-05-03T09:08:08.235Z</time></trkpt><trkpt lat="41.997554" lon="2.2433444"><ele>463.0</ele><time>2026-05-03T09:08:09.235Z</time></trkpt><trkpt lat="41.9973603" lon="2.2434126"><ele>466.6666666666667</ele><time>2026-05-03T09:08:10.235Z</time></trkpt><trkpt lat="41.9971662" lon="2.2434817"><ele>470.33333333333337</ele><time>2026-05-03T09:08:11.234Z</time></trkpt><trkpt lat="41.9969708" lon="2.2435462"><ele>474.0</ele><time>2026-05-03T09:08:12.235Z</time></trkpt><trkpt lat="41.9967765" lon="2.2436035"><ele>476.33333333333337</ele><time>2026-05-03T09:08:13.234Z</time></trkpt><trkpt lat="41.9965765" lon="2.2436416"><ele>478.6666666666667</ele><time>2026-05-03T09:08:14.235Z</time></trkpt><trkpt lat="41.9963858" lon="2.2436657"><ele>481.0</ele><time>2026-05-03T09:08:15.234Z</time></trkpt><trkpt lat="41.9961974" lon="2.2436854"><ele>481.0</ele><time>2026-05-03T09:08:16.234Z</time></trkpt><trkpt lat="41.9960193" lon="2.2437045"><ele>481.0</ele><time>2026-05-03T09:08:17.235Z</time></trkpt><trkpt lat="41.9958463" lon="2.2437208"><ele>481.0</ele><time>2026-05-03T09:08:18.235Z</time></trkpt><trkpt lat="41.9956729" lon="2.2437403"><ele>481.6666666666667</ele><time>2026-05-03T09:08:19.235Z</time></trkpt><trkpt lat="41.9954962" lon="2.243761"><ele>482.33333333333337</ele><time>2026-05-03T09:08:20.235Z</time></trkpt><trkpt lat="41.995314" lon="2.2437815"><ele>483.0</ele><time>2026-05-03T09:08:21.235Z</time></trkpt><trkpt lat="41.9951297" lon="2.2438039"><ele>482.0</ele><time>2026-05-03T09:08:22.235Z</time></trkpt><trkpt lat="41.9949469" lon="2.2438264"><ele>481.0</ele><time>2026-05-03T09:08:23.235Z</time></trkpt><trkpt lat="41.9947673" lon="2.2438487"><ele>480.0</ele><time>2026-05-03T09:08:24.235Z</time></trkpt><trkpt lat="41.9945985" lon="2.2438706"><ele>480.0</ele><time>2026-05-03T09:08:25.235Z</time></trkpt><trkpt lat="41.9944367" lon="2.2438916"><ele>480.0</ele><time>2026-05-03T09:08:26.234Z</time></trkpt><trkpt lat="41.994279" lon="2.2439074"><ele>480.0</ele><time>2026-05-03T09:08:27.235Z</time></trkpt><trkpt lat="41.9941269" lon="2.2439156"><ele>479.0</ele><time>2026-05-03T09:08:28.235Z</time></trkpt><trkpt lat="41.9939776" lon="2.2439135"><ele>478.0</ele><time>2026-05-03T09:08:29.235Z</time></trkpt><trkpt lat="41.9938365" lon="2.2439008"><ele>477.0</ele><time>2026-05-03T09:08:30.235Z</time></trkpt><trkpt lat="41.9936984" lon="2.2438835"><ele>476.0</ele><time>2026-05-03T09:08:31.235Z</time></trkpt><trkpt lat="41.9935626" lon="2.2438658"><ele>476.0</ele><time>2026-05-03T09:08:32.235Z</time></trkpt><trkpt lat="41.9934285" lon="2.2438484"><ele>476.0</ele><time>2026-05-03T09:08:33.235Z</time></trkpt><trkpt lat="41.9932967" lon="2.2438304"><ele>476.0</ele><time>2026-05-03T09:08:34.235Z</time></trkpt><trkpt lat="41.9931685" lon="2.2438111"><ele>476.0</ele><time>2026-05-03T09:08:35.235Z</time></trkpt><trkpt lat="41.9930476" lon="2.2437926"><ele>475.4</ele><time>2026-05-03T09:08:36.235Z</time></trkpt><trkpt lat="41.9929303" lon="2.2437754"><ele>474.8</ele><time>2026-05-03T09:08:37.235Z</time></trkpt><trkpt lat="41.9928209" lon="2.2437467"><ele>474.19999999999993</ele><time>2026-05-03T09:08:38.235Z</time></trkpt><trkpt lat="41.9927239" lon="2.2436942"><ele>473.59999999999997</ele><time>2026-05-03T09:08:39.235Z</time></trkpt><trkpt lat="41.99264" lon="2.2436218"><ele>473.0</ele><time>2026-05-03T09:08:40.235Z</time></trkpt><trkpt lat="41.9925601" lon="2.2435463"><ele>472.99999999999994</ele><time>2026-05-03T09:08:41.235Z</time></trkpt><trkpt lat="41.9924767" lon="2.2434974"><ele>473.0</ele><time>2026-05-03T09:08:42.235Z</time></trkpt><trkpt lat="41.9923974" lon="2.2434794"><ele>473.0</ele><time>2026-05-03T09:08:43.234Z</time></trkpt><trkpt lat="41.9923231" lon="2.243489"><ele>473.0</ele><time>2026-05-03T09:08:44.234Z</time></trkpt><trkpt lat="41.9922613" lon="2.2435209"><ele>472.99999999999994</ele><time>2026-05-03T09:08:45.235Z</time></trkpt><trkpt lat="41.9921917" lon="2.2436436"><ele>473.0</ele><time>2026-05-03T09:08:47.235Z</time></trkpt><trkpt lat="41.992204" lon="2.2438091"><ele>473.0</ele><time>2026-05-03T09:08:49.235Z</time></trkpt><trkpt lat="41.9922422" lon="2.2438911"><ele>473.0</ele><time>2026-05-03T09:08:50.235Z</time></trkpt><trkpt lat="41.9923015" lon="2.2439583"><ele>473.0</ele><time>2026-05-03T09:08:51.235Z</time></trkpt><trkpt lat="41.992373" lon="2.2439874"><ele>473.0</ele><time>2026-05-03T09:08:52.235Z</time></trkpt><trkpt lat="41.9924456" lon="2.2439773"><ele>473.0</ele><time>2026-05-03T09:08:53.234Z</time></trkpt><trkpt lat="41.9925098" lon="2.2439335"><ele>473.0</ele><time>2026-05-03T09:08:54.235Z</time></trkpt><trkpt lat="41.9925599" lon="2.2438526"><ele>473.0</ele><time>2026-05-03T09:08:55.234Z</time></trkpt><trkpt lat="41.9925846" lon="2.243759"><ele>472.99999999999994</ele><time>2026-05-03T09:08:56.235Z</time></trkpt><trkpt lat="41.9925784" lon="2.243657"><ele>473.0</ele><time>2026-05-03T09:08:57.234Z</time></trkpt><trkpt lat="41.9925455" lon="2.2435684"><ele>473.0</ele><time>2026-05-03T09:08:58.234Z</time></trkpt><trkpt lat="41.9924893" lon="2.2435035"><ele>473.0</ele><time>2026-05-03T09:08:59.235Z</time></trkpt><trkpt lat="41.9924144" lon="2.2434761"><ele>472.99999999999994</ele><time>2026-05-03T09:09:00.235Z</time></trkpt><trkpt lat="41.992326" lon="2.243497"><ele>473.0</ele><time>2026-05-03T09:09:01.234Z</time></trkpt><trkpt lat="41.9922267" lon="2.2435413"><ele>473.0</ele><time>2026-05-03T09:09:02.234Z</time></trkpt><trkpt lat="41.9921136" lon="2.2435948"><ele>473.0</ele><time>2026-05-03T09:09:03.235Z</time></trkpt><trkpt lat="41.9919856" lon="2.2436201"><ele>473.0</ele><time>2026-05-03T09:09:04.234Z</time></trkpt><trkpt lat="41.9918426" lon="2.2436132"><ele>473.0</ele><time>2026-05-03T09:09:05.234Z</time></trkpt><trkpt lat="41.9916897" lon="2.2435875"><ele>473.3333333333333</ele><time>2026-05-03T09:09:06.235Z</time></trkpt><trkpt lat="41.991528" lon="2.2435536"><ele>473.66666666666663</ele><time>2026-05-03T09:09:07.235Z</time></trkpt><trkpt lat="41.9913631" lon="2.2435224"><ele>474.0</ele><time>2026-05-03T09:09:08.235Z</time></trkpt><trkpt lat="41.9911969" lon="2.2434858"><ele>474.0</ele><time>2026-05-03T09:09:09.234Z</time></trkpt><trkpt lat="41.9910293" lon="2.2434502"><ele>474.0</ele><time>2026-05-03T09:09:10.234Z</time></trkpt><trkpt lat="41.990861" lon="2.2434151"><ele>474.0</ele><time>2026-05-03T09:09:11.235Z</time></trkpt><trkpt lat="41.9906912" lon="2.2433818"><ele>473.33333333333337</ele><time>2026-05-03T09:09:12.235Z</time></trkpt><trkpt lat="41.9905254" lon="2.2433468"><ele>472.6666666666667</ele><time>2026-05-03T09:09:13.234Z</time></trkpt><trkpt lat="41.9903637" lon="2.2433131"><ele>472.0</ele><time>2026-05-03T09:09:14.235Z</time></trkpt><trkpt lat="41.990209" lon="2.2432793"><ele>472.0</ele><time>2026-05-03T09:09:15.235Z</time></trkpt><trkpt lat="41.9900506" lon="2.2432483"><ele>472.0</ele><time>2026-05-03T09:09:16.234Z</time></trkpt><trkpt lat="41.9898916" lon="2.2432171"><ele>472.0</ele><time>2026-05-03T09:09:17.234Z</time></trkpt><trkpt lat="41.9897299" lon="2.2431813"><ele>473.0</ele><time>2026-05-03T09:09:18.235Z</time></trkpt><trkpt lat="41.9895623" lon="2.243141"><ele>474.0</ele><time>2026-05-03T09:09:19.235Z</time></trkpt><trkpt lat="41.9893866" lon="2.243091"><ele>475.0</ele><time>2026-05-03T09:09:20.235Z</time></trkpt><trkpt lat="41.9892128" lon="2.2430233"><ele>474.6666666666667</ele><time>2026-05-03T09:09:21.235Z</time></trkpt><trkpt lat="41.9890362" lon="2.2429348"><ele>474.33333333333337</ele><time>2026-05-03T09:09:22.235Z</time></trkpt><trkpt lat="41.9888562" lon="2.2428344"><ele>474.0</ele><time>2026-05-03T09:09:23.235Z</time></trkpt><trkpt lat="41.9886747" lon="2.2427201"><ele>474.0</ele><time>2026-05-03T09:09:24.235Z</time></trkpt><trkpt lat="41.9884965" lon="2.2426004"><ele>474.0</ele><time>2026-05-03T09:09:25.235Z</time></trkpt><trkpt lat="41.9883324" lon="2.2424889"><ele>474.0</ele><time>2026-05-03T09:09:26.235Z</time></trkpt><trkpt lat="41.9881685" lon="2.2423776"><ele>475.0</ele><time>2026-05-03T09:09:27.235Z</time></trkpt><trkpt lat="41.9879979" lon="2.2422711"><ele>476.0</ele><time>2026-05-03T09:09:28.235Z</time></trkpt><trkpt lat="41.9878219" lon="2.2421659"><ele>477.0</ele><time>2026-05-03T09:09:29.234Z</time></trkpt><trkpt lat="41.9876427" lon="2.2420575"><ele>478.0</ele><time>2026-05-03T09:09:30.235Z</time></trkpt><trkpt lat="41.9874581" lon="2.2419399"><ele>479.0</ele><time>2026-05-03T09:09:31.235Z</time></trkpt><trkpt lat="41.9872683" lon="2.2418205"><ele>480.0</ele><time>2026-05-03T09:09:32.234Z</time></trkpt><trkpt lat="41.9870747" lon="2.2416951"><ele>480.0</ele><time>2026-05-03T09:09:33.234Z</time></trkpt><trkpt lat="41.9868751" lon="2.2415697"><ele>480.0</ele><time>2026-05-03T09:09:34.235Z</time></trkpt><trkpt lat="41.9866705" lon="2.2414408"><ele>480.0</ele><time>2026-05-03T09:09:35.235Z</time></trkpt><trkpt lat="41.9864568" lon="2.2413112"><ele>485.5</ele><time>2026-05-03T09:09:36.234Z</time></trkpt><trkpt lat="41.9862335" lon="2.2411848"><ele>491.0</ele><time>2026-05-03T09:09:37.235Z</time></trkpt><trkpt lat="41.9860007" lon="2.2410565"><ele>491.0</ele><time>2026-05-03T09:09:38.235Z</time></trkpt><trkpt lat="41.9857624" lon="2.2409362"><ele>491.0</ele><time>2026-05-03T09:09:39.235Z</time></trkpt><trkpt lat="41.9855186" lon="2.240821"><ele>491.0</ele><time>2026-05-03T09:09:40.235Z</time></trkpt><trkpt lat="41.9852694" lon="2.240713"><ele>491.0</ele><time>2026-05-03T09:09:41.235Z</time></trkpt><trkpt lat="41.985018" lon="2.2406076"><ele>492.5</ele><time>2026-05-03T09:09:42.234Z</time></trkpt><trkpt lat="41.9847648" lon="2.2405037"><ele>494.0</ele><time>2026-05-03T09:09:43.235Z</time></trkpt><trkpt lat="41.9845097" lon="2.2404066"><ele>494.0</ele><time>2026-05-03T09:09:44.235Z</time></trkpt><trkpt lat="41.9842557" lon="2.240315"><ele>494.0</ele><time>2026-05-03T09:09:45.234Z</time></trkpt><trkpt lat="41.9839993" lon="2.2402374"><ele>491.5</ele><time>2026-05-03T09:09:46.235Z</time></trkpt><trkpt lat="41.9837437" lon="2.2401641"><ele>489.0</ele><time>2026-05-03T09:09:47.234Z</time></trkpt><trkpt lat="41.9834859" lon="2.2401011"><ele>486.0</ele><time>2026-05-03T09:09:48.234Z</time></trkpt><trkpt lat="41.9832282" lon="2.2400488"><ele>483.0</ele><time>2026-05-03T09:09:49.234Z</time></trkpt><trkpt lat="41.9829689" lon="2.2400032"><ele>483.0</ele><time>2026-05-03T09:09:50.235Z</time></trkpt><trkpt lat="41.9827112" lon="2.2399721"><ele>483.0</ele><time>2026-05-03T09:09:51.235Z</time></trkpt><trkpt lat="41.9824541" lon="2.2399589"><ele>484.0</ele><time>2026-05-03T09:09:52.235Z</time></trkpt><trkpt lat="41.9821898" lon="2.2399508"><ele>485.0</ele><time>2026-05-03T09:09:53.234Z</time></trkpt><trkpt lat="41.9819247" lon="2.2399507"><ele>488.5</ele><time>2026-05-03T09:09:54.235Z</time></trkpt><trkpt lat="41.9816562" lon="2.2399581"><ele>492.0</ele><time>2026-05-03T09:09:55.234Z</time></trkpt><trkpt lat="41.9813921" lon="2.2399743"><ele>492.0</ele><time>2026-05-03T09:09:56.234Z</time></trkpt><trkpt lat="41.9811226" lon="2.2400011"><ele>492.0</ele><time>2026-05-03T09:09:57.235Z</time></trkpt><trkpt lat="41.9808557" lon="2.2400425"><ele>495.0</ele><time>2026-05-03T09:09:58.234Z</time></trkpt><trkpt lat="41.98059" lon="2.2400967"><ele>498.0</ele><time>2026-05-03T09:09:59.234Z</time></trkpt><trkpt lat="41.980326" lon="2.2401583"><ele>498.0</ele><time>2026-05-03T09:10:00.234Z</time></trkpt><trkpt lat="41.9800662" lon="2.2402317"><ele>498.0</ele><time>2026-05-03T09:10:01.234Z</time></trkpt><trkpt lat="41.9798098" lon="2.2403116"><ele>499.0</ele><time>2026-05-03T09:10:02.235Z</time></trkpt><trkpt lat="41.9795709" lon="2.2403949"><ele>500.0</ele><time>2026-05-03T09:10:03.235Z</time></trkpt><trkpt lat="41.9793378" lon="2.2404855"><ele>500.5</ele><time>2026-05-03T09:10:04.234Z</time></trkpt><trkpt lat="41.979106" lon="2.2405875"><ele>501.0</ele><time>2026-05-03T09:10:05.235Z</time></trkpt><trkpt lat="41.9788751" lon="2.2407042"><ele>501.0</ele><time>2026-05-03T09:10:06.235Z</time></trkpt><trkpt lat="41.9786469" lon="2.2408245"><ele>501.0</ele><time>2026-05-03T09:10:07.235Z</time></trkpt><trkpt lat="41.9784242" lon="2.240951"><ele>500.5</ele><time>2026-05-03T09:10:08.234Z</time></trkpt><trkpt lat="41.9782028" lon="2.2410814"><ele>500.0</ele><time>2026-05-03T09:10:09.235Z</time></trkpt><trkpt lat="41.9779848" lon="2.2412186"><ele>500.0</ele><time>2026-05-03T09:10:10.235Z</time></trkpt><trkpt lat="41.9777682" lon="2.2413641"><ele>500.0</ele><time>2026-05-03T09:10:11.235Z</time></trkpt><trkpt lat="41.9775493" lon="2.24152"><ele>500.0</ele><time>2026-05-03T09:10:12.235Z</time></trkpt><trkpt lat="41.9773278" lon="2.2416805"><ele>500.0</ele><time>2026-05-03T09:10:13.235Z</time></trkpt><trkpt lat="41.9771079" lon="2.2418453"><ele>500.0</ele><time>2026-05-03T09:10:14.235Z</time></trkpt><trkpt lat="41.9768898" lon="2.2420086"><ele>500.0</ele><time>2026-05-03T09:10:15.235Z</time></trkpt><trkpt lat="41.9766757" lon="2.2421745"><ele>500.0</ele><time>2026-05-03T09:10:16.235Z</time></trkpt><trkpt lat="41.9764566" lon="2.2423429"><ele>500.0</ele><time>2026-05-03T09:10:17.234Z</time></trkpt><trkpt lat="41.9762344" lon="2.2425103"><ele>500.0</ele><time>2026-05-03T09:10:18.234Z</time></trkpt><trkpt lat="41.9760116" lon="2.2426786"><ele>500.0</ele><time>2026-05-03T09:10:19.235Z</time></trkpt><trkpt lat="41.9757872" lon="2.2428473"><ele>500.5</ele><time>2026-05-03T09:10:20.235Z</time></trkpt><trkpt lat="41.9755621" lon="2.2430157"><ele>501.0</ele><time>2026-05-03T09:10:21.235Z</time></trkpt><trkpt lat="41.9753339" lon="2.2431845"><ele>499.5</ele><time>2026-05-03T09:10:22.235Z</time></trkpt><trkpt lat="41.9751073" lon="2.2433537"><ele>498.0</ele><time>2026-05-03T09:10:23.235Z</time></trkpt><trkpt lat="41.974879" lon="2.2435265"><ele>501.0</ele><time>2026-05-03T09:10:24.235Z</time></trkpt><trkpt lat="41.9746517" lon="2.2436982"><ele>504.0</ele><time>2026-05-03T09:10:25.234Z</time></trkpt><trkpt lat="41.9744202" lon="2.2438684"><ele>504.5</ele><time>2026-05-03T09:10:26.235Z</time></trkpt><trkpt lat="41.9741895" lon="2.2440423"><ele>505.0</ele><time>2026-05-03T09:10:27.235Z</time></trkpt><trkpt lat="41.9739578" lon="2.2442145"><ele>505.0</ele><time>2026-05-03T09:10:28.235Z</time></trkpt><trkpt lat="41.9737252" lon="2.2443896"><ele>505.0</ele><time>2026-05-03T09:10:29.235Z</time></trkpt><trkpt lat="41.9734913" lon="2.2445672"><ele>507.0</ele><time>2026-05-03T09:10:30.235Z</time></trkpt><trkpt lat="41.9732598" lon="2.244743"><ele>509.0</ele><time>2026-05-03T09:10:31.234Z</time></trkpt><trkpt lat="41.9730268" lon="2.2449208"><ele>509.0</ele><time>2026-05-03T09:10:32.234Z</time></trkpt><trkpt lat="41.9727899" lon="2.2450969"><ele>509.0</ele><time>2026-05-03T09:10:33.235Z</time></trkpt><trkpt lat="41.9725501" lon="2.2452723"><ele>511.0</ele><time>2026-05-03T09:10:34.234Z</time></trkpt><trkpt lat="41.972309" lon="2.2454493"><ele>513.0</ele><time>2026-05-03T09:10:35.235Z</time></trkpt><trkpt lat="41.9720679" lon="2.245625"><ele>513.0</ele><time>2026-05-03T09:10:36.234Z</time></trkpt><trkpt lat="41.9718245" lon="2.2458032"><ele>513.0</ele><time>2026-05-03T09:10:37.234Z</time></trkpt><trkpt lat="41.9715788" lon="2.2459808"><ele>511.5</ele><time>2026-05-03T09:10:38.234Z</time></trkpt><trkpt lat="41.9713326" lon="2.2461524"><ele>510.0</ele><time>2026-05-03T09:10:39.235Z</time></trkpt><trkpt lat="41.9710879" lon="2.2463135"><ele>508.5</ele><time>2026-05-03T09:10:40.235Z</time></trkpt><trkpt lat="41.9708454" lon="2.2464571"><ele>507.0</ele><time>2026-05-03T09:10:41.234Z</time></trkpt><trkpt lat="41.9706048" lon="2.2465869"><ele>507.0</ele><time>2026-05-03T09:10:42.234Z</time></trkpt><trkpt lat="41.9703607" lon="2.2467087"><ele>507.0</ele><time>2026-05-03T09:10:43.235Z</time></trkpt><trkpt lat="41.9701227" lon="2.2468211"><ele>505.0</ele><time>2026-05-03T09:10:44.235Z</time></trkpt><trkpt lat="41.9698863" lon="2.2469224"><ele>503.0</ele><time>2026-05-03T09:10:45.235Z</time></trkpt><trkpt lat="41.9696493" lon="2.2470128"><ele>503.0</ele><time>2026-05-03T09:10:46.235Z</time></trkpt><trkpt lat="41.969411" lon="2.2470932"><ele>503.0</ele><time>2026-05-03T09:10:47.234Z</time></trkpt><trkpt lat="41.9691706" lon="2.2471674"><ele>503.5</ele><time>2026-05-03T09:10:48.235Z</time></trkpt><trkpt lat="41.9689271" lon="2.2472368"><ele>504.0</ele><time>2026-05-03T09:10:49.235Z</time></trkpt><trkpt lat="41.9686806" lon="2.2473014"><ele>504.0</ele><time>2026-05-03T09:10:50.234Z</time></trkpt><trkpt lat="41.9684337" lon="2.2473658"><ele>504.0</ele><time>2026-05-03T09:10:51.235Z</time></trkpt><trkpt lat="41.968185" lon="2.2474222"><ele>502.0</ele><time>2026-05-03T09:10:52.234Z</time></trkpt><trkpt lat="41.9679352" lon="2.2474806"><ele>500.0</ele><time>2026-05-03T09:10:53.234Z</time></trkpt><trkpt lat="41.9676846" lon="2.2475392"><ele>499.0</ele><time>2026-05-03T09:10:54.235Z</time></trkpt><trkpt lat="41.9674332" lon="2.2475995"><ele>498.0</ele><time>2026-05-03T09:10:55.235Z</time></trkpt><trkpt lat="41.9671811" lon="2.2476587"><ele>498.0</ele><time>2026-05-03T09:10:56.234Z</time></trkpt><trkpt lat="41.966929" lon="2.247715"><ele>498.0</ele><time>2026-05-03T09:10:57.234Z</time></trkpt><trkpt lat="41.966675" lon="2.2477711"><ele>498.5</ele><time>2026-05-03T09:10:58.234Z</time></trkpt><trkpt lat="41.9664228" lon="2.2478304"><ele>499.0</ele><time>2026-05-03T09:10:59.234Z</time></trkpt><trkpt lat="41.9661661" lon="2.2478873"><ele>499.0</ele><time>2026-05-03T09:11:00.235Z</time></trkpt><trkpt lat="41.9659067" lon="2.24794"><ele>499.0</ele><time>2026-05-03T09:11:01.234Z</time></trkpt><trkpt lat="41.9656476" lon="2.2479908"><ele>499.0</ele><time>2026-05-03T09:11:02.234Z</time></trkpt><trkpt lat="41.9653857" lon="2.2480457"><ele>499.0</ele><time>2026-05-03T09:11:03.235Z</time></trkpt><trkpt lat="41.9651236" lon="2.2481022"><ele>497.0</ele><time>2026-05-03T09:11:04.234Z</time></trkpt><trkpt lat="41.9648655" lon="2.248154"><ele>495.0</ele><time>2026-05-03T09:11:05.234Z</time></trkpt><trkpt lat="41.9646182" lon="2.2481994"><ele>495.0</ele><time>2026-05-03T09:11:06.235Z</time></trkpt><trkpt lat="41.9643855" lon="2.2482331"><ele>495.0</ele><time>2026-05-03T09:11:07.235Z</time></trkpt><trkpt lat="41.9641644" lon="2.2482527"><ele>495.33333333333337</ele><time>2026-05-03T09:11:08.235Z</time></trkpt><trkpt lat="41.9639493" lon="2.248256"><ele>495.6666666666667</ele><time>2026-05-03T09:11:09.235Z</time></trkpt><trkpt lat="41.9637389" lon="2.2482295"><ele>496.0</ele><time>2026-05-03T09:11:10.235Z</time></trkpt><trkpt lat="41.9635398" lon="2.2481778"><ele>495.6666666666667</ele><time>2026-05-03T09:11:11.235Z</time></trkpt><trkpt lat="41.9633532" lon="2.2481092"><ele>495.33333333333337</ele><time>2026-05-03T09:11:12.235Z</time></trkpt><trkpt lat="41.9631727" lon="2.24802"><ele>495.0</ele><time>2026-05-03T09:11:13.235Z</time></trkpt><trkpt lat="41.9629818" lon="2.247921"><ele>495.0</ele><time>2026-05-03T09:11:14.234Z</time></trkpt><trkpt lat="41.962795" lon="2.2478429"><ele>495.0</ele><time>2026-05-03T09:11:15.234Z</time></trkpt><trkpt lat="41.962618" lon="2.2478168"><ele>495.0</ele><time>2026-05-03T09:11:16.235Z</time></trkpt><trkpt lat="41.9624482" lon="2.2478253"><ele>494.66666666666663</ele><time>2026-05-03T09:11:17.235Z</time></trkpt><trkpt lat="41.9622827" lon="2.2478715"><ele>494.3333333333333</ele><time>2026-05-03T09:11:18.235Z</time></trkpt><trkpt lat="41.9621342" lon="2.2479464"><ele>494.0</ele><time>2026-05-03T09:11:19.235Z</time></trkpt><trkpt lat="41.9619971" lon="2.2480411"><ele>493.75</ele><time>2026-05-03T09:11:20.235Z</time></trkpt><trkpt lat="41.9618708" lon="2.2481523"><ele>493.5</ele><time>2026-05-03T09:11:21.234Z</time></trkpt><trkpt lat="41.961762" lon="2.248273"><ele>493.25</ele><time>2026-05-03T09:11:22.235Z</time></trkpt><trkpt lat="41.9616581" lon="2.2483855"><ele>493.0</ele><time>2026-05-03T09:11:23.235Z</time></trkpt><trkpt lat="41.9615801" lon="2.2485173"><ele>492.59999999999997</ele><time>2026-05-03T09:11:24.234Z</time></trkpt><trkpt lat="41.9615133" lon="2.2486202"><ele>492.19999999999993</ele><time>2026-05-03T09:11:25.234Z</time></trkpt><trkpt lat="41.9614358" lon="2.2487158"><ele>491.8</ele><time>2026-05-03T09:11:26.235Z</time></trkpt><trkpt lat="41.9613628" lon="2.2487908"><ele>491.4</ele><time>2026-05-03T09:11:27.235Z</time></trkpt><trkpt lat="41.9612872" lon="2.2488426"><ele>491.0</ele><time>2026-05-03T09:11:28.235Z</time></trkpt><trkpt lat="41.9612023" lon="2.2488734"><ele>491.0</ele><time>2026-05-03T09:11:29.234Z</time></trkpt><trkpt lat="41.961104" lon="2.2488797"><ele>491.0</ele><time>2026-05-03T09:11:30.235Z</time></trkpt><trkpt lat="41.9609978" lon="2.2489148"><ele>491.0</ele><time>2026-05-03T09:11:31.234Z</time></trkpt><trkpt lat="41.960889" lon="2.2489716"><ele>491.0</ele><time>2026-05-03T09:11:32.234Z</time></trkpt><trkpt lat="41.9607765" lon="2.2490247"><ele>491.0</ele><time>2026-05-03T09:11:33.234Z</time></trkpt><trkpt lat="41.9606653" lon="2.2490754"><ele>490.4</ele><time>2026-05-03T09:11:34.234Z</time></trkpt><trkpt lat="41.960564" lon="2.2491318"><ele>489.8</ele><time>2026-05-03T09:11:35.234Z</time></trkpt><trkpt lat="41.9604651" lon="2.2491958"><ele>489.19999999999993</ele><time>2026-05-03T09:11:36.234Z</time></trkpt><trkpt lat="41.9603564" lon="2.2492511"><ele>488.59999999999997</ele><time>2026-05-03T09:11:37.235Z</time></trkpt><trkpt lat="41.9602472" lon="2.249289"><ele>488.0</ele><time>2026-05-03T09:11:38.235Z</time></trkpt><trkpt lat="41.9601436" lon="2.2493193"><ele>488.0</ele><time>2026-05-03T09:11:39.235Z</time></trkpt><trkpt lat="41.9600449" lon="2.2493431"><ele>487.99999999999994</ele><time>2026-05-03T09:11:40.234Z</time></trkpt><trkpt lat="41.9599446" lon="2.2493615"><ele>487.99999999999994</ele><time>2026-05-03T09:11:41.234Z</time></trkpt><trkpt lat="41.9598439" lon="2.2493827"><ele>488.0</ele><time>2026-05-03T09:11:42.234Z</time></trkpt><trkpt lat="41.9597477" lon="2.2494041"><ele>488.0</ele><time>2026-05-03T09:11:43.234Z</time></trkpt><trkpt lat="41.9596527" lon="2.249427"><ele>488.0</ele><time>2026-05-03T09:11:44.235Z</time></trkpt><trkpt lat="41.9595547" lon="2.2494509"><ele>487.99999999999994</ele><time>2026-05-03T09:11:45.234Z</time></trkpt><trkpt lat="41.9594604" lon="2.2494733"><ele>487.99999999999994</ele><time>2026-05-03T09:11:46.234Z</time></trkpt><trkpt lat="41.9593688" lon="2.2494808"><ele>488.0</ele><time>2026-05-03T09:11:47.234Z</time></trkpt><trkpt lat="41.9592786" lon="2.2494668"><ele>488.0</ele><time>2026-05-03T09:11:48.235Z</time></trkpt><trkpt lat="41.9591904" lon="2.249422"><ele>487.59999999999997</ele><time>2026-05-03T09:11:49.235Z</time></trkpt><trkpt lat="41.959101" lon="2.2493673"><ele>487.19999999999993</ele><time>2026-05-03T09:11:50.235Z</time></trkpt><trkpt lat="41.9590045" lon="2.2493257"><ele>486.8</ele><time>2026-05-03T09:11:51.235Z</time></trkpt><trkpt lat="41.9589004" lon="2.2493259"><ele>486.4</ele><time>2026-05-03T09:11:52.234Z</time></trkpt><trkpt lat="41.9587985" lon="2.249345"><ele>486.0</ele><time>2026-05-03T09:11:53.235Z</time></trkpt><trkpt lat="41.9586975" lon="2.2493707"><ele>486.0</ele><time>2026-05-03T09:11:54.235Z</time></trkpt><trkpt lat="41.9585923" lon="2.2493953"><ele>486.0</ele><time>2026-05-03T09:11:55.235Z</time></trkpt><trkpt lat="41.9584978" lon="2.2494257"><ele>486.0</ele><time>2026-05-03T09:11:56.235Z</time></trkpt><trkpt lat="41.9583936" lon="2.2494458"><ele>486.0</ele><time>2026-05-03T09:11:57.235Z</time></trkpt><trkpt lat="41.9583005" lon="2.2494679"><ele>486.0</ele><time>2026-05-03T09:11:58.235Z</time></trkpt><trkpt lat="41.9582101" lon="2.2494938"><ele>486.0</ele><time>2026-05-03T09:11:59.235Z</time></trkpt><trkpt lat="41.9581123" lon="2.2495364"><ele>486.0</ele><time>2026-05-03T09:12:00.235Z</time></trkpt><trkpt lat="41.9580309" lon="2.249603"><ele>486.0</ele><time>2026-05-03T09:12:01.235Z</time></trkpt><trkpt lat="41.9579597" lon="2.2496875"><ele>486.0</ele><time>2026-05-03T09:12:02.235Z</time></trkpt><trkpt lat="41.9578899" lon="2.2497725"><ele>486.0</ele><time>2026-05-03T09:12:03.234Z</time></trkpt><trkpt lat="41.9578119" lon="2.2498406"><ele>485.8</ele><time>2026-05-03T09:12:04.235Z</time></trkpt><trkpt lat="41.9577198" lon="2.249885"><ele>485.6</ele><time>2026-05-03T09:12:05.234Z</time></trkpt><trkpt lat="41.9576147" lon="2.2499111"><ele>485.4</ele><time>2026-05-03T09:12:06.235Z</time></trkpt><trkpt lat="41.9575006" lon="2.2499315"><ele>485.2</ele><time>2026-05-03T09:12:07.235Z</time></trkpt><trkpt lat="41.9573859" lon="2.2499558"><ele>485.0</ele><time>2026-05-03T09:12:08.235Z</time></trkpt><trkpt lat="41.9572734" lon="2.2499772"><ele>484.5</ele><time>2026-05-03T09:12:09.234Z</time></trkpt><trkpt lat="41.9571633" lon="2.2499992"><ele>484.0</ele><time>2026-05-03T09:12:10.235Z</time></trkpt><trkpt lat="41.9570537" lon="2.2500306"><ele>483.5</ele><time>2026-05-03T09:12:11.235Z</time></trkpt><trkpt lat="41.9569405" lon="2.2500603"><ele>483.0</ele><time>2026-05-03T09:12:12.234Z</time></trkpt><trkpt lat="41.9568218" lon="2.250089"><ele>483.5</ele><time>2026-05-03T09:12:13.235Z</time></trkpt><trkpt lat="41.956702" lon="2.250117"><ele>484.0</ele><time>2026-05-03T09:12:14.235Z</time></trkpt><trkpt lat="41.9565844" lon="2.2501458"><ele>484.5</ele><time>2026-05-03T09:12:15.235Z</time></trkpt><trkpt lat="41.9564693" lon="2.2501732"><ele>485.0</ele><time>2026-05-03T09:12:16.235Z</time></trkpt><trkpt lat="41.9563562" lon="2.2501996"><ele>485.0</ele><time>2026-05-03T09:12:17.234Z</time></trkpt><trkpt lat="41.9562414" lon="2.2502255"><ele>485.0</ele><time>2026-05-03T09:12:18.234Z</time></trkpt><trkpt lat="41.9561286" lon="2.2502536"><ele>485.0</ele><time>2026-05-03T09:12:19.235Z</time></trkpt><trkpt lat="41.9560162" lon="2.2502813"><ele>485.0</ele><time>2026-05-03T09:12:20.234Z</time></trkpt><trkpt lat="41.9559044" lon="2.2503034"><ele>486.0</ele><time>2026-05-03T09:12:21.235Z</time></trkpt><trkpt lat="41.9557947" lon="2.250326"><ele>487.0</ele><time>2026-05-03T09:12:22.234Z</time></trkpt><trkpt lat="41.9556898" lon="2.2503508"><ele>488.0</ele><time>2026-05-03T09:12:23.235Z</time></trkpt><trkpt lat="41.9555911" lon="2.2503729"><ele>489.0</ele><time>2026-05-03T09:12:24.235Z</time></trkpt><trkpt lat="41.9554998" lon="2.2503918"><ele>490.0</ele><time>2026-05-03T09:12:25.235Z</time></trkpt><trkpt lat="41.9554148" lon="2.2504092"><ele>490.00000000000006</ele><time>2026-05-03T09:12:26.235Z</time></trkpt><trkpt lat="41.9553329" lon="2.2504168"><ele>490.0</ele><time>2026-05-03T09:12:27.235Z</time></trkpt><trkpt lat="41.9552485" lon="2.2504288"><ele>490.0</ele><time>2026-05-03T09:12:28.235Z</time></trkpt><trkpt lat="41.9551619" lon="2.2504382"><ele>490.0</ele><time>2026-05-03T09:12:29.234Z</time></trkpt><trkpt lat="41.9550707" lon="2.2504493"><ele>490.00000000000006</ele><time>2026-05-03T09:12:30.235Z</time></trkpt><trkpt lat="41.9549802" lon="2.2504621"><ele>490.0</ele><time>2026-05-03T09:12:31.235Z</time></trkpt><trkpt lat="41.9548991" lon="2.2504687"><ele>489.8</ele><time>2026-05-03T09:12:32.235Z</time></trkpt><trkpt lat="41.9548194" lon="2.2504663"><ele>489.6</ele><time>2026-05-03T09:12:33.235Z</time></trkpt><trkpt lat="41.9547367" lon="2.2504363"><ele>489.4</ele><time>2026-05-03T09:12:34.235Z</time></trkpt><trkpt lat="41.9546548" lon="2.2503875"><ele>489.2</ele><time>2026-05-03T09:12:35.235Z</time></trkpt><trkpt lat="41.9545574" lon="2.2503454"><ele>489.0</ele><time>2026-05-03T09:12:36.235Z</time></trkpt><trkpt lat="41.9544503" lon="2.2503129"><ele>489.0</ele><time>2026-05-03T09:12:37.235Z</time></trkpt><trkpt lat="41.9543389" lon="2.2502734"><ele>489.0</ele><time>2026-05-03T09:12:38.234Z</time></trkpt><trkpt lat="41.9542234" lon="2.2502345"><ele>489.0</ele><time>2026-05-03T09:12:39.235Z</time></trkpt><trkpt lat="41.9541114" lon="2.2502062"><ele>489.0</ele><time>2026-05-03T09:12:40.235Z</time></trkpt><trkpt lat="41.954001" lon="2.2501767"><ele>488.25</ele><time>2026-05-03T09:12:41.235Z</time></trkpt><trkpt lat="41.9538891" lon="2.2501424"><ele>487.5</ele><time>2026-05-03T09:12:42.235Z</time></trkpt><trkpt lat="41.9537796" lon="2.2500972"><ele>486.75</ele><time>2026-05-03T09:12:43.235Z</time></trkpt><trkpt lat="41.953666" lon="2.2500463"><ele>486.0</ele><time>2026-05-03T09:12:44.234Z</time></trkpt><trkpt lat="41.9535485" lon="2.2499903"><ele>486.0</ele><time>2026-05-03T09:12:45.235Z</time></trkpt><trkpt lat="41.9534302" lon="2.2499262"><ele>486.0</ele><time>2026-05-03T09:12:46.235Z</time></trkpt><trkpt lat="41.9533141" lon="2.2498615"><ele>486.0</ele><time>2026-05-03T09:12:47.234Z</time></trkpt><trkpt lat="41.9531994" lon="2.2497949"><ele>486.0</ele><time>2026-05-03T09:12:48.234Z</time></trkpt><trkpt lat="41.9530792" lon="2.2497186"><ele>487.0</ele><time>2026-05-03T09:12:49.235Z</time></trkpt><trkpt lat="41.952949" lon="2.2496296"><ele>488.0</ele><time>2026-05-03T09:12:50.234Z</time></trkpt><trkpt lat="41.9528159" lon="2.2495309"><ele>489.0</ele><time>2026-05-03T09:12:51.235Z</time></trkpt><trkpt lat="41.9526843" lon="2.2494238"><ele>489.0</ele><time>2026-05-03T09:12:52.234Z</time></trkpt><trkpt lat="41.9525562" lon="2.2493069"><ele>489.0</ele><time>2026-05-03T09:12:53.234Z</time></trkpt><trkpt lat="41.9524302" lon="2.2491807"><ele>489.0</ele><time>2026-05-03T09:12:54.234Z</time></trkpt><trkpt lat="41.9523049" lon="2.2490502"><ele>487.33333333333337</ele><time>2026-05-03T09:12:55.235Z</time></trkpt><trkpt lat="41.9521794" lon="2.2489192"><ele>485.6666666666667</ele><time>2026-05-03T09:12:56.235Z</time></trkpt><trkpt lat="41.9520568" lon="2.248787"><ele>484.0</ele><time>2026-05-03T09:12:57.235Z</time></trkpt><trkpt lat="41.9519302" lon="2.2486451"><ele>484.0</ele><time>2026-05-03T09:12:58.235Z</time></trkpt><trkpt lat="41.9518035" lon="2.2485044"><ele>484.0</ele><time>2026-05-03T09:12:59.234Z</time></trkpt><trkpt lat="41.9516778" lon="2.2483617"><ele>484.0</ele><time>2026-05-03T09:13:00.235Z</time></trkpt><trkpt lat="41.9515515" lon="2.2482181"><ele>484.33333333333337</ele><time>2026-05-03T09:13:01.234Z</time></trkpt><trkpt lat="41.9514227" lon="2.2480703"><ele>484.66666666666663</ele><time>2026-05-03T09:13:02.235Z</time></trkpt><trkpt lat="41.9512898" lon="2.2479192"><ele>485.0</ele><time>2026-05-03T09:13:03.235Z</time></trkpt><trkpt lat="41.951156" lon="2.2477677"><ele>485.0</ele><time>2026-05-03T09:13:04.235Z</time></trkpt><trkpt lat="41.9510227" lon="2.2476153"><ele>485.0</ele><time>2026-05-03T09:13:05.234Z</time></trkpt><trkpt lat="41.9508945" lon="2.2474666"><ele>485.0</ele><time>2026-05-03T09:13:06.235Z</time></trkpt><trkpt lat="41.9507735" lon="2.2473264"><ele>485.0</ele><time>2026-05-03T09:13:07.235Z</time></trkpt><trkpt lat="41.9506557" lon="2.2471917"><ele>485.0</ele><time>2026-05-03T09:13:08.235Z</time></trkpt><trkpt lat="41.9505414" lon="2.2470631"><ele>485.0</ele><time>2026-05-03T09:13:09.235Z</time></trkpt><trkpt lat="41.9504282" lon="2.2469332"><ele>485.0</ele><time>2026-05-03T09:13:10.235Z</time></trkpt><trkpt lat="41.9503069" lon="2.2468023"><ele>485.0</ele><time>2026-05-03T09:13:11.234Z</time></trkpt><trkpt lat="41.9501726" lon="2.246674"><ele>485.0</ele><time>2026-05-03T09:13:12.235Z</time></trkpt><trkpt lat="41.9500228" lon="2.2465496"><ele>484.66666666666663</ele><time>2026-05-03T09:13:13.235Z</time></trkpt><trkpt lat="41.949856" lon="2.2464202"><ele>484.33333333333337</ele><time>2026-05-03T09:13:14.235Z</time></trkpt><trkpt lat="41.9496767" lon="2.2463001"><ele>484.0</ele><time>2026-05-03T09:13:15.235Z</time></trkpt><trkpt lat="41.9494826" lon="2.246181"><ele>484.0</ele><time>2026-05-03T09:13:16.235Z</time></trkpt><trkpt lat="41.9492638" lon="2.2460817"><ele>484.0</ele><time>2026-05-03T09:13:17.235Z</time></trkpt><trkpt lat="41.9490313" lon="2.245979"><ele>484.0</ele><time>2026-05-03T09:13:18.235Z</time></trkpt><trkpt lat="41.948799" lon="2.2458662"><ele>484.0</ele><time>2026-05-03T09:13:19.235Z</time></trkpt><trkpt lat="41.9485743" lon="2.2457557"><ele>484.0</ele><time>2026-05-03T09:13:20.234Z</time></trkpt><trkpt lat="41.9483596" lon="2.2456573"><ele>484.0</ele><time>2026-05-03T09:13:21.234Z</time></trkpt><trkpt lat="41.9481509" lon="2.245567"><ele>484.0</ele><time>2026-05-03T09:13:22.235Z</time></trkpt><trkpt lat="41.9479474" lon="2.2454832"><ele>485.33333333333337</ele><time>2026-05-03T09:13:23.235Z</time></trkpt><trkpt lat="41.9477487" lon="2.2454035"><ele>486.66666666666663</ele><time>2026-05-03T09:13:24.235Z</time></trkpt><trkpt lat="41.9475513" lon="2.2453237"><ele>488.0</ele><time>2026-05-03T09:13:25.234Z</time></trkpt><trkpt lat="41.9473583" lon="2.2452422"><ele>488.0</ele><time>2026-05-03T09:13:26.235Z</time></trkpt><trkpt lat="41.9471731" lon="2.2451644"><ele>488.0</ele><time>2026-05-03T09:13:27.235Z</time></trkpt><trkpt lat="41.9469838" lon="2.2450847"><ele>488.0</ele><time>2026-05-03T09:13:28.235Z</time></trkpt><trkpt lat="41.946792" lon="2.2450028"><ele>487.0</ele><time>2026-05-03T09:13:29.234Z</time></trkpt><trkpt lat="41.9466018" lon="2.2449218"><ele>486.0</ele><time>2026-05-03T09:13:30.235Z</time></trkpt><trkpt lat="41.9464248" lon="2.244846"><ele>485.0</ele><time>2026-05-03T09:13:31.235Z</time></trkpt><trkpt lat="41.9462618" lon="2.2447773"><ele>484.5</ele><time>2026-05-03T09:13:32.234Z</time></trkpt><trkpt lat="41.9461171" lon="2.2447153"><ele>484.0</ele><time>2026-05-03T09:13:33.234Z</time></trkpt><trkpt lat="41.9459925" lon="2.2446631"><ele>483.5</ele><time>2026-05-03T09:13:34.235Z</time></trkpt><trkpt lat="41.9458885" lon="2.2446155"><ele>483.0</ele><time>2026-05-03T09:13:35.235Z</time></trkpt><trkpt lat="41.9458033" lon="2.2445645"><ele>482.79999999999995</ele><time>2026-05-03T09:13:36.235Z</time></trkpt><trkpt lat="41.945733" lon="2.2444929"><ele>482.59999999999997</ele><time>2026-05-03T09:13:37.234Z</time></trkpt><trkpt lat="41.9456686" lon="2.2444136"><ele>482.40000000000003</ele><time>2026-05-03T09:13:38.235Z</time></trkpt><trkpt lat="41.9455908" lon="2.2443489"><ele>482.20000000000005</ele><time>2026-05-03T09:13:39.235Z</time></trkpt><trkpt lat="41.9454958" lon="2.2443151"><ele>482.0</ele><time>2026-05-03T09:13:40.235Z</time></trkpt><trkpt lat="41.9453858" lon="2.2443169"><ele>482.0</ele><time>2026-05-03T09:13:41.234Z</time></trkpt><trkpt lat="41.9452575" lon="2.2443167"><ele>482.0</ele><time>2026-05-03T09:13:42.235Z</time></trkpt><trkpt lat="41.9451118" lon="2.2442829"><ele>482.0</ele><time>2026-05-03T09:13:43.235Z</time></trkpt><trkpt lat="41.9449529" lon="2.2442295"><ele>482.0</ele><time>2026-05-03T09:13:44.235Z</time></trkpt><trkpt lat="41.9447778" lon="2.2441567"><ele>483.0</ele><time>2026-05-03T09:13:45.235Z</time></trkpt><trkpt lat="41.9445884" lon="2.244077"><ele>484.0</ele><time>2026-05-03T09:13:46.234Z</time></trkpt><trkpt lat="41.9443806" lon="2.2439898"><ele>485.0</ele><time>2026-05-03T09:13:47.235Z</time></trkpt><trkpt lat="41.9441607" lon="2.243899"><ele>485.0</ele><time>2026-05-03T09:13:48.235Z</time></trkpt><trkpt lat="41.9439332" lon="2.2438041"><ele>485.0</ele><time>2026-05-03T09:13:49.235Z</time></trkpt><trkpt lat="41.9437151" lon="2.2437131"><ele>485.0</ele><time>2026-05-03T09:13:50.235Z</time></trkpt><trkpt lat="41.9435065" lon="2.243629"><ele>485.0</ele><time>2026-05-03T09:13:51.235Z</time></trkpt><trkpt lat="41.9433053" lon="2.2435505"><ele>485.0</ele><time>2026-05-03T09:13:52.235Z</time></trkpt><trkpt lat="41.9431053" lon="2.2434733"><ele>485.66666666666663</ele><time>2026-05-03T09:13:53.235Z</time></trkpt><trkpt lat="41.942905" lon="2.2433927"><ele>486.33333333333337</ele><time>2026-05-03T09:13:54.235Z</time></trkpt><trkpt lat="41.9427056" lon="2.2433167"><ele>487.0</ele><time>2026-05-03T09:13:55.235Z</time></trkpt><trkpt lat="41.9425068" lon="2.243234"><ele>487.0</ele><time>2026-05-03T09:13:56.234Z</time></trkpt><trkpt lat="41.9423099" lon="2.2431463"><ele>487.0</ele><time>2026-05-03T09:13:57.235Z</time></trkpt><trkpt lat="41.9421237" lon="2.2430637"><ele>487.0</ele><time>2026-05-03T09:13:58.234Z</time></trkpt><trkpt lat="41.9419504" lon="2.2429966"><ele>487.25</ele><time>2026-05-03T09:13:59.235Z</time></trkpt><trkpt lat="41.9417995" lon="2.242947"><ele>487.5</ele><time>2026-05-03T09:14:00.235Z</time></trkpt><trkpt lat="41.9416721" lon="2.2429034"><ele>487.75</ele><time>2026-05-03T09:14:01.235Z</time></trkpt><trkpt lat="41.9415728" lon="2.2428469"><ele>488.0</ele><time>2026-05-03T09:14:02.235Z</time></trkpt><trkpt lat="41.9414829" lon="2.2428021"><ele>487.99999999999994</ele><time>2026-05-03T09:14:03.235Z</time></trkpt><trkpt lat="41.9414123" lon="2.2427462"><ele>488.0</ele><time>2026-05-03T09:14:04.235Z</time></trkpt><trkpt lat="41.9413631" lon="2.2426669"><ele>488.0</ele><time>2026-05-03T09:14:05.234Z</time></trkpt><trkpt lat="41.9413253" lon="2.24257"><ele>488.0</ele><time>2026-05-03T09:14:06.235Z</time></trkpt><trkpt lat="41.9412752" lon="2.2424951"><ele>487.99999999999994</ele><time>2026-05-03T09:14:07.235Z</time></trkpt><trkpt lat="41.9412108" lon="2.2424565"><ele>488.0</ele><time>2026-05-03T09:14:08.235Z</time></trkpt><trkpt lat="41.941139" lon="2.2424564"><ele>488.0</ele><time>2026-05-03T09:14:09.235Z</time></trkpt><trkpt lat="41.9410673" lon="2.2424991"><ele>487.99999999999994</ele><time>2026-05-03T09:14:10.234Z</time></trkpt><trkpt lat="41.9409897" lon="2.2425757"><ele>487.99999999999994</ele><time>2026-05-03T09:14:11.235Z</time></trkpt><trkpt lat="41.9409076" lon="2.2426529"><ele>488.0</ele><time>2026-05-03T09:14:12.234Z</time></trkpt><trkpt lat="41.9408134" lon="2.2427096"><ele>488.0</ele><time>2026-05-03T09:14:13.234Z</time></trkpt><trkpt lat="41.9407159" lon="2.2427597"><ele>488.2</ele><time>2026-05-03T09:14:14.235Z</time></trkpt><trkpt lat="41.9406176" lon="2.2427996"><ele>488.4</ele><time>2026-05-03T09:14:15.235Z</time></trkpt><trkpt lat="41.9405217" lon="2.2428335"><ele>488.59999999999997</ele><time>2026-05-03T09:14:16.235Z</time></trkpt><trkpt lat="41.940429" lon="2.2428586"><ele>488.79999999999995</ele><time>2026-05-03T09:14:17.235Z</time></trkpt><trkpt lat="41.9403385" lon="2.242875"><ele>489.0</ele><time>2026-05-03T09:14:18.234Z</time></trkpt><trkpt lat="41.9402485" lon="2.2428884"><ele>489.0</ele><time>2026-05-03T09:14:19.234Z</time></trkpt><trkpt lat="41.9401602" lon="2.2429056"><ele>489.0</ele><time>2026-05-03T09:14:20.234Z</time></trkpt><trkpt lat="41.9400733" lon="2.2429213"><ele>489.0</ele><time>2026-05-03T09:14:21.235Z</time></trkpt><trkpt lat="41.9399861" lon="2.2429387"><ele>489.0</ele><time>2026-05-03T09:14:22.235Z</time></trkpt><trkpt lat="41.9398951" lon="2.2429543"><ele>489.0</ele><time>2026-05-03T09:14:23.234Z</time></trkpt><trkpt lat="41.9398023" lon="2.2429705"><ele>489.0</ele><time>2026-05-03T09:14:24.235Z</time></trkpt><trkpt lat="41.9397085" lon="2.2429861"><ele>489.0</ele><time>2026-05-03T09:14:25.234Z</time></trkpt><trkpt lat="41.9396094" lon="2.243004"><ele>489.0</ele><time>2026-05-03T09:14:26.234Z</time></trkpt><trkpt lat="41.9395064" lon="2.2430214"><ele>489.0</ele><time>2026-05-03T09:14:27.234Z</time></trkpt><trkpt lat="41.9393968" lon="2.2430401"><ele>489.0</ele><time>2026-05-03T09:14:28.234Z</time></trkpt><trkpt lat="41.9392844" lon="2.243063"><ele>488.5</ele><time>2026-05-03T09:14:29.235Z</time></trkpt><trkpt lat="41.9391711" lon="2.2430835"><ele>488.0</ele><time>2026-05-03T09:14:30.234Z</time></trkpt><trkpt lat="41.9390574" lon="2.2431034"><ele>487.5</ele><time>2026-05-03T09:14:31.234Z</time></trkpt><trkpt lat="41.9389461" lon="2.2431235"><ele>487.0</ele><time>2026-05-03T09:14:32.234Z</time></trkpt><trkpt lat="41.9388345" lon="2.2431441"><ele>487.0</ele><time>2026-05-03T09:14:33.235Z</time></trkpt><trkpt lat="41.9387237" lon="2.2431624"><ele>487.0</ele><time>2026-05-03T09:14:34.234Z</time></trkpt><trkpt lat="41.9386125" lon="2.2431845"><ele>487.0</ele><time>2026-05-03T09:14:35.234Z</time></trkpt><trkpt lat="41.9385001" lon="2.243206"><ele>487.0</ele><time>2026-05-03T09:14:36.235Z</time></trkpt><trkpt lat="41.9383869" lon="2.2432284"><ele>486.25</ele><time>2026-05-03T09:14:37.235Z</time></trkpt><trkpt lat="41.9382714" lon="2.2432468"><ele>485.5</ele><time>2026-05-03T09:14:38.234Z</time></trkpt><trkpt lat="41.9381541" lon="2.2432658"><ele>484.75</ele><time>2026-05-03T09:14:39.235Z</time></trkpt><trkpt lat="41.938036" lon="2.243284"><ele>484.0</ele><time>2026-05-03T09:14:40.235Z</time></trkpt><trkpt lat="41.9379154" lon="2.2433049"><ele>484.0</ele><time>2026-05-03T09:14:41.234Z</time></trkpt><trkpt lat="41.9377904" lon="2.2433249"><ele>484.0</ele><time>2026-05-03T09:14:42.234Z</time></trkpt><trkpt lat="41.9376624" lon="2.2433474"><ele>484.0</ele><time>2026-05-03T09:14:43.235Z</time></trkpt><trkpt lat="41.9375312" lon="2.2433727"><ele>484.0</ele><time>2026-05-03T09:14:44.234Z</time></trkpt><trkpt lat="41.9373992" lon="2.2434029"><ele>484.0</ele><time>2026-05-03T09:14:45.235Z</time></trkpt><trkpt lat="41.9372671" lon="2.2434293"><ele>484.0</ele><time>2026-05-03T09:14:46.234Z</time></trkpt><trkpt lat="41.937134" lon="2.2434523"><ele>484.0</ele><time>2026-05-03T09:14:47.235Z</time></trkpt><trkpt lat="41.9370008" lon="2.243475"><ele>484.0</ele><time>2026-05-03T09:14:48.235Z</time></trkpt><trkpt lat="41.9368686" lon="2.2434987"><ele>484.0</ele><time>2026-05-03T09:14:49.235Z</time></trkpt><trkpt lat="41.9367385" lon="2.2435266"><ele>484.0</ele><time>2026-05-03T09:14:50.235Z</time></trkpt><trkpt lat="41.9366078" lon="2.2435516"><ele>484.0</ele><time>2026-05-03T09:14:51.235Z</time></trkpt><trkpt lat="41.9364774" lon="2.2435751"><ele>484.0</ele><time>2026-05-03T09:14:52.235Z</time></trkpt><trkpt lat="41.936346" lon="2.2435966"><ele>485.25</ele><time>2026-05-03T09:14:53.234Z</time></trkpt><trkpt lat="41.9362157" lon="2.2436214"><ele>486.5</ele><time>2026-05-03T09:14:54.235Z</time></trkpt><trkpt lat="41.9360825" lon="2.243647"><ele>487.75</ele><time>2026-05-03T09:14:55.235Z</time></trkpt><trkpt lat="41.9359453" lon="2.2436703"><ele>489.0</ele><time>2026-05-03T09:14:56.235Z</time></trkpt><trkpt lat="41.9358012" lon="2.2436943"><ele>490.0</ele><time>2026-05-03T09:14:57.235Z</time></trkpt><trkpt lat="41.9356551" lon="2.243719"><ele>491.0</ele><time>2026-05-03T09:14:58.235Z</time></trkpt><trkpt lat="41.9355085" lon="2.2437424"><ele>492.0</ele><time>2026-05-03T09:14:59.234Z</time></trkpt><trkpt lat="41.9353691" lon="2.2437648"><ele>493.0</ele><time>2026-05-03T09:15:00.235Z</time></trkpt><trkpt lat="41.9352275" lon="2.2437892"><ele>493.0</ele><time>2026-05-03T09:15:01.234Z</time></trkpt><trkpt lat="41.9350842" lon="2.2438154"><ele>493.0</ele><time>2026-05-03T09:15:02.235Z</time></trkpt><trkpt lat="41.9349386" lon="2.243838"><ele>493.0</ele><time>2026-05-03T09:15:03.235Z</time></trkpt><trkpt lat="41.9347937" lon="2.2438633"><ele>493.0</ele><time>2026-05-03T09:15:04.234Z</time></trkpt><trkpt lat="41.9346458" lon="2.2438912"><ele>495.0</ele><time>2026-05-03T09:15:05.235Z</time></trkpt><trkpt lat="41.9344954" lon="2.2439184"><ele>497.0</ele><time>2026-05-03T09:15:06.234Z</time></trkpt><trkpt lat="41.9343453" lon="2.2439472"><ele>499.0</ele><time>2026-05-03T09:15:07.234Z</time></trkpt><trkpt lat="41.9341981" lon="2.2439738"><ele>500.75</ele><time>2026-05-03T09:15:08.234Z</time></trkpt><trkpt lat="41.9340539" lon="2.2439975"><ele>502.5</ele><time>2026-05-03T09:15:09.235Z</time></trkpt><trkpt lat="41.9339129" lon="2.2440181"><ele>504.25</ele><time>2026-05-03T09:15:10.234Z</time></trkpt><trkpt lat="41.9337798" lon="2.2440401"><ele>506.0</ele><time>2026-05-03T09:15:11.235Z</time></trkpt><trkpt lat="41.9336468" lon="2.2440641"><ele>506.0</ele><time>2026-05-03T09:15:12.235Z</time></trkpt><trkpt lat="41.9335276" lon="2.2440861"><ele>506.0</ele><time>2026-05-03T09:15:13.234Z</time></trkpt><trkpt lat="41.9334" lon="2.2441089"><ele>506.0</ele><time>2026-05-03T09:15:14.235Z</time></trkpt><trkpt lat="41.9332689" lon="2.2441313"><ele>506.0</ele><time>2026-05-03T09:15:15.235Z</time></trkpt><trkpt lat="41.9331403" lon="2.2441503"><ele>505.5</ele><time>2026-05-03T09:15:16.235Z</time></trkpt><trkpt lat="41.9330169" lon="2.2441713"><ele>505.0</ele><time>2026-05-03T09:15:17.235Z</time></trkpt><trkpt lat="41.932902" lon="2.2441903"><ele>504.5</ele><time>2026-05-03T09:15:18.235Z</time></trkpt><trkpt lat="41.9327923" lon="2.2442086"><ele>504.0</ele><time>2026-05-03T09:15:19.235Z</time></trkpt><trkpt lat="41.9326859" lon="2.2442291"><ele>504.0</ele><time>2026-05-03T09:15:20.235Z</time></trkpt><trkpt lat="41.9325865" lon="2.2442487"><ele>504.0</ele><time>2026-05-03T09:15:21.235Z</time></trkpt><trkpt lat="41.9324936" lon="2.244266"><ele>504.0</ele><time>2026-05-03T09:15:22.234Z</time></trkpt><trkpt lat="41.9324041" lon="2.2442813"><ele>504.0</ele><time>2026-05-03T09:15:23.235Z</time></trkpt><trkpt lat="41.9323152" lon="2.2442959"><ele>504.0</ele><time>2026-05-03T09:15:24.235Z</time></trkpt><trkpt lat="41.9322296" lon="2.244307"><ele>504.1666666666667</ele><time>2026-05-03T09:15:25.235Z</time></trkpt><trkpt lat="41.9321455" lon="2.2443213"><ele>504.33333333333337</ele><time>2026-05-03T09:15:26.235Z</time></trkpt><trkpt lat="41.9320615" lon="2.2443353"><ele>504.5</ele><time>2026-05-03T09:15:27.234Z</time></trkpt><trkpt lat="41.9319762" lon="2.2443489"><ele>504.6666666666667</ele><time>2026-05-03T09:15:28.235Z</time></trkpt><trkpt lat="41.9318891" lon="2.2443662"><ele>504.83333333333337</ele><time>2026-05-03T09:15:29.234Z</time></trkpt><trkpt lat="41.9317996" lon="2.2443836"><ele>505.0</ele><time>2026-05-03T09:15:30.235Z</time></trkpt><trkpt lat="41.9317113" lon="2.2443977"><ele>505.00000000000006</ele><time>2026-05-03T09:15:31.235Z</time></trkpt><trkpt lat="41.9316329" lon="2.2444116"><ele>505.0</ele><time>2026-05-03T09:15:32.235Z</time></trkpt><trkpt lat="41.9315673" lon="2.2444258"><ele>505.0</ele><time>2026-05-03T09:15:33.234Z</time></trkpt><trkpt lat="41.9314726" lon="2.2444363"><ele>505.0</ele><time>2026-05-03T09:15:35.234Z</time></trkpt><trkpt lat="41.931388" lon="2.2444112"><ele>505.00000000000006</ele><time>2026-05-03T09:15:37.235Z</time></trkpt><trkpt lat="41.9313195" lon="2.244352"><ele>505.0</ele><time>2026-05-03T09:15:39.235Z</time></trkpt><trkpt lat="41.9312478" lon="2.2442917"><ele>505.0</ele><time>2026-05-03T09:15:41.235Z</time></trkpt><trkpt lat="41.9311355" lon="2.2442576"><ele>505.0</ele><time>2026-05-03T09:15:43.235Z</time></trkpt><trkpt lat="41.9310137" lon="2.2442745"><ele>505.0</ele><time>2026-05-03T09:15:45.235Z</time></trkpt><trkpt lat="41.9308927" lon="2.2442915"><ele>505.0</ele><time>2026-05-03T09:15:47.235Z</time></trkpt><trkpt lat="41.9307724" lon="2.2443085"><ele>503.75</ele><time>2026-05-03T09:15:49.235Z</time></trkpt><trkpt lat="41.9306549" lon="2.2443299"><ele>502.5</ele><time>2026-05-03T09:15:51.235Z</time></trkpt><trkpt lat="41.9305487" lon="2.2443924"><ele>501.25</ele><time>2026-05-03T09:15:53.235Z</time></trkpt><trkpt lat="41.9304454" lon="2.244471"><ele>500.0</ele><time>2026-05-03T09:15:55.234Z</time></trkpt><trkpt lat="41.9303245" lon="2.2445228"><ele>500.0</ele><time>2026-05-03T09:15:57.235Z</time></trkpt><trkpt lat="41.9302586" lon="2.2445357"><ele>500.0</ele><time>2026-05-03T09:15:58.235Z</time></trkpt><trkpt lat="41.9301955" lon="2.2445466"><ele>500.0</ele><time>2026-05-03T09:15:59.235Z</time></trkpt><trkpt lat="41.9301318" lon="2.2445577"><ele>500.0</ele><time>2026-05-03T09:16:00.234Z</time></trkpt><trkpt lat="41.9300656" lon="2.2445678"><ele>500.0</ele><time>2026-05-03T09:16:01.235Z</time></trkpt><trkpt lat="41.9299982" lon="2.2445776"><ele>500.0</ele><time>2026-05-03T09:16:02.235Z</time></trkpt><trkpt lat="41.9299303" lon="2.2445917"><ele>500.0</ele><time>2026-05-03T09:16:03.235Z</time></trkpt><trkpt lat="41.9298617" lon="2.2446057"><ele>500.1428571428571</ele><time>2026-05-03T09:16:04.235Z</time></trkpt><trkpt lat="41.9297913" lon="2.2446193"><ele>500.28571428571433</ele><time>2026-05-03T09:16:05.235Z</time></trkpt><trkpt lat="41.9297258" lon="2.244627"><ele>500.42857142857144</ele><time>2026-05-03T09:16:06.235Z</time></trkpt><trkpt lat="41.9296539" lon="2.2446358"><ele>500.57142857142856</ele><time>2026-05-03T09:16:07.234Z</time></trkpt><trkpt lat="41.9295803" lon="2.2446449"><ele>500.71428571428567</ele><time>2026-05-03T09:16:08.235Z</time></trkpt><trkpt lat="41.9295084" lon="2.244655"><ele>500.8571428571429</ele><time>2026-05-03T09:16:09.235Z</time></trkpt><trkpt lat="41.9294432" lon="2.2446683"><ele>501.0</ele><time>2026-05-03T09:16:10.235Z</time></trkpt><trkpt lat="41.929321" lon="2.2447003"><ele>501.0</ele><time>2026-05-03T09:16:12.235Z</time></trkpt><trkpt lat="41.9292459" lon="2.2447158"><ele>501.0</ele><time>2026-05-03T09:16:13.235Z</time></trkpt><trkpt lat="41.929156" lon="2.2447273"><ele>501.0</ele><time>2026-05-03T09:16:14.235Z</time></trkpt><trkpt lat="41.929058" lon="2.2447377"><ele>501.0</ele><time>2026-05-03T09:16:15.235Z</time></trkpt><trkpt lat="41.9289544" lon="2.2447532"><ele>501.0</ele><time>2026-05-03T09:16:16.234Z</time></trkpt><trkpt lat="41.9288491" lon="2.2447732"><ele>501.0</ele><time>2026-05-03T09:16:17.235Z</time></trkpt><trkpt lat="41.9287471" lon="2.2447921"><ele>501.0</ele><time>2026-05-03T09:16:18.234Z</time></trkpt><trkpt lat="41.9286558" lon="2.2448075"><ele>501.0</ele><time>2026-05-03T09:16:19.234Z</time></trkpt><trkpt lat="41.9285702" lon="2.2448233"><ele>501.0</ele><time>2026-05-03T09:16:20.235Z</time></trkpt><trkpt lat="41.9284861" lon="2.2448379"><ele>501.0</ele><time>2026-05-03T09:16:21.235Z</time></trkpt><trkpt lat="41.9284093" lon="2.244852"><ele>501.0</ele><time>2026-05-03T09:16:22.235Z</time></trkpt><trkpt lat="41.9283395" lon="2.244863"><ele>500.6666666666667</ele><time>2026-05-03T09:16:23.234Z</time></trkpt><trkpt lat="41.928271" lon="2.2448742"><ele>500.33333333333337</ele><time>2026-05-03T09:16:24.234Z</time></trkpt><trkpt lat="41.9282059" lon="2.2448819"><ele>500.0</ele><time>2026-05-03T09:16:25.234Z</time></trkpt><trkpt lat="41.9281391" lon="2.2448935"><ele>499.6666666666667</ele><time>2026-05-03T09:16:26.234Z</time></trkpt><trkpt lat="41.9280203" lon="2.2449115"><ele>499.33333333333337</ele><time>2026-05-03T09:16:28.235Z</time></trkpt><trkpt lat="41.9279055" lon="2.2449293"><ele>499.0</ele><time>2026-05-03T09:16:30.235Z</time></trkpt><trkpt lat="41.9278409" lon="2.2449291"><ele>499.00000000000006</ele><time>2026-05-03T09:16:32.234Z</time></trkpt><trkpt lat="41.9277657" lon="2.2449134"><ele>499.0</ele><time>2026-05-03T09:16:35.235Z</time></trkpt><trkpt lat="41.9276609" lon="2.2449049"><ele>499.0</ele><time>2026-05-03T09:16:37.235Z</time></trkpt><trkpt lat="41.927596" lon="2.2449278"><ele>499.0</ele><time>2026-05-03T09:16:38.235Z</time></trkpt><trkpt lat="41.9275412" lon="2.244976"><ele>499.00000000000006</ele><time>2026-05-03T09:16:39.235Z</time></trkpt><trkpt lat="41.9274786" lon="2.2450767"><ele>499.0</ele><time>2026-05-03T09:16:41.235Z</time></trkpt><trkpt lat="41.9274008" lon="2.2450988"><ele>497.0</ele><time>2026-05-03T09:16:44.235Z</time></trkpt><trkpt lat="41.9273651" lon="2.2450276"><ele>497.0</ele><time>2026-05-03T09:16:48.234Z</time></trkpt><trkpt lat="41.9274294" lon="2.2450132"><ele>497.0</ele><time>2026-05-03T09:18:00.235Z</time></trkpt><trkpt lat="41.9273426" lon="2.2449669"><ele>497.0</ele><time>2026-05-03T09:23:31.235Z</time></trkpt><trkpt lat="41.927399" lon="2.2449218"><ele>497.0</ele><time>2026-05-03T09:25:33.234Z</time></trkpt><trkpt lat="41.9273976" lon="2.2450067"><ele>497.0</ele><time>2026-05-03T09:29:11.235Z</time></trkpt><trkpt lat="41.9273838" lon="2.2449236"><ele>497.0</ele><time>2026-05-03T09:38:01.235Z</time></trkpt></trkseg></trk></gpx>